<?xml version="1.0" encoding="UTF-8" standalone="no" ?><gpx xmlns="http://www.topografix.com/GPX/1/1" xmlns:gpxx="http://www.garmin.com/xmlschemas/GpxExtensions/v3" xmlns:wptx1="http://www.garmin.com/xmlschemas/WaypointExtension/v1" xmlns:gpxtpx="http://www.garmin.com/xmlschemas/TrackPointExtension/v1" creator="GuideVTT.com" version="1.1" xmlns:xsi="http://www.w3.org/2001/XMLSchema-instance" xsi:schemaLocation="http://www.topografix.com/GPX/1/1 http://www.topografix.com/GPX/1/1/gpx.xsd http://www.garmin.com/xmlschemas/GpxExtensions/v3 http://www8.garmin.com/xmlschemas/GpxExtensionsv3.xsd http://www.garmin.com/xmlschemas/WaypointExtension/v1 http://www8.garmin.com/xmlschemas/WaypointExtensionv1.xsd http://www.garmin.com/xmlschemas/TrackPointExtension/v1 http://www.garmin.com/xmlschemas/TrackPointExtensionv1.xsd">
<metadata><link href="http://www.garmin.com"><text>Garmin International</text></link><time>2013-06-22T15:13:50Z</time></metadata>
<trk><name>sault-ventoux.gpx</name><extensions><gpxx:TrackExtension><gpxx:DisplayColor>Cyan</gpxx:DisplayColor></gpxx:TrackExtension></extensions><trkseg>
<trkpt lat="44.09722192" lon="5.40604097"><ele>675.599976</ele><time>2011-07-05T05:53:02Z</time></trkpt>
<trkpt lat="44.09719200" lon="5.40593192"><ele>675.599976</ele><time>2011-07-05T05:53:06Z</time></trkpt>
<trkpt lat="44.09721094" lon="5.40567200"><ele>675.599976</ele><time>2011-07-05T05:53:14Z</time></trkpt>
<trkpt lat="44.09732594" lon="5.40538693"><ele>675.599976</ele><time>2011-07-05T05:53:23Z</time></trkpt>
<trkpt lat="44.09746198" lon="5.40517093"><ele>676</ele><time>2011-07-05T05:53:31Z</time></trkpt>
<trkpt lat="44.09759693" lon="5.40500999"><ele>676.799988</ele><time>2011-07-05T05:53:39Z</time></trkpt>
<trkpt lat="44.09771193" lon="5.40489692"><ele>677</ele><time>2011-07-05T05:53:46Z</time></trkpt>
<trkpt lat="44.09789197" lon="5.40473700"><ele>679.599976</ele><time>2011-07-05T05:53:57Z</time></trkpt>
<trkpt lat="44.09800999" lon="5.40460096"><ele>681.599976</ele><time>2011-07-05T05:54:05Z</time></trkpt>
<trkpt lat="44.09811594" lon="5.40448093"><ele>682.400024</ele><time>2011-07-05T05:54:12Z</time></trkpt>
<trkpt lat="44.09825298" lon="5.40432192"><ele>684</ele><time>2011-07-05T05:54:21Z</time></trkpt>
<trkpt lat="44.09837100" lon="5.40416795"><ele>685.200012</ele><time>2011-07-05T05:54:29Z</time></trkpt>
<trkpt lat="44.09850293" lon="5.40400098"><ele>687</ele><time>2011-07-05T05:54:38Z</time></trkpt>
<trkpt lat="44.09859798" lon="5.40387693"><ele>688</ele><time>2011-07-05T05:54:44Z</time></trkpt>
<trkpt lat="44.09869898" lon="5.40373192"><ele>689.200012</ele><time>2011-07-05T05:54:51Z</time></trkpt>
<trkpt lat="44.09881792" lon="5.40358792"><ele>690.200012</ele><time>2011-07-05T05:54:58Z</time></trkpt>
<trkpt lat="44.09898598" lon="5.40331693"><ele>691.799988</ele><time>2011-07-05T05:55:08Z</time></trkpt>
<trkpt lat="44.09915999" lon="5.40297294"><ele>693.200012</ele><time>2011-07-05T05:55:19Z</time></trkpt>
<trkpt lat="44.09925998" lon="5.40279097"><ele>693.799988</ele><time>2011-07-05T05:55:25Z</time></trkpt>
<trkpt lat="44.09945494" lon="5.40258695"><ele>694.799988</ele><time>2011-07-05T05:55:33Z</time></trkpt>
<trkpt lat="44.09972694" lon="5.40248394"><ele>695.200012</ele><time>2011-07-05T05:55:41Z</time></trkpt>
<trkpt lat="44.10019398" lon="5.40231798"><ele>695.799988</ele><time>2011-07-05T05:55:54Z</time></trkpt>
<trkpt lat="44.10048994" lon="5.40216895"><ele>696.200012</ele><time>2011-07-05T05:56:03Z</time></trkpt>
<trkpt lat="44.10083092" lon="5.40197197"><ele>696.599976</ele><time>2011-07-05T05:56:14Z</time></trkpt>
<trkpt lat="44.10114298" lon="5.40178497"><ele>697.200012</ele><time>2011-07-05T05:56:24Z</time></trkpt>
<trkpt lat="44.10139292" lon="5.40163896"><ele>697.799988</ele><time>2011-07-05T05:56:32Z</time></trkpt>
<trkpt lat="44.10165997" lon="5.40147794"><ele>697.799988</ele><time>2011-07-05T05:56:40Z</time></trkpt>
<trkpt lat="44.10190296" lon="5.40135398"><ele>698.200012</ele><time>2011-07-05T05:56:47Z</time></trkpt>
<trkpt lat="44.10227898" lon="5.40114895"><ele>698.799988</ele><time>2011-07-05T05:56:57Z</time></trkpt>
<trkpt lat="44.10266798" lon="5.40093295"><ele>699.200012</ele><time>2011-07-05T05:57:07Z</time></trkpt>
<trkpt lat="44.10299295" lon="5.40076397"><ele>699.799988</ele><time>2011-07-05T05:57:16Z</time></trkpt>
<trkpt lat="44.10331598" lon="5.40058192"><ele>700.799988</ele><time>2011-07-05T05:57:26Z</time></trkpt>
<trkpt lat="44.10357499" lon="5.40040196"><ele>701.599976</ele><time>2011-07-05T05:57:34Z</time></trkpt>
<trkpt lat="44.10385494" lon="5.40010893"><ele>702.400024</ele><time>2011-07-05T05:57:43Z</time></trkpt>
<trkpt lat="44.10406893" lon="5.39980198"><ele>703</ele><time>2011-07-05T05:57:51Z</time></trkpt>
<trkpt lat="44.10428493" lon="5.39947894"><ele>703.200012</ele><time>2011-07-05T05:57:59Z</time></trkpt>
<trkpt lat="44.10448300" lon="5.39928893"><ele>703.599976</ele><time>2011-07-05T05:58:05Z</time></trkpt>
<trkpt lat="44.10451694" lon="5.39926194"><ele>703.599976</ele><time>2011-07-05T05:58:06Z</time></trkpt>
<trkpt lat="44.10491299" lon="5.39911995"><ele>703.799988</ele><time>2011-07-05T05:58:16Z</time></trkpt>
<trkpt lat="44.10511793" lon="5.39914593"><ele>704.200012</ele><time>2011-07-05T05:58:21Z</time></trkpt>
<trkpt lat="44.10549796" lon="5.39934894"><ele>704.599976</ele><time>2011-07-05T05:58:31Z</time></trkpt>
<trkpt lat="44.10587096" lon="5.39958900"><ele>705.599976</ele><time>2011-07-05T05:58:42Z</time></trkpt>
<trkpt lat="44.10618293" lon="5.39978798"><ele>706.799988</ele><time>2011-07-05T05:58:52Z</time></trkpt>
<trkpt lat="44.10642098" lon="5.39993995"><ele>708.400024</ele><time>2011-07-05T05:59:01Z</time></trkpt>
<trkpt lat="44.10658694" lon="5.40006392"><ele>710</ele><time>2011-07-05T05:59:09Z</time></trkpt>
<trkpt lat="44.10679800" lon="5.40024497"><ele>711.799988</ele><time>2011-07-05T05:59:20Z</time></trkpt>
<trkpt lat="44.10696999" lon="5.40039400"><ele>713.400024</ele><time>2011-07-05T05:59:29Z</time></trkpt>
<trkpt lat="44.10714895" lon="5.40048293"><ele>715</ele><time>2011-07-05T05:59:38Z</time></trkpt>
<trkpt lat="44.10727392" lon="5.40052400"><ele>716</ele><time>2011-07-05T05:59:44Z</time></trkpt>
<trkpt lat="44.10744198" lon="5.40055392"><ele>717</ele><time>2011-07-05T05:59:52Z</time></trkpt>
<trkpt lat="44.10758296" lon="5.40061092"><ele>718</ele><time>2011-07-05T05:59:59Z</time></trkpt>
<trkpt lat="44.10771095" lon="5.40067194"><ele>719.200012</ele><time>2011-07-05T06:00:05Z</time></trkpt>
<trkpt lat="44.10793098" lon="5.40077998"><ele>720.599976</ele><time>2011-07-05T06:00:15Z</time></trkpt>
<trkpt lat="44.10812292" lon="5.40079599"><ele>721.599976</ele><time>2011-07-05T06:00:23Z</time></trkpt>
<trkpt lat="44.10826399" lon="5.40067798"><ele>722.599976</ele><time>2011-07-05T06:00:30Z</time></trkpt>
<trkpt lat="44.10845694" lon="5.40039098"><ele>723.200012</ele><time>2011-07-05T06:00:41Z</time></trkpt>
<trkpt lat="44.10860497" lon="5.40018395"><ele>725.200012</ele><time>2011-07-05T06:00:49Z</time></trkpt>
<trkpt lat="44.10876498" lon="5.39994892"><ele>726.400024</ele><time>2011-07-05T06:00:58Z</time></trkpt>
<trkpt lat="44.10893898" lon="5.39968296"><ele>727.799988</ele><time>2011-07-05T06:01:08Z</time></trkpt>
<trkpt lat="44.10910092" lon="5.39950199"><ele>729</ele><time>2011-07-05T06:01:17Z</time></trkpt>
<trkpt lat="44.10927200" lon="5.39932899"><ele>730.599976</ele><time>2011-07-05T06:01:26Z</time></trkpt>
<trkpt lat="44.10950895" lon="5.39915599"><ele>732.599976</ele><time>2011-07-05T06:01:37Z</time></trkpt>
<trkpt lat="44.10967894" lon="5.39903797"><ele>734</ele><time>2011-07-05T06:01:45Z</time></trkpt>
<trkpt lat="44.10986393" lon="5.39891895"><ele>735.599976</ele><time>2011-07-05T06:01:54Z</time></trkpt>
<trkpt lat="44.11005998" lon="5.39879096"><ele>737</ele><time>2011-07-05T06:02:04Z</time></trkpt>
<trkpt lat="44.11022896" lon="5.39867495"><ele>738.400024</ele><time>2011-07-05T06:02:13Z</time></trkpt>
<trkpt lat="44.11035997" lon="5.39859692"><ele>739.200012</ele><time>2011-07-05T06:02:20Z</time></trkpt>
<trkpt lat="44.11059097" lon="5.39843800"><ele>741</ele><time>2011-07-05T06:02:32Z</time></trkpt>
<trkpt lat="44.11082298" lon="5.39828192"><ele>742.799988</ele><time>2011-07-05T06:02:44Z</time></trkpt>
<trkpt lat="44.11097193" lon="5.39815896"><ele>743.599976</ele><time>2011-07-05T06:02:52Z</time></trkpt>
<trkpt lat="44.11112197" lon="5.39802192"><ele>745</ele><time>2011-07-05T06:03:01Z</time></trkpt>
<trkpt lat="44.11129899" lon="5.39786300"><ele>746.400024</ele><time>2011-07-05T06:03:11Z</time></trkpt>
<trkpt lat="44.11143495" lon="5.39772696"><ele>747.599976</ele><time>2011-07-05T06:03:19Z</time></trkpt>
<trkpt lat="44.11158498" lon="5.39762193"><ele>748.799988</ele><time>2011-07-05T06:03:27Z</time></trkpt>
<trkpt lat="44.11178296" lon="5.39750995"><ele>750</ele><time>2011-07-05T06:03:38Z</time></trkpt>
<trkpt lat="44.11190995" lon="5.39745597"><ele>751</ele><time>2011-07-05T06:03:45Z</time></trkpt>
<trkpt lat="44.11208094" lon="5.39743694"><ele>752.200012</ele><time>2011-07-05T06:03:54Z</time></trkpt>
<trkpt lat="44.11227599" lon="5.39744298"><ele>753.400024</ele><time>2011-07-05T06:04:04Z</time></trkpt>
<trkpt lat="44.11239694" lon="5.39744197"><ele>753.799988</ele><time>2011-07-05T06:04:10Z</time></trkpt>
<trkpt lat="44.11255997" lon="5.39741498"><ele>755</ele><time>2011-07-05T06:04:18Z</time></trkpt>
<trkpt lat="44.11277798" lon="5.39737492"><ele>756.400024</ele><time>2011-07-05T06:04:29Z</time></trkpt>
<trkpt lat="44.11295098" lon="5.39733192"><ele>757.799988</ele><time>2011-07-05T06:04:38Z</time></trkpt>
<trkpt lat="44.11312298" lon="5.39729496"><ele>758.599976</ele><time>2011-07-05T06:04:47Z</time></trkpt>
<trkpt lat="44.11332892" lon="5.39725992"><ele>760</ele><time>2011-07-05T06:04:57Z</time></trkpt>
<trkpt lat="44.11356596" lon="5.39727098"><ele>761.400024</ele><time>2011-07-05T06:05:08Z</time></trkpt>
<trkpt lat="44.11377694" lon="5.39730493"><ele>763</ele><time>2011-07-05T06:05:18Z</time></trkpt>
<trkpt lat="44.11400895" lon="5.39724894"><ele>764.200012</ele><time>2011-07-05T06:05:29Z</time></trkpt>
<trkpt lat="44.11417692" lon="5.39718096"><ele>765.200012</ele><time>2011-07-05T06:05:37Z</time></trkpt>
<trkpt lat="44.11436392" lon="5.39707392"><ele>766.400024</ele><time>2011-07-05T06:05:45Z</time></trkpt>
<trkpt lat="44.11446693" lon="5.39688198"><ele>767.400024</ele><time>2011-07-05T06:05:52Z</time></trkpt>
<trkpt lat="44.11445998" lon="5.39672599"><ele>767.799988</ele><time>2011-07-05T06:05:57Z</time></trkpt>
<trkpt lat="44.11443399" lon="5.39666698"><ele>768.599976</ele><time>2011-07-05T06:06:00Z</time></trkpt>
<trkpt lat="44.11442595" lon="5.39663496"><ele>768.799988</ele><time>2011-07-05T06:06:03Z</time></trkpt>
<trkpt lat="44.11435797" lon="5.39650396"><ele>769.200012</ele><time>2011-07-05T06:06:23Z</time></trkpt>
<trkpt lat="44.11426493" lon="5.39622492"><ele>770.799988</ele><time>2011-07-05T06:06:33Z</time></trkpt>
<trkpt lat="44.11415596" lon="5.39595000"><ele>772</ele><time>2011-07-05T06:06:43Z</time></trkpt>
<trkpt lat="44.11406100" lon="5.39568898"><ele>773.400024</ele><time>2011-07-05T06:06:52Z</time></trkpt>
<trkpt lat="44.11395798" lon="5.39542093"><ele>774.599976</ele><time>2011-07-05T06:07:01Z</time></trkpt>
<trkpt lat="44.11386495" lon="5.39519898"><ele>775.799988</ele><time>2011-07-05T06:07:09Z</time></trkpt>
<trkpt lat="44.11375095" lon="5.39500393"><ele>777</ele><time>2011-07-05T06:07:17Z</time></trkpt>
<trkpt lat="44.11356093" lon="5.39476295"><ele>778.200012</ele><time>2011-07-05T06:07:27Z</time></trkpt>
<trkpt lat="44.11334996" lon="5.39459699"><ele>779.599976</ele><time>2011-07-05T06:07:36Z</time></trkpt>
<trkpt lat="44.11312994" lon="5.39445198"><ele>781</ele><time>2011-07-05T06:07:45Z</time></trkpt>
<trkpt lat="44.11283799" lon="5.39428392"><ele>782.799988</ele><time>2011-07-05T06:07:56Z</time></trkpt>
<trkpt lat="44.11260992" lon="5.39414797"><ele>784.200012</ele><time>2011-07-05T06:08:05Z</time></trkpt>
<trkpt lat="44.11240499" lon="5.39401998"><ele>785.400024</ele><time>2011-07-05T06:08:14Z</time></trkpt>
<trkpt lat="44.11217599" lon="5.39389693"><ele>787</ele><time>2011-07-05T06:08:24Z</time></trkpt>
<trkpt lat="44.11198396" lon="5.39381797"><ele>788.200012</ele><time>2011-07-05T06:08:32Z</time></trkpt>
<trkpt lat="44.11185094" lon="5.39368797"><ele>788.799988</ele><time>2011-07-05T06:08:38Z</time></trkpt>
<trkpt lat="44.11181398" lon="5.39349594"><ele>789.400024</ele><time>2011-07-05T06:08:43Z</time></trkpt>
<trkpt lat="44.11190199" lon="5.39325999"><ele>790.799988</ele><time>2011-07-05T06:08:50Z</time></trkpt>
<trkpt lat="44.11206099" lon="5.39300392"><ele>792.599976</ele><time>2011-07-05T06:09:00Z</time></trkpt>
<trkpt lat="44.11214992" lon="5.39272900"><ele>793.799988</ele><time>2011-07-05T06:09:09Z</time></trkpt>
<trkpt lat="44.11208295" lon="5.39251593"><ele>795</ele><time>2011-07-05T06:09:16Z</time></trkpt>
<trkpt lat="44.11193895" lon="5.39246094"><ele>796</ele><time>2011-07-05T06:09:22Z</time></trkpt>
<trkpt lat="44.11167894" lon="5.39236698"><ele>797.799988</ele><time>2011-07-05T06:09:33Z</time></trkpt>
<trkpt lat="44.11150594" lon="5.39229800"><ele>799</ele><time>2011-07-05T06:09:41Z</time></trkpt>
<trkpt lat="44.11136194" lon="5.39222793"><ele>800</ele><time>2011-07-05T06:09:48Z</time></trkpt>
<trkpt lat="44.11117595" lon="5.39211695"><ele>801</ele><time>2011-07-05T06:09:57Z</time></trkpt>
<trkpt lat="44.11093497" lon="5.39196700"><ele>802.799988</ele><time>2011-07-05T06:10:08Z</time></trkpt>
<trkpt lat="44.11071595" lon="5.39181797"><ele>804</ele><time>2011-07-05T06:10:18Z</time></trkpt>
<trkpt lat="44.11052492" lon="5.39167992"><ele>805.599976</ele><time>2011-07-05T06:10:27Z</time></trkpt>
<trkpt lat="44.11029794" lon="5.39147699"><ele>807.599976</ele><time>2011-07-05T06:10:38Z</time></trkpt>
<trkpt lat="44.11002997" lon="5.39122897"><ele>809.599976</ele><time>2011-07-05T06:10:51Z</time></trkpt>
<trkpt lat="44.10984096" lon="5.39102294"><ele>811</ele><time>2011-07-05T06:11:01Z</time></trkpt>
<trkpt lat="44.10976192" lon="5.39086193"><ele>811.200012</ele><time>2011-07-05T06:11:07Z</time></trkpt>
<trkpt lat="44.10973694" lon="5.39060796"><ele>812.400024</ele><time>2011-07-05T06:11:15Z</time></trkpt>
<trkpt lat="44.10975899" lon="5.39032599"><ele>813.799988</ele><time>2011-07-05T06:11:23Z</time></trkpt>
<trkpt lat="44.10980492" lon="5.39001100"><ele>814.799988</ele><time>2011-07-05T06:11:32Z</time></trkpt>
<trkpt lat="44.10988195" lon="5.38975694"><ele>815.599976</ele><time>2011-07-05T06:11:40Z</time></trkpt>
<trkpt lat="44.11002595" lon="5.38949098"><ele>816.799988</ele><time>2011-07-05T06:11:50Z</time></trkpt>
<trkpt lat="44.11015092" lon="5.38930792"><ele>817.799988</ele><time>2011-07-05T06:11:58Z</time></trkpt>
<trkpt lat="44.11026995" lon="5.38916593"><ele>818.599976</ele><time>2011-07-05T06:12:05Z</time></trkpt>
<trkpt lat="44.11037900" lon="5.38905596"><ele>818.799988</ele><time>2011-07-05T06:12:11Z</time></trkpt>
<trkpt lat="44.11066297" lon="5.38886997"><ele>820.200012</ele><time>2011-07-05T06:12:24Z</time></trkpt>
<trkpt lat="44.11084796" lon="5.38877198"><ele>821.200012</ele><time>2011-07-05T06:12:33Z</time></trkpt>
<trkpt lat="44.11094394" lon="5.38874592"><ele>821.599976</ele><time>2011-07-05T06:12:38Z</time></trkpt>
<trkpt lat="44.11106396" lon="5.38872999"><ele>822</ele><time>2011-07-05T06:12:44Z</time></trkpt>
<trkpt lat="44.11125599" lon="5.38870392"><ele>822.599976</ele><time>2011-07-05T06:12:53Z</time></trkpt>
<trkpt lat="44.11131894" lon="5.38871599"><ele>823</ele><time>2011-07-05T06:12:56Z</time></trkpt>
<trkpt lat="44.11139094" lon="5.38869596"><ele>823.400024</ele><time>2011-07-05T06:13:00Z</time></trkpt>
<trkpt lat="44.11154198" lon="5.38873896"><ele>824.200012</ele><time>2011-07-05T06:13:07Z</time></trkpt>
<trkpt lat="44.11176796" lon="5.38874692"><ele>824.799988</ele><time>2011-07-05T06:13:17Z</time></trkpt>
<trkpt lat="44.11197600" lon="5.38875296"><ele>825.799988</ele><time>2011-07-05T06:13:26Z</time></trkpt>
<trkpt lat="44.11218798" lon="5.38872396"><ele>826.799988</ele><time>2011-07-05T06:13:35Z</time></trkpt>
<trkpt lat="44.11242493" lon="5.38871599"><ele>827.799988</ele><time>2011-07-05T06:13:45Z</time></trkpt>
<trkpt lat="44.11265192" lon="5.38879495"><ele>828.799988</ele><time>2011-07-05T06:13:55Z</time></trkpt>
<trkpt lat="44.11290597" lon="5.38900198"><ele>829.599976</ele><time>2011-07-05T06:14:07Z</time></trkpt>
<trkpt lat="44.11305894" lon="5.38916996"><ele>830.400024</ele><time>2011-07-05T06:14:15Z</time></trkpt>
<trkpt lat="44.11321593" lon="5.38931396"><ele>831</ele><time>2011-07-05T06:14:23Z</time></trkpt>
<trkpt lat="44.11341199" lon="5.38939493"><ele>832</ele><time>2011-07-05T06:14:32Z</time></trkpt>
<trkpt lat="44.11358994" lon="5.38939694"><ele>833</ele><time>2011-07-05T06:14:42Z</time></trkpt>
<trkpt lat="44.11359496" lon="5.38939593"><ele>832.799988</ele><time>2011-07-05T06:14:44Z</time></trkpt>
<trkpt lat="44.11372296" lon="5.38928496"><ele>834</ele><time>2011-07-05T06:16:07Z</time></trkpt>
<trkpt lat="44.11393795" lon="5.38912595"><ele>835.200012</ele><time>2011-07-05T06:16:16Z</time></trkpt>
<trkpt lat="44.11409696" lon="5.38902797"><ele>835.799988</ele><time>2011-07-05T06:16:22Z</time></trkpt>
<trkpt lat="44.11439996" lon="5.38885195"><ele>836.799988</ele><time>2011-07-05T06:16:33Z</time></trkpt>
<trkpt lat="44.11460297" lon="5.38887299"><ele>837.400024</ele><time>2011-07-05T06:16:40Z</time></trkpt>
<trkpt lat="44.11488100" lon="5.38899696"><ele>838.200012</ele><time>2011-07-05T06:16:50Z</time></trkpt>
<trkpt lat="44.11508694" lon="5.38899394"><ele>839.200012</ele><time>2011-07-05T06:16:57Z</time></trkpt>
<trkpt lat="44.11529498" lon="5.38881599"><ele>839.599976</ele><time>2011-07-05T06:17:05Z</time></trkpt>
<trkpt lat="44.11546597" lon="5.38850393"><ele>840.400024</ele><time>2011-07-05T06:17:14Z</time></trkpt>
<trkpt lat="44.11558097" lon="5.38825097"><ele>841.599976</ele><time>2011-07-05T06:17:21Z</time></trkpt>
<trkpt lat="44.11571399" lon="5.38797495"><ele>842</ele><time>2011-07-05T06:17:29Z</time></trkpt>
<trkpt lat="44.11582598" lon="5.38778996"><ele>842.200012</ele><time>2011-07-05T06:17:35Z</time></trkpt>
<trkpt lat="44.11602295" lon="5.38754194"><ele>843.799988</ele><time>2011-07-05T06:17:45Z</time></trkpt>
<trkpt lat="44.11616896" lon="5.38742694"><ele>844.799988</ele><time>2011-07-05T06:17:52Z</time></trkpt>
<trkpt lat="44.11636099" lon="5.38730792"><ele>846.200012</ele><time>2011-07-05T06:18:01Z</time></trkpt>
<trkpt lat="44.11657892" lon="5.38718093"><ele>847.599976</ele><time>2011-07-05T06:18:11Z</time></trkpt>
<trkpt lat="44.11674798" lon="5.38708596"><ele>848.400024</ele><time>2011-07-05T06:18:19Z</time></trkpt>
<trkpt lat="44.11687598" lon="5.38699997"><ele>849.599976</ele><time>2011-07-05T06:18:26Z</time></trkpt>
<trkpt lat="44.11708695" lon="5.38687600"><ele>851.400024</ele><time>2011-07-05T06:18:37Z</time></trkpt>
<trkpt lat="44.11723095" lon="5.38676796"><ele>852.400024</ele><time>2011-07-05T06:18:45Z</time></trkpt>
<trkpt lat="44.11733598" lon="5.38667693"><ele>853.200012</ele><time>2011-07-05T06:18:51Z</time></trkpt>
<trkpt lat="44.11745994" lon="5.38656293"><ele>854.200012</ele><time>2011-07-05T06:18:58Z</time></trkpt>
<trkpt lat="44.11761392" lon="5.38640896"><ele>855.400024</ele><time>2011-07-05T06:19:07Z</time></trkpt>
<trkpt lat="44.11775792" lon="5.38623294"><ele>856.599976</ele><time>2011-07-05T06:19:16Z</time></trkpt>
<trkpt lat="44.11777494" lon="5.38604896"><ele>857.200012</ele><time>2011-07-05T06:19:22Z</time></trkpt>
<trkpt lat="44.11770193" lon="5.38589599"><ele>858</ele><time>2011-07-05T06:19:28Z</time></trkpt>
<trkpt lat="44.11752499" lon="5.38564696"><ele>859.599976</ele><time>2011-07-05T06:19:39Z</time></trkpt>
<trkpt lat="44.11740093" lon="5.38546097"><ele>860.799988</ele><time>2011-07-05T06:19:47Z</time></trkpt>
<trkpt lat="44.11732097" lon="5.38527992"><ele>861.400024</ele><time>2011-07-05T06:19:54Z</time></trkpt>
<trkpt lat="44.11724797" lon="5.38502997"><ele>863</ele><time>2011-07-05T06:20:03Z</time></trkpt>
<trkpt lat="44.11718896" lon="5.38474096"><ele>864.200012</ele><time>2011-07-05T06:20:13Z</time></trkpt>
<trkpt lat="44.11719600" lon="5.38444399"><ele>865.799988</ele><time>2011-07-05T06:20:23Z</time></trkpt>
<trkpt lat="44.11725794" lon="5.38418893"><ele>866.799988</ele><time>2011-07-05T06:20:32Z</time></trkpt>
<trkpt lat="44.11739993" lon="5.38387293"><ele>868.200012</ele><time>2011-07-05T06:20:44Z</time></trkpt>
<trkpt lat="44.11756195" lon="5.38368199"><ele>869.200012</ele><time>2011-07-05T06:20:54Z</time></trkpt>
<trkpt lat="44.11769900" lon="5.38353799"><ele>870.200012</ele><time>2011-07-05T06:21:02Z</time></trkpt>
<trkpt lat="44.11785197" lon="5.38339600"><ele>871.400024</ele><time>2011-07-05T06:21:10Z</time></trkpt>
<trkpt lat="44.11799697" lon="5.38323792"><ele>872.400024</ele><time>2011-07-05T06:21:18Z</time></trkpt>
<trkpt lat="44.11819596" lon="5.38303499"><ele>873.799988</ele><time>2011-07-05T06:21:29Z</time></trkpt>
<trkpt lat="44.11836100" lon="5.38287297"><ele>875</ele><time>2011-07-05T06:21:38Z</time></trkpt>
<trkpt lat="44.11856392" lon="5.38266795"><ele>876.799988</ele><time>2011-07-05T06:21:49Z</time></trkpt>
<trkpt lat="44.11868395" lon="5.38254993"><ele>877.599976</ele><time>2011-07-05T06:21:56Z</time></trkpt>
<trkpt lat="44.11881697" lon="5.38238992"><ele>878.799988</ele><time>2011-07-05T06:22:05Z</time></trkpt>
<trkpt lat="44.11893692" lon="5.38224399"><ele>880</ele><time>2011-07-05T06:22:13Z</time></trkpt>
<trkpt lat="44.11903499" lon="5.38200695"><ele>880.799988</ele><time>2011-07-05T06:22:22Z</time></trkpt>
<trkpt lat="44.11906499" lon="5.38171199"><ele>882</ele><time>2011-07-05T06:22:32Z</time></trkpt>
<trkpt lat="44.11912199" lon="5.38145592"><ele>883</ele><time>2011-07-05T06:22:41Z</time></trkpt>
<trkpt lat="44.11923196" lon="5.38118393"><ele>884.400024</ele><time>2011-07-05T06:22:50Z</time></trkpt>
<trkpt lat="44.11940698" lon="5.38090800"><ele>886</ele><time>2011-07-05T06:23:00Z</time></trkpt>
<trkpt lat="44.11955793" lon="5.38067096"><ele>887.400024</ele><time>2011-07-05T06:23:09Z</time></trkpt>
<trkpt lat="44.11968299" lon="5.38046292"><ele>888.599976</ele><time>2011-07-05T06:23:17Z</time></trkpt>
<trkpt lat="44.11982800" lon="5.38022496"><ele>889.799988</ele><time>2011-07-05T06:23:26Z</time></trkpt>
<trkpt lat="44.11995197" lon="5.38001197"><ele>891.200012</ele><time>2011-07-05T06:23:34Z</time></trkpt>
<trkpt lat="44.12007594" lon="5.37983193"><ele>892.200012</ele><time>2011-07-05T06:23:42Z</time></trkpt>
<trkpt lat="44.12017995" lon="5.37968793"><ele>893.200012</ele><time>2011-07-05T06:23:49Z</time></trkpt>
<trkpt lat="44.12030694" lon="5.37953697"><ele>894.200012</ele><time>2011-07-05T06:23:57Z</time></trkpt>
<trkpt lat="44.12041398" lon="5.37940496"><ele>895.200012</ele><time>2011-07-05T06:24:04Z</time></trkpt>
<trkpt lat="44.12055597" lon="5.37922692"><ele>896.400024</ele><time>2011-07-05T06:24:13Z</time></trkpt>
<trkpt lat="44.12075395" lon="5.37899994"><ele>898</ele><time>2011-07-05T06:24:25Z</time></trkpt>
<trkpt lat="44.12088797" lon="5.37885292"><ele>899.200012</ele><time>2011-07-05T06:24:33Z</time></trkpt>
<trkpt lat="44.12107497" lon="5.37861597"><ele>900.799988</ele><time>2011-07-05T06:24:45Z</time></trkpt>
<trkpt lat="44.12118796" lon="5.37839695"><ele>902</ele><time>2011-07-05T06:24:54Z</time></trkpt>
<trkpt lat="44.12122895" lon="5.37820299"><ele>902.799988</ele><time>2011-07-05T06:25:00Z</time></trkpt>
<trkpt lat="44.12128293" lon="5.37805094"><ele>903.599976</ele><time>2011-07-05T06:25:05Z</time></trkpt>
<trkpt lat="44.12134395" lon="5.37778700"><ele>905</ele><time>2011-07-05T06:25:13Z</time></trkpt>
<trkpt lat="44.12142794" lon="5.37741199"><ele>906.599976</ele><time>2011-07-05T06:25:24Z</time></trkpt>
<trkpt lat="44.12150094" lon="5.37711100"><ele>907.799988</ele><time>2011-07-05T06:25:33Z</time></trkpt>
<trkpt lat="44.12155995" lon="5.37687195"><ele>909</ele><time>2011-07-05T06:25:41Z</time></trkpt>
<trkpt lat="44.12163497" lon="5.37659995"><ele>910.400024</ele><time>2011-07-05T06:25:50Z</time></trkpt>
<trkpt lat="44.12169792" lon="5.37642695"><ele>911.200012</ele><time>2011-07-05T06:25:56Z</time></trkpt>
<trkpt lat="44.12179599" lon="5.37618094"><ele>912.200012</ele><time>2011-07-05T06:26:05Z</time></trkpt>
<trkpt lat="44.12193093" lon="5.37592093"><ele>913.599976</ele><time>2011-07-05T06:26:16Z</time></trkpt>
<trkpt lat="44.12201794" lon="5.37575799"><ele>914.400024</ele><time>2011-07-05T06:26:23Z</time></trkpt>
<trkpt lat="44.12213193" lon="5.37556898"><ele>915.400024</ele><time>2011-07-05T06:26:31Z</time></trkpt>
<trkpt lat="44.12225800" lon="5.37536496"><ele>916.599976</ele><time>2011-07-05T06:26:40Z</time></trkpt>
<trkpt lat="44.12240292" lon="5.37517897"><ele>917.799988</ele><time>2011-07-05T06:26:49Z</time></trkpt>
<trkpt lat="44.12252697" lon="5.37499893"><ele>918.799988</ele><time>2011-07-05T06:26:57Z</time></trkpt>
<trkpt lat="44.12265798" lon="5.37481897"><ele>920</ele><time>2011-07-05T06:27:05Z</time></trkpt>
<trkpt lat="44.12286895" lon="5.37455393"><ele>921.400024</ele><time>2011-07-05T06:27:17Z</time></trkpt>
<trkpt lat="44.12303098" lon="5.37436995"><ele>922.799988</ele><time>2011-07-05T06:27:26Z</time></trkpt>
<trkpt lat="44.12323197" lon="5.37414397"><ele>924.400024</ele><time>2011-07-05T06:27:37Z</time></trkpt>
<trkpt lat="44.12340196" lon="5.37395295"><ele>925.599976</ele><time>2011-07-05T06:27:46Z</time></trkpt>
<trkpt lat="44.12355996" lon="5.37376796"><ele>926.799988</ele><time>2011-07-05T06:27:55Z</time></trkpt>
<trkpt lat="44.12373799" lon="5.37360393"><ele>928.400024</ele><time>2011-07-05T06:28:05Z</time></trkpt>
<trkpt lat="44.12390596" lon="5.37346194"><ele>929.799988</ele><time>2011-07-05T06:28:14Z</time></trkpt>
<trkpt lat="44.12412498" lon="5.37330494"><ele>931</ele><time>2011-07-05T06:28:25Z</time></trkpt>
<trkpt lat="44.12431994" lon="5.37320696"><ele>932.200012</ele><time>2011-07-05T06:28:35Z</time></trkpt>
<trkpt lat="44.12450099" lon="5.37312892"><ele>933.400024</ele><time>2011-07-05T06:28:44Z</time></trkpt>
<trkpt lat="44.12473292" lon="5.37305097"><ele>934.799988</ele><time>2011-07-05T06:28:55Z</time></trkpt>
<trkpt lat="44.12493694" lon="5.37301795"><ele>936</ele><time>2011-07-05T06:29:04Z</time></trkpt>
<trkpt lat="44.12513793" lon="5.37300495"><ele>937.200012</ele><time>2011-07-05T06:29:13Z</time></trkpt>
<trkpt lat="44.12524397" lon="5.37300294"><ele>937.799988</ele><time>2011-07-05T06:29:19Z</time></trkpt>
<trkpt lat="44.12544295" lon="5.37299498"><ele>939.200012</ele><time>2011-07-05T06:29:28Z</time></trkpt>
<trkpt lat="44.12564294" lon="5.37299599"><ele>940.200012</ele><time>2011-07-05T06:29:37Z</time></trkpt>
<trkpt lat="44.12587294" lon="5.37298593"><ele>942</ele><time>2011-07-05T06:29:47Z</time></trkpt>
<trkpt lat="44.12605399" lon="5.37298894"><ele>943</ele><time>2011-07-05T06:29:55Z</time></trkpt>
<trkpt lat="44.12625692" lon="5.37298693"><ele>944.599976</ele><time>2011-07-05T06:30:04Z</time></trkpt>
<trkpt lat="44.12655397" lon="5.37299993"><ele>946.400024</ele><time>2011-07-05T06:30:17Z</time></trkpt>
<trkpt lat="44.12674894" lon="5.37303898"><ele>947.799988</ele><time>2011-07-05T06:30:26Z</time></trkpt>
<trkpt lat="44.12691993" lon="5.37309196"><ele>948.599976</ele><time>2011-07-05T06:30:34Z</time></trkpt>
<trkpt lat="44.12710894" lon="5.37314896"><ele>949.599976</ele><time>2011-07-05T06:30:43Z</time></trkpt>
<trkpt lat="44.12724699" lon="5.37320595"><ele>950.400024</ele><time>2011-07-05T06:30:50Z</time></trkpt>
<trkpt lat="44.12738797" lon="5.37324593"><ele>951</ele><time>2011-07-05T06:30:57Z</time></trkpt>
<trkpt lat="44.12757196" lon="5.37331793"><ele>952</ele><time>2011-07-05T06:31:06Z</time></trkpt>
<trkpt lat="44.12777999" lon="5.37339195"><ele>953.599976</ele><time>2011-07-05T06:31:16Z</time></trkpt>
<trkpt lat="44.12795098" lon="5.37344098"><ele>954.400024</ele><time>2011-07-05T06:31:24Z</time></trkpt>
<trkpt lat="44.12808694" lon="5.37348096"><ele>955.599976</ele><time>2011-07-05T06:31:31Z</time></trkpt>
<trkpt lat="44.12824997" lon="5.37350795"><ele>956.400024</ele><time>2011-07-05T06:31:39Z</time></trkpt>
<trkpt lat="44.12845599" lon="5.37351893"><ele>957.799988</ele><time>2011-07-05T06:31:48Z</time></trkpt>
<trkpt lat="44.12866797" lon="5.37351298"><ele>959</ele><time>2011-07-05T06:31:57Z</time></trkpt>
<trkpt lat="44.12895598" lon="5.37350594"><ele>961</ele><time>2011-07-05T06:32:09Z</time></trkpt>
<trkpt lat="44.12919293" lon="5.37349395"><ele>962.200012</ele><time>2011-07-05T06:32:19Z</time></trkpt>
<trkpt lat="44.12937398" lon="5.37346495"><ele>963.200012</ele><time>2011-07-05T06:32:27Z</time></trkpt>
<trkpt lat="44.12954899" lon="5.37339597"><ele>964.400024</ele><time>2011-07-05T06:32:35Z</time></trkpt>
<trkpt lat="44.12979098" lon="5.37328600"><ele>966</ele><time>2011-07-05T06:32:46Z</time></trkpt>
<trkpt lat="44.12999198" lon="5.37318994"><ele>967.400024</ele><time>2011-07-05T06:32:55Z</time></trkpt>
<trkpt lat="44.13020899" lon="5.37311694"><ele>968.599976</ele><time>2011-07-05T06:33:05Z</time></trkpt>
<trkpt lat="44.13040294" lon="5.37310193"><ele>969.799988</ele><time>2011-07-05T06:33:14Z</time></trkpt>
<trkpt lat="44.13057494" lon="5.37314200"><ele>971.200012</ele><time>2011-07-05T06:33:22Z</time></trkpt>
<trkpt lat="44.13079597" lon="5.37320092"><ele>972.400024</ele><time>2011-07-05T06:33:33Z</time></trkpt>
<trkpt lat="44.13103494" lon="5.37327292"><ele>974</ele><time>2011-07-05T06:33:44Z</time></trkpt>
<trkpt lat="44.13125094" lon="5.37335699"><ele>975.400024</ele><time>2011-07-05T06:33:54Z</time></trkpt>
<trkpt lat="44.13148496" lon="5.37348297"><ele>976.200012</ele><time>2011-07-05T06:34:05Z</time></trkpt>
<trkpt lat="44.13168294" lon="5.37358892"><ele>977.599976</ele><time>2011-07-05T06:34:14Z</time></trkpt>
<trkpt lat="44.13190599" lon="5.37370300"><ele>979.200012</ele><time>2011-07-05T06:34:24Z</time></trkpt>
<trkpt lat="44.13206600" lon="5.37378992"><ele>980</ele><time>2011-07-05T06:34:32Z</time></trkpt>
<trkpt lat="44.13221997" lon="5.37387298"><ele>981.200012</ele><time>2011-07-05T06:34:40Z</time></trkpt>
<trkpt lat="44.13236397" lon="5.37395898"><ele>981.799988</ele><time>2011-07-05T06:34:48Z</time></trkpt>
<trkpt lat="44.13249993" lon="5.37403299"><ele>983</ele><time>2011-07-05T06:34:55Z</time></trkpt>
<trkpt lat="44.13270595" lon="5.37412696"><ele>984.400024</ele><time>2011-07-05T06:35:05Z</time></trkpt>
<trkpt lat="44.13293093" lon="5.37422092"><ele>986.200012</ele><time>2011-07-05T06:35:16Z</time></trkpt>
<trkpt lat="44.13305799" lon="5.37425797"><ele>986.799988</ele><time>2011-07-05T06:35:22Z</time></trkpt>
<trkpt lat="44.13325497" lon="5.37431999"><ele>988</ele><time>2011-07-05T06:35:31Z</time></trkpt>
<trkpt lat="44.13345194" lon="5.37438998"><ele>989.200012</ele><time>2011-07-05T06:35:40Z</time></trkpt>
<trkpt lat="44.13368999" lon="5.37446994"><ele>990.599976</ele><time>2011-07-05T06:35:51Z</time></trkpt>
<trkpt lat="44.13389493" lon="5.37451898"><ele>992.400024</ele><time>2011-07-05T06:36:00Z</time></trkpt>
<trkpt lat="44.13410598" lon="5.37449794"><ele>993.599976</ele><time>2011-07-05T06:36:09Z</time></trkpt>
<trkpt lat="44.13435493" lon="5.37443600"><ele>994.599976</ele><time>2011-07-05T06:36:20Z</time></trkpt>
<trkpt lat="44.13452592" lon="5.37438596"><ele>995.799988</ele><time>2011-07-05T06:36:28Z</time></trkpt>
<trkpt lat="44.13475793" lon="5.37432100"><ele>997.200012</ele><time>2011-07-05T06:36:39Z</time></trkpt>
<trkpt lat="44.13498692" lon="5.37425495"><ele>998.799988</ele><time>2011-07-05T06:36:50Z</time></trkpt>
<trkpt lat="44.13515297" lon="5.37421396"><ele>1000</ele><time>2011-07-05T06:36:58Z</time></trkpt>
<trkpt lat="44.13533100" lon="5.37415495"><ele>1000.799988</ele><time>2011-07-05T06:37:07Z</time></trkpt>
<trkpt lat="44.13544298" lon="5.37403299"><ele>1001.799988</ele><time>2011-07-05T06:37:15Z</time></trkpt>
<trkpt lat="44.13547299" lon="5.37403895"><ele>1001.799988</ele><time>2011-07-05T06:37:19Z</time></trkpt>
<trkpt lat="44.13552697" lon="5.37407197"><ele>1003</ele><time>2011-07-05T06:39:41Z</time></trkpt>
<trkpt lat="44.13566393" lon="5.37408295"><ele>1003.799988</ele><time>2011-07-05T06:39:47Z</time></trkpt>
<trkpt lat="44.13588194" lon="5.37404498"><ele>1005.200012</ele><time>2011-07-05T06:39:57Z</time></trkpt>
<trkpt lat="44.13608998" lon="5.37400500"><ele>1007.200012</ele><time>2011-07-05T06:40:07Z</time></trkpt>
<trkpt lat="44.13628000" lon="5.37397197"><ele>1008.799988</ele><time>2011-07-05T06:40:16Z</time></trkpt>
<trkpt lat="44.13645292" lon="5.37387692"><ele>1010</ele><time>2011-07-05T06:40:25Z</time></trkpt>
<trkpt lat="44.13651897" lon="5.37368800"><ele>1011.400024</ele><time>2011-07-05T06:40:32Z</time></trkpt>
<trkpt lat="44.13647597" lon="5.37352296"><ele>1012.200012</ele><time>2011-07-05T06:40:38Z</time></trkpt>
<trkpt lat="44.13633892" lon="5.37339295"><ele>1013.799988</ele><time>2011-07-05T06:40:46Z</time></trkpt>
<trkpt lat="44.13620599" lon="5.37335599"><ele>1015</ele><time>2011-07-05T06:40:52Z</time></trkpt>
<trkpt lat="44.13611295" lon="5.37329799"><ele>1015.599976</ele><time>2011-07-05T06:40:57Z</time></trkpt>
<trkpt lat="44.13594397" lon="5.37318399"><ele>1017.200012</ele><time>2011-07-05T06:41:06Z</time></trkpt>
<trkpt lat="44.13578396" lon="5.37305198"><ele>1018.599976</ele><time>2011-07-05T06:41:15Z</time></trkpt>
<trkpt lat="44.13566099" lon="5.37293798"><ele>1020</ele><time>2011-07-05T06:41:23Z</time></trkpt>
<trkpt lat="44.13553594" lon="5.37276892"><ele>1021.200012</ele><time>2011-07-05T06:41:32Z</time></trkpt>
<trkpt lat="44.13540996" lon="5.37261092"><ele>1022.599976</ele><time>2011-07-05T06:41:41Z</time></trkpt>
<trkpt lat="44.13521793" lon="5.37236994"><ele>1024.199951</ele><time>2011-07-05T06:41:53Z</time></trkpt>
<trkpt lat="44.13503394" lon="5.37213793"><ele>1025</ele><time>2011-07-05T06:42:03Z</time></trkpt>
<trkpt lat="44.13486094" lon="5.37192394"><ele>1026</ele><time>2011-07-05T06:42:12Z</time></trkpt>
<trkpt lat="44.13468098" lon="5.37169998"><ele>1026.599976</ele><time>2011-07-05T06:42:21Z</time></trkpt>
<trkpt lat="44.13449993" lon="5.37146193"><ele>1027.599976</ele><time>2011-07-05T06:42:31Z</time></trkpt>
<trkpt lat="44.13437898" lon="5.37121894"><ele>1028.400024</ele><time>2011-07-05T06:42:39Z</time></trkpt>
<trkpt lat="44.13437094" lon="5.37098693"><ele>1029.599976</ele><time>2011-07-05T06:42:45Z</time></trkpt>
<trkpt lat="44.13444998" lon="5.37078199"><ele>1030.400024</ele><time>2011-07-05T06:42:51Z</time></trkpt>
<trkpt lat="44.13461099" lon="5.37062500"><ele>1031.199951</ele><time>2011-07-05T06:42:58Z</time></trkpt>
<trkpt lat="44.13484099" lon="5.37046893"><ele>1032.800049</ele><time>2011-07-05T06:43:07Z</time></trkpt>
<trkpt lat="44.13508600" lon="5.37028796"><ele>1033.800049</ele><time>2011-07-05T06:43:17Z</time></trkpt>
<trkpt lat="44.13527895" lon="5.37015092"><ele>1034.599976</ele><time>2011-07-05T06:43:26Z</time></trkpt>
<trkpt lat="44.13547299" lon="5.37000993"><ele>1037</ele><time>2011-07-05T06:43:36Z</time></trkpt>
<trkpt lat="44.13569192" lon="5.36984498"><ele>1038.400024</ele><time>2011-07-05T06:43:48Z</time></trkpt>
<trkpt lat="44.13586493" lon="5.36972797"><ele>1039.800049</ele><time>2011-07-05T06:43:57Z</time></trkpt>
<trkpt lat="44.13606098" lon="5.36962093"><ele>1041.199951</ele><time>2011-07-05T06:44:07Z</time></trkpt>
<trkpt lat="44.13623398" lon="5.36954599"><ele>1042.400024</ele><time>2011-07-05T06:44:16Z</time></trkpt>
<trkpt lat="44.13638896" lon="5.36950492"><ele>1043.599976</ele><time>2011-07-05T06:44:24Z</time></trkpt>
<trkpt lat="44.13655895" lon="5.36945698"><ele>1044.599976</ele><time>2011-07-05T06:44:32Z</time></trkpt>
<trkpt lat="44.13671192" lon="5.36941398"><ele>1045.599976</ele><time>2011-07-05T06:44:39Z</time></trkpt>
<trkpt lat="44.13689397" lon="5.36936000"><ele>1047</ele><time>2011-07-05T06:44:47Z</time></trkpt>
<trkpt lat="44.13710000" lon="5.36928993"><ele>1048.199951</ele><time>2011-07-05T06:44:56Z</time></trkpt>
<trkpt lat="44.13729697" lon="5.36920896"><ele>1049.800049</ele><time>2011-07-05T06:45:05Z</time></trkpt>
<trkpt lat="44.13746394" lon="5.36912095"><ele>1051</ele><time>2011-07-05T06:45:13Z</time></trkpt>
<trkpt lat="44.13762496" lon="5.36900695"><ele>1052.199951</ele><time>2011-07-05T06:45:21Z</time></trkpt>
<trkpt lat="44.13776100" lon="5.36887100"><ele>1053.400024</ele><time>2011-07-05T06:45:28Z</time></trkpt>
<trkpt lat="44.13794992" lon="5.36862600"><ele>1055.199951</ele><time>2011-07-05T06:45:39Z</time></trkpt>
<trkpt lat="44.13811496" lon="5.36841997"><ele>1056.599976</ele><time>2011-07-05T06:45:49Z</time></trkpt>
<trkpt lat="44.13825796" lon="5.36826499"><ele>1057.599976</ele><time>2011-07-05T06:45:57Z</time></trkpt>
<trkpt lat="44.13840699" lon="5.36813892"><ele>1059.400024</ele><time>2011-07-05T06:46:06Z</time></trkpt>
<trkpt lat="44.13859894" lon="5.36802493"><ele>1060.599976</ele><time>2011-07-05T06:46:17Z</time></trkpt>
<trkpt lat="44.13878099" lon="5.36792393"><ele>1062</ele><time>2011-07-05T06:46:27Z</time></trkpt>
<trkpt lat="44.13896992" lon="5.36784296"><ele>1063.599976</ele><time>2011-07-05T06:46:37Z</time></trkpt>
<trkpt lat="44.13914694" lon="5.36781798"><ele>1064.400024</ele><time>2011-07-05T06:46:46Z</time></trkpt>
<trkpt lat="44.13932699" lon="5.36781396"><ele>1065.599976</ele><time>2011-07-05T06:46:55Z</time></trkpt>
<trkpt lat="44.13948792" lon="5.36783692"><ele>1066.599976</ele><time>2011-07-05T06:47:03Z</time></trkpt>
<trkpt lat="44.13964399" lon="5.36785293"><ele>1067.800049</ele><time>2011-07-05T06:47:10Z</time></trkpt>
<trkpt lat="44.13990593" lon="5.36788797"><ele>1069.599976</ele><time>2011-07-05T06:47:21Z</time></trkpt>
<trkpt lat="44.14012193" lon="5.36793994"><ele>1071.400024</ele><time>2011-07-05T06:47:31Z</time></trkpt>
<trkpt lat="44.14034296" lon="5.36800599"><ele>1072.800049</ele><time>2011-07-05T06:47:42Z</time></trkpt>
<trkpt lat="44.14048797" lon="5.36809693"><ele>1073.800049</ele><time>2011-07-05T06:47:50Z</time></trkpt>
<trkpt lat="44.14064295" lon="5.36819592"><ele>1075.199951</ele><time>2011-07-05T06:47:59Z</time></trkpt>
<trkpt lat="44.14079793" lon="5.36829793"><ele>1076.199951</ele><time>2011-07-05T06:48:08Z</time></trkpt>
<trkpt lat="44.14092693" lon="5.36840497"><ele>1077.599976</ele><time>2011-07-05T06:48:16Z</time></trkpt>
<trkpt lat="44.14106095" lon="5.36852994"><ele>1079.199951</ele><time>2011-07-05T06:48:24Z</time></trkpt>
<trkpt lat="44.14121300" lon="5.36869397"><ele>1080.199951</ele><time>2011-07-05T06:48:34Z</time></trkpt>
<trkpt lat="44.14134099" lon="5.36885398"><ele>1082</ele><time>2011-07-05T06:48:43Z</time></trkpt>
<trkpt lat="44.14142892" lon="5.36899094"><ele>1082.400024</ele><time>2011-07-05T06:48:51Z</time></trkpt>
<trkpt lat="44.14152296" lon="5.36915699"><ele>1083</ele><time>2011-07-05T06:48:59Z</time></trkpt>
<trkpt lat="44.14161793" lon="5.36936092"><ele>1083.800049</ele><time>2011-07-05T06:49:08Z</time></trkpt>
<trkpt lat="44.14170594" lon="5.36953996"><ele>1084.400024</ele><time>2011-07-05T06:49:16Z</time></trkpt>
<trkpt lat="44.14176897" lon="5.36970592"><ele>1085.400024</ele><time>2011-07-05T06:49:23Z</time></trkpt>
<trkpt lat="44.14183896" lon="5.37000096"><ele>1087.199951</ele><time>2011-07-05T06:49:34Z</time></trkpt>
<trkpt lat="44.14189294" lon="5.37029492"><ele>1088.800049</ele><time>2011-07-05T06:49:44Z</time></trkpt>
<trkpt lat="44.14196796" lon="5.37054394"><ele>1090</ele><time>2011-07-05T06:49:53Z</time></trkpt>
<trkpt lat="44.14201800" lon="5.37062399"><ele>1091</ele><time>2011-07-05T06:50:00Z</time></trkpt>
<trkpt lat="44.14215496" lon="5.37066598"><ele>1091.199951</ele><time>2011-07-05T06:50:09Z</time></trkpt>
<trkpt lat="44.14235093" lon="5.37060496"><ele>1091.800049</ele><time>2011-07-05T06:50:16Z</time></trkpt>
<trkpt lat="44.14250398" lon="5.37041394"><ele>1092.599976</ele><time>2011-07-05T06:50:24Z</time></trkpt>
<trkpt lat="44.14260892" lon="5.37021697"><ele>1093.599976</ele><time>2011-07-05T06:50:32Z</time></trkpt>
<trkpt lat="44.14267195" lon="5.36999099"><ele>1095</ele><time>2011-07-05T06:50:40Z</time></trkpt>
<trkpt lat="44.14269400" lon="5.36964792"><ele>1096.599976</ele><time>2011-07-05T06:50:51Z</time></trkpt>
<trkpt lat="44.14271797" lon="5.36934298"><ele>1098</ele><time>2011-07-05T06:51:01Z</time></trkpt>
<trkpt lat="44.14272794" lon="5.36906093"><ele>1099.199951</ele><time>2011-07-05T06:51:11Z</time></trkpt>
<trkpt lat="44.14274194" lon="5.36877997"><ele>1100.199951</ele><time>2011-07-05T06:51:21Z</time></trkpt>
<trkpt lat="44.14277094" lon="5.36847093"><ele>1101.400024</ele><time>2011-07-05T06:51:31Z</time></trkpt>
<trkpt lat="44.14282392" lon="5.36813297"><ele>1102.199951</ele><time>2011-07-05T06:51:40Z</time></trkpt>
<trkpt lat="44.14292492" lon="5.36783592"><ele>1103.599976</ele><time>2011-07-05T06:51:48Z</time></trkpt>
<trkpt lat="44.14309298" lon="5.36752093"><ele>1105</ele><time>2011-07-05T06:51:57Z</time></trkpt>
<trkpt lat="44.14332993" lon="5.36719898"><ele>1106.599976</ele><time>2011-07-05T06:52:08Z</time></trkpt>
<trkpt lat="44.14358298" lon="5.36695892"><ele>1108.199951</ele><time>2011-07-05T06:52:18Z</time></trkpt>
<trkpt lat="44.14379194" lon="5.36679296"><ele>1109.800049</ele><time>2011-07-05T06:52:26Z</time></trkpt>
<trkpt lat="44.14401096" lon="5.36664795"><ele>1110.800049</ele><time>2011-07-05T06:52:34Z</time></trkpt>
<trkpt lat="44.14424700" lon="5.36655298"><ele>1111.800049</ele><time>2011-07-05T06:52:43Z</time></trkpt>
<trkpt lat="44.14438698" lon="5.36652893"><ele>1112.199951</ele><time>2011-07-05T06:52:49Z</time></trkpt>
<trkpt lat="44.14460298" lon="5.36648895"><ele>1114</ele><time>2011-07-05T06:52:58Z</time></trkpt>
<trkpt lat="44.14475393" lon="5.36648794"><ele>1115</ele><time>2011-07-05T06:53:05Z</time></trkpt>
<trkpt lat="44.14489894" lon="5.36648995"><ele>1116.199951</ele><time>2011-07-05T06:53:12Z</time></trkpt>
<trkpt lat="44.14511092" lon="5.36653496"><ele>1117.400024</ele><time>2011-07-05T06:53:22Z</time></trkpt>
<trkpt lat="44.14531695" lon="5.36657595"><ele>1118.599976</ele><time>2011-07-05T06:53:32Z</time></trkpt>
<trkpt lat="44.14546899" lon="5.36660395"><ele>1120.199951</ele><time>2011-07-05T06:53:40Z</time></trkpt>
<trkpt lat="44.14562699" lon="5.36663496"><ele>1120.599976</ele><time>2011-07-05T06:53:49Z</time></trkpt>
<trkpt lat="44.14578793" lon="5.36660395"><ele>1122</ele><time>2011-07-05T06:53:57Z</time></trkpt>
<trkpt lat="44.14586496" lon="5.36647797"><ele>1122.400024</ele><time>2011-07-05T06:54:02Z</time></trkpt>
<trkpt lat="44.14587392" lon="5.36644595"><ele>1122.599976</ele><time>2011-07-05T06:54:03Z</time></trkpt>
<trkpt lat="44.14582497" lon="5.36619994"><ele>1123</ele><time>2011-07-05T06:54:10Z</time></trkpt>
<trkpt lat="44.14569296" lon="5.36592099"><ele>1123.800049</ele><time>2011-07-05T06:54:18Z</time></trkpt>
<trkpt lat="44.14553094" lon="5.36555998"><ele>1125.400024</ele><time>2011-07-05T06:54:27Z</time></trkpt>
<trkpt lat="44.14537797" lon="5.36522898"><ele>1126.599976</ele><time>2011-07-05T06:54:36Z</time></trkpt>
<trkpt lat="44.14523900" lon="5.36490292"><ele>1127.400024</ele><time>2011-07-05T06:54:45Z</time></trkpt>
<trkpt lat="44.14511796" lon="5.36461894"><ele>1128.400024</ele><time>2011-07-05T06:54:53Z</time></trkpt>
<trkpt lat="44.14507597" lon="5.36429792"><ele>1129.599976</ele><time>2011-07-05T06:55:01Z</time></trkpt>
<trkpt lat="44.14512400" lon="5.36403297"><ele>1130.599976</ele><time>2011-07-05T06:55:08Z</time></trkpt>
<trkpt lat="44.14523095" lon="5.36385896"><ele>1131.199951</ele><time>2011-07-05T06:55:14Z</time></trkpt>
<trkpt lat="44.14543597" lon="5.36362393"><ele>1132.599976</ele><time>2011-07-05T06:55:24Z</time></trkpt>
<trkpt lat="44.14556497" lon="5.36349099"><ele>1133.199951</ele><time>2011-07-05T06:55:31Z</time></trkpt>
<trkpt lat="44.14573395" lon="5.36331296"><ele>1134.199951</ele><time>2011-07-05T06:55:40Z</time></trkpt>
<trkpt lat="44.14588599" lon="5.36315898"><ele>1135</ele><time>2011-07-05T06:55:48Z</time></trkpt>
<trkpt lat="44.14600393" lon="5.36299596"><ele>1136.599976</ele><time>2011-07-05T06:55:56Z</time></trkpt>
<trkpt lat="44.14605497" lon="5.36279898"><ele>1137.400024</ele><time>2011-07-05T06:56:03Z</time></trkpt>
<trkpt lat="44.14606797" lon="5.36259698"><ele>1138.199951</ele><time>2011-07-05T06:56:09Z</time></trkpt>
<trkpt lat="44.14605196" lon="5.36231996"><ele>1139.199951</ele><time>2011-07-05T06:56:17Z</time></trkpt>
<trkpt lat="44.14604098" lon="5.36208794"><ele>1140.199951</ele><time>2011-07-05T06:56:24Z</time></trkpt>
<trkpt lat="44.14601793" lon="5.36186398"><ele>1140.800049</ele><time>2011-07-05T06:56:31Z</time></trkpt>
<trkpt lat="44.14601197" lon="5.36160397"><ele>1141.800049</ele><time>2011-07-05T06:56:39Z</time></trkpt>
<trkpt lat="44.14600896" lon="5.36137699"><ele>1142.800049</ele><time>2011-07-05T06:56:46Z</time></trkpt>
<trkpt lat="44.14603695" lon="5.36112797"><ele>1143.599976</ele><time>2011-07-05T06:56:54Z</time></trkpt>
<trkpt lat="44.14608297" lon="5.36083393"><ele>1144.800049</ele><time>2011-07-05T06:57:04Z</time></trkpt>
<trkpt lat="44.14613494" lon="5.36059597"><ele>1146</ele><time>2011-07-05T06:57:12Z</time></trkpt>
<trkpt lat="44.14621297" lon="5.36032297"><ele>1147.599976</ele><time>2011-07-05T06:57:21Z</time></trkpt>
<trkpt lat="44.14631993" lon="5.36006598"><ele>1148.599976</ele><time>2011-07-05T06:57:30Z</time></trkpt>
<trkpt lat="44.14642998" lon="5.35984595"><ele>1149.599976</ele><time>2011-07-05T06:57:38Z</time></trkpt>
<trkpt lat="44.14658597" lon="5.35962593"><ele>1150.599976</ele><time>2011-07-05T06:57:47Z</time></trkpt>
<trkpt lat="44.14671999" lon="5.35948997"><ele>1151.599976</ele><time>2011-07-05T06:57:54Z</time></trkpt>
<trkpt lat="44.14692694" lon="5.35932695"><ele>1153.199951</ele><time>2011-07-05T06:58:04Z</time></trkpt>
<trkpt lat="44.14716993" lon="5.35920692"><ele>1154.800049</ele><time>2011-07-05T06:58:14Z</time></trkpt>
<trkpt lat="44.14734093" lon="5.35915495"><ele>1155.800049</ele><time>2011-07-05T06:58:22Z</time></trkpt>
<trkpt lat="44.14755994" lon="5.35910298"><ele>1157.199951</ele><time>2011-07-05T06:58:32Z</time></trkpt>
<trkpt lat="44.14772892" lon="5.35908798"><ele>1158.400024</ele><time>2011-07-05T06:58:40Z</time></trkpt>
<trkpt lat="44.14793294" lon="5.35914397"><ele>1159.800049</ele><time>2011-07-05T06:58:50Z</time></trkpt>
<trkpt lat="44.14811692" lon="5.35921899"><ele>1161.199951</ele><time>2011-07-05T06:58:59Z</time></trkpt>
<trkpt lat="44.14830996" lon="5.35927992"><ele>1162.599976</ele><time>2011-07-05T06:59:08Z</time></trkpt>
<trkpt lat="44.14849897" lon="5.35936098"><ele>1163.800049</ele><time>2011-07-05T06:59:17Z</time></trkpt>
<trkpt lat="44.14866200" lon="5.35942493"><ele>1165</ele><time>2011-07-05T06:59:25Z</time></trkpt>
<trkpt lat="44.14882293" lon="5.35947598"><ele>1166.400024</ele><time>2011-07-05T06:59:33Z</time></trkpt>
<trkpt lat="44.14897892" lon="5.35953498"><ele>1167.599976</ele><time>2011-07-05T06:59:41Z</time></trkpt>
<trkpt lat="44.14921797" lon="5.35961797"><ele>1169.599976</ele><time>2011-07-05T06:59:53Z</time></trkpt>
<trkpt lat="44.14940296" lon="5.35966096"><ele>1171</ele><time>2011-07-05T07:00:02Z</time></trkpt>
<trkpt lat="44.14953799" lon="5.35955695"><ele>1172</ele><time>2011-07-05T07:00:10Z</time></trkpt>
<trkpt lat="44.14957194" lon="5.35942200"><ele>1172.800049</ele><time>2011-07-05T07:00:16Z</time></trkpt>
<trkpt lat="44.14957495" lon="5.35931295"><ele>1174</ele><time>2011-07-05T07:00:23Z</time></trkpt>
<trkpt lat="44.14957395" lon="5.35930993"><ele>1174.199951</ele><time>2011-07-05T07:00:24Z</time></trkpt>
<trkpt lat="44.14956892" lon="5.35930993"><ele>1174.800049</ele><time>2011-07-05T07:02:25Z</time></trkpt>
<trkpt lat="44.14952299" lon="5.35923894"><ele>1175</ele><time>2011-07-05T07:02:40Z</time></trkpt>
<trkpt lat="44.14939198" lon="5.35910994"><ele>1175.400024</ele><time>2011-07-05T07:02:48Z</time></trkpt>
<trkpt lat="44.14923096" lon="5.35896200"><ele>1176.400024</ele><time>2011-07-05T07:02:55Z</time></trkpt>
<trkpt lat="44.14908092" lon="5.35879998"><ele>1177.199951</ele><time>2011-07-05T07:03:02Z</time></trkpt>
<trkpt lat="44.14896492" lon="5.35855598"><ele>1178.199951</ele><time>2011-07-05T07:03:10Z</time></trkpt>
<trkpt lat="44.14891295" lon="5.35833897"><ele>1179.400024</ele><time>2011-07-05T07:03:17Z</time></trkpt>
<trkpt lat="44.14885495" lon="5.35809900"><ele>1180.800049</ele><time>2011-07-05T07:03:25Z</time></trkpt>
<trkpt lat="44.14879292" lon="5.35783094"><ele>1182.400024</ele><time>2011-07-05T07:03:34Z</time></trkpt>
<trkpt lat="44.14874297" lon="5.35759793"><ele>1183.400024</ele><time>2011-07-05T07:03:42Z</time></trkpt>
<trkpt lat="44.14870894" lon="5.35736499"><ele>1184.800049</ele><time>2011-07-05T07:03:50Z</time></trkpt>
<trkpt lat="44.14871598" lon="5.35711496"><ele>1186.199951</ele><time>2011-07-05T07:03:59Z</time></trkpt>
<trkpt lat="44.14873492" lon="5.35689393"><ele>1187.199951</ele><time>2011-07-05T07:04:07Z</time></trkpt>
<trkpt lat="44.14879795" lon="5.35662998"><ele>1189.199951</ele><time>2011-07-05T07:04:16Z</time></trkpt>
<trkpt lat="44.14887398" lon="5.35643293"><ele>1190.599976</ele><time>2011-07-05T07:04:24Z</time></trkpt>
<trkpt lat="44.14895394" lon="5.35625892"><ele>1191.400024</ele><time>2011-07-05T07:04:31Z</time></trkpt>
<trkpt lat="44.14908797" lon="5.35600595"><ele>1192.800049</ele><time>2011-07-05T07:04:41Z</time></trkpt>
<trkpt lat="44.14920699" lon="5.35581593"><ele>1193.800049</ele><time>2011-07-05T07:04:49Z</time></trkpt>
<trkpt lat="44.14932492" lon="5.35564494"><ele>1195</ele><time>2011-07-05T07:04:57Z</time></trkpt>
<trkpt lat="44.14949499" lon="5.35545392"><ele>1196.400024</ele><time>2011-07-05T07:05:07Z</time></trkpt>
<trkpt lat="44.14969599" lon="5.35526893"><ele>1198.199951</ele><time>2011-07-05T07:05:18Z</time></trkpt>
<trkpt lat="44.14989799" lon="5.35513197"><ele>1199.800049</ele><time>2011-07-05T07:05:28Z</time></trkpt>
<trkpt lat="44.15009195" lon="5.35503399"><ele>1201</ele><time>2011-07-05T07:05:37Z</time></trkpt>
<trkpt lat="44.15025297" lon="5.35500599"><ele>1202.400024</ele><time>2011-07-05T07:05:45Z</time></trkpt>
<trkpt lat="44.15041599" lon="5.35501395"><ele>1203.199951</ele><time>2011-07-05T07:05:53Z</time></trkpt>
<trkpt lat="44.15057693" lon="5.35507497"><ele>1204</ele><time>2011-07-05T07:06:01Z</time></trkpt>
<trkpt lat="44.15070693" lon="5.35520095"><ele>1205</ele><time>2011-07-05T07:06:09Z</time></trkpt>
<trkpt lat="44.15081196" lon="5.35534194"><ele>1205.400024</ele><time>2011-07-05T07:06:16Z</time></trkpt>
<trkpt lat="44.15093299" lon="5.35550597"><ele>1206.599976</ele><time>2011-07-05T07:06:25Z</time></trkpt>
<trkpt lat="44.15105495" lon="5.35559499"><ele>1208.400024</ele><time>2011-07-05T07:06:33Z</time></trkpt>
<trkpt lat="44.15116793" lon="5.35554495"><ele>1209.800049</ele><time>2011-07-05T07:06:39Z</time></trkpt>
<trkpt lat="44.15118495" lon="5.35553196"><ele>1210</ele><time>2011-07-05T07:06:40Z</time></trkpt>
<trkpt lat="44.15122795" lon="5.35544696"><ele>1210.599976</ele><time>2011-07-05T07:06:44Z</time></trkpt>
<trkpt lat="44.15134496" lon="5.35518696"><ele>1211.199951</ele><time>2011-07-05T07:06:55Z</time></trkpt>
<trkpt lat="44.15144999" lon="5.35505192"><ele>1212.400024</ele><time>2011-07-05T07:07:02Z</time></trkpt>
<trkpt lat="44.15154998" lon="5.35494396"><ele>1213.199951</ele><time>2011-07-05T07:07:08Z</time></trkpt>
<trkpt lat="44.15172198" lon="5.35476593"><ele>1214.599976</ele><time>2011-07-05T07:07:18Z</time></trkpt>
<trkpt lat="44.15188492" lon="5.35463492"><ele>1216</ele><time>2011-07-05T07:07:27Z</time></trkpt>
<trkpt lat="44.15211995" lon="5.35456695"><ele>1217.800049</ele><time>2011-07-05T07:07:39Z</time></trkpt>
<trkpt lat="44.15223495" lon="5.35448195"><ele>1218.800049</ele><time>2011-07-05T07:07:46Z</time></trkpt>
<trkpt lat="44.15225700" lon="5.35430996"><ele>1220.199951</ele><time>2011-07-05T07:07:53Z</time></trkpt>
<trkpt lat="44.15224199" lon="5.35413092"><ele>1221.400024</ele><time>2011-07-05T07:08:00Z</time></trkpt>
<trkpt lat="44.15222799" lon="5.35396898"><ele>1222</ele><time>2011-07-05T07:08:06Z</time></trkpt>
<trkpt lat="44.15225792" lon="5.35377896"><ele>1223</ele><time>2011-07-05T07:08:14Z</time></trkpt>
<trkpt lat="44.15231299" lon="5.35353296"><ele>1224.599976</ele><time>2011-07-05T07:08:23Z</time></trkpt>
<trkpt lat="44.15236596" lon="5.35327898"><ele>1226.400024</ele><time>2011-07-05T07:08:32Z</time></trkpt>
<trkpt lat="44.15241097" lon="5.35307094"><ele>1227.199951</ele><time>2011-07-05T07:08:40Z</time></trkpt>
<trkpt lat="44.15249395" lon="5.35284095"><ele>1228.400024</ele><time>2011-07-05T07:08:50Z</time></trkpt>
<trkpt lat="44.15260493" lon="5.35259695"><ele>1230.599976</ele><time>2011-07-05T07:09:01Z</time></trkpt>
<trkpt lat="44.15270300" lon="5.35239000"><ele>1231.599976</ele><time>2011-07-05T07:09:10Z</time></trkpt>
<trkpt lat="44.15276100" lon="5.35223594"><ele>1232.800049</ele><time>2011-07-05T07:09:17Z</time></trkpt>
<trkpt lat="44.15281096" lon="5.35198892"><ele>1233.800049</ele><time>2011-07-05T07:09:26Z</time></trkpt>
<trkpt lat="44.15282395" lon="5.35177594"><ele>1234.800049</ele><time>2011-07-05T07:09:33Z</time></trkpt>
<trkpt lat="44.15282696" lon="5.35153395"><ele>1236.599976</ele><time>2011-07-05T07:09:41Z</time></trkpt>
<trkpt lat="44.15282596" lon="5.35127294"><ele>1237.400024</ele><time>2011-07-05T07:09:50Z</time></trkpt>
<trkpt lat="44.15283392" lon="5.35103800"><ele>1237.800049</ele><time>2011-07-05T07:09:58Z</time></trkpt>
<trkpt lat="44.15286100" lon="5.35082795"><ele>1238.199951</ele><time>2011-07-05T07:10:05Z</time></trkpt>
<trkpt lat="44.15292998" lon="5.35056392"><ele>1240.800049</ele><time>2011-07-05T07:10:14Z</time></trkpt>
<trkpt lat="44.15303794" lon="5.35034993"><ele>1242.199951</ele><time>2011-07-05T07:10:22Z</time></trkpt>
<trkpt lat="44.15321195" lon="5.35015396"><ele>1243.800049</ele><time>2011-07-05T07:10:32Z</time></trkpt>
<trkpt lat="44.15341596" lon="5.35002597"><ele>1244.400024</ele><time>2011-07-05T07:10:42Z</time></trkpt>
<trkpt lat="44.15364898" lon="5.34995992"><ele>1246.599976</ele><time>2011-07-05T07:10:52Z</time></trkpt>
<trkpt lat="44.15393698" lon="5.34992698"><ele>1248</ele><time>2011-07-05T07:11:02Z</time></trkpt>
<trkpt lat="44.15424795" lon="5.34996595"><ele>1248.599976</ele><time>2011-07-05T07:11:13Z</time></trkpt>
<trkpt lat="44.15448298" lon="5.34999294"><ele>1248.800049</ele><time>2011-07-05T07:11:21Z</time></trkpt>
<trkpt lat="44.15467300" lon="5.34993494"><ele>1248.400024</ele><time>2011-07-05T07:11:28Z</time></trkpt>
<trkpt lat="44.15483594" lon="5.34986596"><ele>1249.400024</ele><time>2011-07-05T07:11:34Z</time></trkpt>
<trkpt lat="44.15510793" lon="5.34974693"><ele>1249.599976</ele><time>2011-07-05T07:11:42Z</time></trkpt>
<trkpt lat="44.15537196" lon="5.34954996"><ele>1249.400024</ele><time>2011-07-05T07:11:50Z</time></trkpt>
<trkpt lat="44.15561294" lon="5.34942993"><ele>1249.599976</ele><time>2011-07-05T07:11:57Z</time></trkpt>
<trkpt lat="44.15594595" lon="5.34937394"><ele>1250.199951</ele><time>2011-07-05T07:12:06Z</time></trkpt>
<trkpt lat="44.15606699" lon="5.34938492"><ele>1250</ele><time>2011-07-05T07:12:09Z</time></trkpt>
<trkpt lat="44.15637695" lon="5.34955993"><ele>1249.800049</ele><time>2011-07-05T07:12:17Z</time></trkpt>
<trkpt lat="44.15665800" lon="5.34971399"><ele>1250.800049</ele><time>2011-07-05T07:12:25Z</time></trkpt>
<trkpt lat="44.15696394" lon="5.34975993"><ele>1252</ele><time>2011-07-05T07:12:33Z</time></trkpt>
<trkpt lat="44.15718799" lon="5.34974199"><ele>1252.599976</ele><time>2011-07-05T07:12:39Z</time></trkpt>
<trkpt lat="44.15728698" lon="5.34957192"><ele>1252.800049</ele><time>2011-07-05T07:12:43Z</time></trkpt>
<trkpt lat="44.15725596" lon="5.34942792"><ele>1253.599976</ele><time>2011-07-05T07:12:46Z</time></trkpt>
<trkpt lat="44.15706100" lon="5.34903296"><ele>1256</ele><time>2011-07-05T07:12:56Z</time></trkpt>
<trkpt lat="44.15692194" lon="5.34868696"><ele>1256.599976</ele><time>2011-07-05T07:13:05Z</time></trkpt>
<trkpt lat="44.15694499" lon="5.34847800"><ele>1256.599976</ele><time>2011-07-05T07:13:10Z</time></trkpt>
<trkpt lat="44.15704600" lon="5.34831698"><ele>1257</ele><time>2011-07-05T07:13:16Z</time></trkpt>
<trkpt lat="44.15721196" lon="5.34816594"><ele>1257.599976</ele><time>2011-07-05T07:13:24Z</time></trkpt>
<trkpt lat="44.15743500" lon="5.34804599"><ele>1259.400024</ele><time>2011-07-05T07:13:33Z</time></trkpt>
<trkpt lat="44.15767497" lon="5.34789898"><ele>1260.199951</ele><time>2011-07-05T07:13:42Z</time></trkpt>
<trkpt lat="44.15773096" lon="5.34774793"><ele>1260.199951</ele><time>2011-07-05T07:13:46Z</time></trkpt>
<trkpt lat="44.15768495" lon="5.34755892"><ele>1260.599976</ele><time>2011-07-05T07:13:51Z</time></trkpt>
<trkpt lat="44.15754296" lon="5.34743998"><ele>1260.800049</ele><time>2011-07-05T07:13:57Z</time></trkpt>
<trkpt lat="44.15739292" lon="5.34741894"><ele>1261.400024</ele><time>2011-07-05T07:14:03Z</time></trkpt>
<trkpt lat="44.15724297" lon="5.34737796"><ele>1262</ele><time>2011-07-05T07:14:10Z</time></trkpt>
<trkpt lat="44.15705798" lon="5.34729397"><ele>1263</ele><time>2011-07-05T07:14:19Z</time></trkpt>
<trkpt lat="44.15686294" lon="5.34717595"><ele>1264</ele><time>2011-07-05T07:14:28Z</time></trkpt>
<trkpt lat="44.15671893" lon="5.34708099"><ele>1264.800049</ele><time>2011-07-05T07:14:35Z</time></trkpt>
<trkpt lat="44.15654300" lon="5.34691192"><ele>1266.199951</ele><time>2011-07-05T07:14:43Z</time></trkpt>
<trkpt lat="44.15637494" lon="5.34670397"><ele>1267.199951</ele><time>2011-07-05T07:14:51Z</time></trkpt>
<trkpt lat="44.15621795" lon="5.34643994"><ele>1268.199951</ele><time>2011-07-05T07:15:00Z</time></trkpt>
<trkpt lat="44.15607696" lon="5.34617792"><ele>1269</ele><time>2011-07-05T07:15:09Z</time></trkpt>
<trkpt lat="44.15590396" lon="5.34596594"><ele>1270.199951</ele><time>2011-07-05T07:15:18Z</time></trkpt>
<trkpt lat="44.15569995" lon="5.34575899"><ele>1270.800049</ele><time>2011-07-05T07:15:27Z</time></trkpt>
<trkpt lat="44.15550096" lon="5.34547493"><ele>1271.599976</ele><time>2011-07-05T07:15:37Z</time></trkpt>
<trkpt lat="44.15537800" lon="5.34516597"><ele>1273</ele><time>2011-07-05T07:15:46Z</time></trkpt>
<trkpt lat="44.15523592" lon="5.34486498"><ele>1274.800049</ele><time>2011-07-05T07:15:56Z</time></trkpt>
<trkpt lat="44.15511196" lon="5.34462894"><ele>1275.400024</ele><time>2011-07-05T07:16:05Z</time></trkpt>
<trkpt lat="44.15503794" lon="5.34451093"><ele>1275.599976</ele><time>2011-07-05T07:16:11Z</time></trkpt>
<trkpt lat="44.15490199" lon="5.34450095"><ele>1275.599976</ele><time>2011-07-05T07:16:18Z</time></trkpt>
<trkpt lat="44.15482596" lon="5.34466792"><ele>1276.199951</ele><time>2011-07-05T07:16:24Z</time></trkpt>
<trkpt lat="44.15477199" lon="5.34486397"><ele>1276.400024</ele><time>2011-07-05T07:16:30Z</time></trkpt>
<trkpt lat="44.15467392" lon="5.34509498"><ele>1277.199951</ele><time>2011-07-05T07:16:37Z</time></trkpt>
<trkpt lat="44.15455397" lon="5.34530696"><ele>1278.800049</ele><time>2011-07-05T07:16:44Z</time></trkpt>
<trkpt lat="44.15435993" lon="5.34558792"><ele>1280.199951</ele><time>2011-07-05T07:16:54Z</time></trkpt>
<trkpt lat="44.15416195" lon="5.34575195"><ele>1281.800049</ele><time>2011-07-05T07:17:02Z</time></trkpt>
<trkpt lat="44.15397093" lon="5.34585396"><ele>1282</ele><time>2011-07-05T07:17:09Z</time></trkpt>
<trkpt lat="44.15372098" lon="5.34590693"><ele>1282.800049</ele><time>2011-07-05T07:17:18Z</time></trkpt>
<trkpt lat="44.15350297" lon="5.34590299"><ele>1282.800049</ele><time>2011-07-05T07:17:26Z</time></trkpt>
<trkpt lat="44.15320993" lon="5.34583795"><ele>1283.199951</ele><time>2011-07-05T07:17:37Z</time></trkpt>
<trkpt lat="44.15296895" lon="5.34577198"><ele>1283.800049</ele><time>2011-07-05T07:17:46Z</time></trkpt>
<trkpt lat="44.15279394" lon="5.34571893"><ele>1284</ele><time>2011-07-05T07:17:53Z</time></trkpt>
<trkpt lat="44.15264198" lon="5.34569495"><ele>1284</ele><time>2011-07-05T07:18:00Z</time></trkpt>
<trkpt lat="44.15259093" lon="5.34567299"><ele>1284.800049</ele><time>2011-07-05T07:18:05Z</time></trkpt>
<trkpt lat="44.15261993" lon="5.34568992"><ele>1283.800049</ele><time>2011-07-05T07:19:50Z</time></trkpt>
<trkpt lat="44.15263393" lon="5.34564399"><ele>1284.599976</ele><time>2011-07-05T07:19:55Z</time></trkpt>
<trkpt lat="44.15240896" lon="5.34518693"><ele>1285</ele><time>2011-07-05T07:20:16Z</time></trkpt>
<trkpt lat="44.15224995" lon="5.34490898"><ele>1284.400024</ele><time>2011-07-05T07:20:24Z</time></trkpt>
<trkpt lat="44.15209698" lon="5.34481293"><ele>1285.199951</ele><time>2011-07-05T07:20:29Z</time></trkpt>
<trkpt lat="44.15188593" lon="5.34487797"><ele>1286.599976</ele><time>2011-07-05T07:20:35Z</time></trkpt>
<trkpt lat="44.15169398" lon="5.34513295"><ele>1284.599976</ele><time>2011-07-05T07:20:42Z</time></trkpt>
<trkpt lat="44.15156096" lon="5.34526697"><ele>1284.800049</ele><time>2011-07-05T07:20:46Z</time></trkpt>
<trkpt lat="44.15123197" lon="5.34538097"><ele>1286.800049</ele><time>2011-07-05T07:20:53Z</time></trkpt>
<trkpt lat="44.15077692" lon="5.34537099"><ele>1289</ele><time>2011-07-05T07:21:02Z</time></trkpt>
<trkpt lat="44.15067500" lon="5.34536093"><ele>1289.199951</ele><time>2011-07-05T07:21:04Z</time></trkpt>
<trkpt lat="44.15020896" lon="5.34523898"><ele>1290.400024</ele><time>2011-07-05T07:21:13Z</time></trkpt>
<trkpt lat="44.15001400" lon="5.34516497"><ele>1291</ele><time>2011-07-05T07:21:17Z</time></trkpt>
<trkpt lat="44.14968694" lon="5.34488199"><ele>1291.800049</ele><time>2011-07-05T07:21:25Z</time></trkpt>
<trkpt lat="44.14945694" lon="5.34469600"><ele>1292.800049</ele><time>2011-07-05T07:21:32Z</time></trkpt>
<trkpt lat="44.14931998" lon="5.34475995"><ele>1293</ele><time>2011-07-05T07:21:36Z</time></trkpt>
<trkpt lat="44.14906500" lon="5.34493396"><ele>1293.400024</ele><time>2011-07-05T07:21:43Z</time></trkpt>
<trkpt lat="44.14876199" lon="5.34501594"><ele>1294.400024</ele><time>2011-07-05T07:21:51Z</time></trkpt>
<trkpt lat="44.14848296" lon="5.34507293"><ele>1295.599976</ele><time>2011-07-05T07:21:59Z</time></trkpt>
<trkpt lat="44.14821994" lon="5.34511493"><ele>1297</ele><time>2011-07-05T07:22:07Z</time></trkpt>
<trkpt lat="44.14788893" lon="5.34514200"><ele>1298</ele><time>2011-07-05T07:22:17Z</time></trkpt>
<trkpt lat="44.14754192" lon="5.34514795"><ele>1299</ele><time>2011-07-05T07:22:27Z</time></trkpt>
<trkpt lat="44.14726892" lon="5.34515197"><ele>1299.800049</ele><time>2011-07-05T07:22:35Z</time></trkpt>
<trkpt lat="44.14696994" lon="5.34513395"><ele>1301.400024</ele><time>2011-07-05T07:22:44Z</time></trkpt>
<trkpt lat="44.14667892" lon="5.34508299"><ele>1302</ele><time>2011-07-05T07:22:53Z</time></trkpt>
<trkpt lat="44.14642093" lon="5.34501895"><ele>1303.800049</ele><time>2011-07-05T07:23:01Z</time></trkpt>
<trkpt lat="44.14615698" lon="5.34489792"><ele>1305.599976</ele><time>2011-07-05T07:23:10Z</time></trkpt>
<trkpt lat="44.14596395" lon="5.34476196"><ele>1306.800049</ele><time>2011-07-05T07:23:18Z</time></trkpt>
<trkpt lat="44.14587594" lon="5.34467898"><ele>1306.800049</ele><time>2011-07-05T07:23:22Z</time></trkpt>
<trkpt lat="44.14572992" lon="5.34444597"><ele>1306.400024</ele><time>2011-07-05T07:23:29Z</time></trkpt>
<trkpt lat="44.14556799" lon="5.34418294"><ele>1307.199951</ele><time>2011-07-05T07:23:37Z</time></trkpt>
<trkpt lat="44.14539398" lon="5.34393593"><ele>1308.199951</ele><time>2011-07-05T07:23:45Z</time></trkpt>
<trkpt lat="44.14519893" lon="5.34384498"><ele>1308.599976</ele><time>2011-07-05T07:23:52Z</time></trkpt>
<trkpt lat="44.14498997" lon="5.34394800"><ele>1309.199951</ele><time>2011-07-05T07:23:59Z</time></trkpt>
<trkpt lat="44.14480096" lon="5.34411899"><ele>1310.199951</ele><time>2011-07-05T07:24:06Z</time></trkpt>
<trkpt lat="44.14459292" lon="5.34429199"><ele>1311.199951</ele><time>2011-07-05T07:24:14Z</time></trkpt>
<trkpt lat="44.14437097" lon="5.34449299"><ele>1311.800049</ele><time>2011-07-05T07:24:22Z</time></trkpt>
<trkpt lat="44.14414197" lon="5.34468695"><ele>1312.599976</ele><time>2011-07-05T07:24:30Z</time></trkpt>
<trkpt lat="44.14389496" lon="5.34486598"><ele>1313.599976</ele><time>2011-07-05T07:24:38Z</time></trkpt>
<trkpt lat="44.14363193" lon="5.34502700"><ele>1314</ele><time>2011-07-05T07:24:46Z</time></trkpt>
<trkpt lat="44.14336497" lon="5.34514795"><ele>1315</ele><time>2011-07-05T07:24:54Z</time></trkpt>
<trkpt lat="44.14309893" lon="5.34523697"><ele>1315.599976</ele><time>2011-07-05T07:25:02Z</time></trkpt>
<trkpt lat="44.14280699" lon="5.34527494"><ele>1316.599976</ele><time>2011-07-05T07:25:11Z</time></trkpt>
<trkpt lat="44.14252100" lon="5.34526396"><ele>1317.400024</ele><time>2011-07-05T07:25:20Z</time></trkpt>
<trkpt lat="44.14226694" lon="5.34519799"><ele>1317.599976</ele><time>2011-07-05T07:25:28Z</time></trkpt>
<trkpt lat="44.14200593" lon="5.34509297"><ele>1317.599976</ele><time>2011-07-05T07:25:36Z</time></trkpt>
<trkpt lat="44.14172094" lon="5.34495098"><ele>1318.400024</ele><time>2011-07-05T07:25:45Z</time></trkpt>
<trkpt lat="44.14150695" lon="5.34482592"><ele>1319.199951</ele><time>2011-07-05T07:25:52Z</time></trkpt>
<trkpt lat="44.14131199" lon="5.34465794"><ele>1320.199951</ele><time>2011-07-05T07:25:59Z</time></trkpt>
<trkpt lat="44.14115894" lon="5.34451998"><ele>1321.199951</ele><time>2011-07-05T07:26:06Z</time></trkpt>
<trkpt lat="44.14109297" lon="5.34437296"><ele>1322.199951</ele><time>2011-07-05T07:26:13Z</time></trkpt>
<trkpt lat="44.14109398" lon="5.34433499"><ele>1322.800049</ele><time>2011-07-05T07:26:17Z</time></trkpt>
<trkpt lat="44.14106900" lon="5.34429199"><ele>1322</ele><time>2011-07-05T07:26:42Z</time></trkpt>
<trkpt lat="44.14114896" lon="5.34416693"><ele>1322.199951</ele><time>2011-07-05T07:27:12Z</time></trkpt>
<trkpt lat="44.14128995" lon="5.34392897"><ele>1322.599976</ele><time>2011-07-05T07:27:19Z</time></trkpt>
<trkpt lat="44.14148692" lon="5.34367793"><ele>1323.599976</ele><time>2011-07-05T07:27:28Z</time></trkpt>
<trkpt lat="44.14166596" lon="5.34346998"><ele>1324.599976</ele><time>2011-07-05T07:27:36Z</time></trkpt>
<trkpt lat="44.14182899" lon="5.34322397"><ele>1325.800049</ele><time>2011-07-05T07:27:44Z</time></trkpt>
<trkpt lat="44.14196393" lon="5.34289297"><ele>1326.400024</ele><time>2011-07-05T07:27:53Z</time></trkpt>
<trkpt lat="44.14211095" lon="5.34251595"><ele>1327.599976</ele><time>2011-07-05T07:28:03Z</time></trkpt>
<trkpt lat="44.14219192" lon="5.34218495"><ele>1329</ele><time>2011-07-05T07:28:11Z</time></trkpt>
<trkpt lat="44.14224498" lon="5.34181095"><ele>1329.800049</ele><time>2011-07-05T07:28:20Z</time></trkpt>
<trkpt lat="44.14228697" lon="5.34138096"><ele>1330</ele><time>2011-07-05T07:28:30Z</time></trkpt>
<trkpt lat="44.14238194" lon="5.34093294"><ele>1331</ele><time>2011-07-05T07:28:41Z</time></trkpt>
<trkpt lat="44.14250792" lon="5.34054796"><ele>1332.599976</ele><time>2011-07-05T07:28:51Z</time></trkpt>
<trkpt lat="44.14267397" lon="5.34014798"><ele>1333.400024</ele><time>2011-07-05T07:29:01Z</time></trkpt>
<trkpt lat="44.14287195" lon="5.33984992"><ele>1334.599976</ele><time>2011-07-05T07:29:10Z</time></trkpt>
<trkpt lat="44.14304595" lon="5.33968194"><ele>1335.599976</ele><time>2011-07-05T07:29:17Z</time></trkpt>
<trkpt lat="44.14327092" lon="5.33953995"><ele>1336.599976</ele><time>2011-07-05T07:29:25Z</time></trkpt>
<trkpt lat="44.14339892" lon="5.33946594"><ele>1337</ele><time>2011-07-05T07:29:30Z</time></trkpt>
<trkpt lat="44.14357393" lon="5.33942395"><ele>1337.599976</ele><time>2011-07-05T07:29:36Z</time></trkpt>
<trkpt lat="44.14379999" lon="5.33940995"><ele>1339</ele><time>2011-07-05T07:29:44Z</time></trkpt>
<trkpt lat="44.14400895" lon="5.33939696"><ele>1339.800049</ele><time>2011-07-05T07:29:51Z</time></trkpt>
<trkpt lat="44.14421800" lon="5.33936192"><ele>1340.599976</ele><time>2011-07-05T07:29:58Z</time></trkpt>
<trkpt lat="44.14442796" lon="5.33929495"><ele>1341.599976</ele><time>2011-07-05T07:30:05Z</time></trkpt>
<trkpt lat="44.14473893" lon="5.33912899"><ele>1342</ele><time>2011-07-05T07:30:16Z</time></trkpt>
<trkpt lat="44.14496893" lon="5.33899697"><ele>1342.800049</ele><time>2011-07-05T07:30:25Z</time></trkpt>
<trkpt lat="44.14520798" lon="5.33886295"><ele>1344.400024</ele><time>2011-07-05T07:30:34Z</time></trkpt>
<trkpt lat="44.14545793" lon="5.33876396"><ele>1345</ele><time>2011-07-05T07:30:43Z</time></trkpt>
<trkpt lat="44.14569899" lon="5.33872699"><ele>1346</ele><time>2011-07-05T07:30:51Z</time></trkpt>
<trkpt lat="44.14597895" lon="5.33873294"><ele>1347.400024</ele><time>2011-07-05T07:31:00Z</time></trkpt>
<trkpt lat="44.14621993" lon="5.33870093"><ele>1348.199951</ele><time>2011-07-05T07:31:08Z</time></trkpt>
<trkpt lat="44.14631397" lon="5.33858199"><ele>1348.599976</ele><time>2011-07-05T07:31:12Z</time></trkpt>
<trkpt lat="44.14626092" lon="5.33839398"><ele>1348.199951</ele><time>2011-07-05T07:31:17Z</time></trkpt>
<trkpt lat="44.14620300" lon="5.33834394"><ele>1348.199951</ele><time>2011-07-05T07:31:19Z</time></trkpt>
<trkpt lat="44.14598297" lon="5.33823799"><ele>1348.400024</ele><time>2011-07-05T07:31:25Z</time></trkpt>
<trkpt lat="44.14565792" lon="5.33802099"><ele>1349.400024</ele><time>2011-07-05T07:31:34Z</time></trkpt>
<trkpt lat="44.14548492" lon="5.33789794"><ele>1350.400024</ele><time>2011-07-05T07:31:40Z</time></trkpt>
<trkpt lat="44.14526397" lon="5.33774598"><ele>1351.599976</ele><time>2011-07-05T07:31:47Z</time></trkpt>
<trkpt lat="44.14499894" lon="5.33758194"><ele>1352.599976</ele><time>2011-07-05T07:31:56Z</time></trkpt>
<trkpt lat="44.14482292" lon="5.33737692"><ele>1353.400024</ele><time>2011-07-05T07:32:03Z</time></trkpt>
<trkpt lat="44.14472493" lon="5.33711993"><ele>1354</ele><time>2011-07-05T07:32:10Z</time></trkpt>
<trkpt lat="44.14469493" lon="5.33678893"><ele>1355.199951</ele><time>2011-07-05T07:32:18Z</time></trkpt>
<trkpt lat="44.14473692" lon="5.33638895"><ele>1357</ele><time>2011-07-05T07:32:27Z</time></trkpt>
<trkpt lat="44.14482895" lon="5.33596893"><ele>1357.800049</ele><time>2011-07-05T07:32:37Z</time></trkpt>
<trkpt lat="44.14495493" lon="5.33552896"><ele>1359</ele><time>2011-07-05T07:32:48Z</time></trkpt>
<trkpt lat="44.14508292" lon="5.33508992"><ele>1360.599976</ele><time>2011-07-05T07:32:59Z</time></trkpt>
<trkpt lat="44.14522693" lon="5.33472598"><ele>1361.599976</ele><time>2011-07-05T07:33:09Z</time></trkpt>
<trkpt lat="44.14540194" lon="5.33449195"><ele>1363.199951</ele><time>2011-07-05T07:33:18Z</time></trkpt>
<trkpt lat="44.14556296" lon="5.33441995"><ele>1364</ele><time>2011-07-05T07:33:25Z</time></trkpt>
<trkpt lat="44.14575297" lon="5.33443395"><ele>1365</ele><time>2011-07-05T07:33:33Z</time></trkpt>
<trkpt lat="44.14596294" lon="5.33446195"><ele>1365.599976</ele><time>2011-07-05T07:33:42Z</time></trkpt>
<trkpt lat="44.14616997" lon="5.33448592"><ele>1366.800049</ele><time>2011-07-05T07:33:51Z</time></trkpt>
<trkpt lat="44.14639595" lon="5.33449396"><ele>1367.800049</ele><time>2011-07-05T07:34:00Z</time></trkpt>
<trkpt lat="44.14658999" lon="5.33449095"><ele>1368.199951</ele><time>2011-07-05T07:34:08Z</time></trkpt>
<trkpt lat="44.14674195" lon="5.33448500"><ele>1369.199951</ele><time>2011-07-05T07:34:15Z</time></trkpt>
<trkpt lat="44.14688897" lon="5.33448500"><ele>1370</ele><time>2011-07-05T07:34:22Z</time></trkpt>
<trkpt lat="44.14708997" lon="5.33444200"><ele>1371.599976</ele><time>2011-07-05T07:34:31Z</time></trkpt>
<trkpt lat="44.14724797" lon="5.33442196"><ele>1372.800049</ele><time>2011-07-05T07:34:38Z</time></trkpt>
<trkpt lat="44.14737999" lon="5.33438894"><ele>1373.599976</ele><time>2011-07-05T07:34:44Z</time></trkpt>
<trkpt lat="44.14764896" lon="5.33433597"><ele>1374.800049</ele><time>2011-07-05T07:34:56Z</time></trkpt>
<trkpt lat="44.14783194" lon="5.33427997"><ele>1375.599976</ele><time>2011-07-05T07:35:04Z</time></trkpt>
<trkpt lat="44.14801097" lon="5.33424393"><ele>1376.599976</ele><time>2011-07-05T07:35:12Z</time></trkpt>
<trkpt lat="44.14813997" lon="5.33419993"><ele>1376.800049</ele><time>2011-07-05T07:35:19Z</time></trkpt>
<trkpt lat="44.14833695" lon="5.33414897"><ele>1378.800049</ele><time>2011-07-05T07:35:28Z</time></trkpt>
<trkpt lat="44.14848992" lon="5.33409499"><ele>1380.199951</ele><time>2011-07-05T07:35:35Z</time></trkpt>
<trkpt lat="44.14862093" lon="5.33407596"><ele>1381</ele><time>2011-07-05T07:35:41Z</time></trkpt>
<trkpt lat="44.14885495" lon="5.33409096"><ele>1382.400024</ele><time>2011-07-05T07:35:51Z</time></trkpt>
<trkpt lat="44.14905796" lon="5.33417998"><ele>1383.199951</ele><time>2011-07-05T07:36:00Z</time></trkpt>
<trkpt lat="44.14926792" lon="5.33426598"><ele>1384.400024</ele><time>2011-07-05T07:36:09Z</time></trkpt>
<trkpt lat="44.14941696" lon="5.33421996"><ele>1385</ele><time>2011-07-05T07:36:15Z</time></trkpt>
<trkpt lat="44.14945392" lon="5.33406699"><ele>1385.400024</ele><time>2011-07-05T07:36:19Z</time></trkpt>
<trkpt lat="44.14939399" lon="5.33392592"><ele>1385.599976</ele><time>2011-07-05T07:36:23Z</time></trkpt>
<trkpt lat="44.14922995" lon="5.33366399"><ele>1386.599976</ele><time>2011-07-05T07:36:32Z</time></trkpt>
<trkpt lat="44.14909794" lon="5.33343097"><ele>1387.199951</ele><time>2011-07-05T07:36:40Z</time></trkpt>
<trkpt lat="44.14900398" lon="5.33319494"><ele>1388.400024</ele><time>2011-07-05T07:36:48Z</time></trkpt>
<trkpt lat="44.14891396" lon="5.33297692"><ele>1389.400024</ele><time>2011-07-05T07:36:56Z</time></trkpt>
<trkpt lat="44.14892594" lon="5.33277400"><ele>1389.599976</ele><time>2011-07-05T07:37:02Z</time></trkpt>
<trkpt lat="44.14901898" lon="5.33270493"><ele>1389.800049</ele><time>2011-07-05T07:37:07Z</time></trkpt>
<trkpt lat="44.14920095" lon="5.33267995"><ele>1390.599976</ele><time>2011-07-05T07:37:14Z</time></trkpt>
<trkpt lat="44.14939198" lon="5.33258599"><ele>1390.599976</ele><time>2011-07-05T07:37:21Z</time></trkpt>
<trkpt lat="44.14945895" lon="5.33237795"><ele>1390</ele><time>2011-07-05T07:37:26Z</time></trkpt>
<trkpt lat="44.14944093" lon="5.33214292"><ele>1390.199951</ele><time>2011-07-05T07:37:32Z</time></trkpt>
<trkpt lat="44.14938292" lon="5.33182693"><ele>1390.199951</ele><time>2011-07-05T07:37:40Z</time></trkpt>
<trkpt lat="44.14928293" lon="5.33149098"><ele>1390</ele><time>2011-07-05T07:37:48Z</time></trkpt>
<trkpt lat="44.14913700" lon="5.33103400"><ele>1390</ele><time>2011-07-05T07:37:59Z</time></trkpt>
<trkpt lat="44.14904798" lon="5.33070593"><ele>1390.400024</ele><time>2011-07-05T07:38:07Z</time></trkpt>
<trkpt lat="44.14895092" lon="5.33028499"><ele>1390.800049</ele><time>2011-07-05T07:38:16Z</time></trkpt>
<trkpt lat="44.14888797" lon="5.32991200"><ele>1391.199951</ele><time>2011-07-05T07:38:24Z</time></trkpt>
<trkpt lat="44.14892795" lon="5.32958100"><ele>1392</ele><time>2011-07-05T07:38:32Z</time></trkpt>
<trkpt lat="44.14898998" lon="5.32913500"><ele>1393</ele><time>2011-07-05T07:38:42Z</time></trkpt>
<trkpt lat="44.14900096" lon="5.32882193"><ele>1393.199951</ele><time>2011-07-05T07:38:49Z</time></trkpt>
<trkpt lat="44.14900892" lon="5.32846092"><ele>1393.400024</ele><time>2011-07-05T07:38:58Z</time></trkpt>
<trkpt lat="44.14902099" lon="5.32818499"><ele>1393.599976</ele><time>2011-07-05T07:39:05Z</time></trkpt>
<trkpt lat="44.14899099" lon="5.32798793"><ele>1394</ele><time>2011-07-05T07:39:10Z</time></trkpt>
<trkpt lat="44.14886392" lon="5.32761293"><ele>1393.800049</ele><time>2011-07-05T07:39:18Z</time></trkpt>
<trkpt lat="44.14878597" lon="5.32733699"><ele>1394.199951</ele><time>2011-07-05T07:39:23Z</time></trkpt>
<trkpt lat="44.14880097" lon="5.32699694"><ele>1394.400024</ele><time>2011-07-05T07:39:29Z</time></trkpt>
<trkpt lat="44.14890692" lon="5.32683400"><ele>1394.800049</ele><time>2011-07-05T07:39:33Z</time></trkpt>
<trkpt lat="44.14905695" lon="5.32678898"><ele>1395.199951</ele><time>2011-07-05T07:39:37Z</time></trkpt>
<trkpt lat="44.14909392" lon="5.32679292"><ele>1395.400024</ele><time>2011-07-05T07:39:38Z</time></trkpt>
<trkpt lat="44.14941494" lon="5.32692192"><ele>1395.199951</ele><time>2011-07-05T07:39:47Z</time></trkpt>
<trkpt lat="44.14970194" lon="5.32709300"><ele>1395</ele><time>2011-07-05T07:39:55Z</time></trkpt>
<trkpt lat="44.15011995" lon="5.32730992"><ele>1396</ele><time>2011-07-05T07:40:06Z</time></trkpt>
<trkpt lat="44.15043293" lon="5.32744093"><ele>1396.800049</ele><time>2011-07-05T07:40:14Z</time></trkpt>
<trkpt lat="44.15070794" lon="5.32756398"><ele>1396.800049</ele><time>2011-07-05T07:40:22Z</time></trkpt>
<trkpt lat="44.15097599" lon="5.32767696"><ele>1397.400024</ele><time>2011-07-05T07:40:29Z</time></trkpt>
<trkpt lat="44.15125796" lon="5.32776296"><ele>1397.599976</ele><time>2011-07-05T07:40:36Z</time></trkpt>
<trkpt lat="44.15157898" lon="5.32783295"><ele>1397.599976</ele><time>2011-07-05T07:40:45Z</time></trkpt>
<trkpt lat="44.15180597" lon="5.32787595"><ele>1397.800049</ele><time>2011-07-05T07:40:51Z</time></trkpt>
<trkpt lat="44.15216597" lon="5.32790696"><ele>1399</ele><time>2011-07-05T07:41:00Z</time></trkpt>
<trkpt lat="44.15245498" lon="5.32791694"><ele>1399</ele><time>2011-07-05T07:41:07Z</time></trkpt>
<trkpt lat="44.15268900" lon="5.32791895"><ele>1398.800049</ele><time>2011-07-05T07:41:13Z</time></trkpt>
<trkpt lat="44.15295093" lon="5.32791199"><ele>1399</ele><time>2011-07-05T07:41:20Z</time></trkpt>
<trkpt lat="44.15320893" lon="5.32787997"><ele>1399.400024</ele><time>2011-07-05T07:41:27Z</time></trkpt>
<trkpt lat="44.15332594" lon="5.32775894"><ele>1399.599976</ele><time>2011-07-05T07:41:31Z</time></trkpt>
<trkpt lat="44.15330993" lon="5.32757998"><ele>1400.599976</ele><time>2011-07-05T07:41:35Z</time></trkpt>
<trkpt lat="44.15320499" lon="5.32748695"><ele>1401</ele><time>2011-07-05T07:41:39Z</time></trkpt>
<trkpt lat="44.15295395" lon="5.32736993"><ele>1401</ele><time>2011-07-05T07:41:46Z</time></trkpt>
<trkpt lat="44.15262194" lon="5.32720598"><ele>1401</ele><time>2011-07-05T07:41:55Z</time></trkpt>
<trkpt lat="44.15235096" lon="5.32705293"><ele>1401</ele><time>2011-07-05T07:42:02Z</time></trkpt>
<trkpt lat="44.15204896" lon="5.32684992"><ele>1401.400024</ele><time>2011-07-05T07:42:10Z</time></trkpt>
<trkpt lat="44.15176297" lon="5.32661699"><ele>1402.199951</ele><time>2011-07-05T07:42:18Z</time></trkpt>
<trkpt lat="44.15155392" lon="5.32634692"><ele>1402.199951</ele><time>2011-07-05T07:42:25Z</time></trkpt>
<trkpt lat="44.15132895" lon="5.32595993"><ele>1402</ele><time>2011-07-05T07:42:34Z</time></trkpt>
<trkpt lat="44.15111999" lon="5.32560898"><ele>1402.599976</ele><time>2011-07-05T07:42:42Z</time></trkpt>
<trkpt lat="44.15088396" lon="5.32529198"><ele>1403</ele><time>2011-07-05T07:42:50Z</time></trkpt>
<trkpt lat="44.15057500" lon="5.32493197"><ele>1403.199951</ele><time>2011-07-05T07:42:59Z</time></trkpt>
<trkpt lat="44.15020896" lon="5.32454398"><ele>1403.599976</ele><time>2011-07-05T07:43:08Z</time></trkpt>
<trkpt lat="44.14980797" lon="5.32423393"><ele>1404.199951</ele><time>2011-07-05T07:43:17Z</time></trkpt>
<trkpt lat="44.14943598" lon="5.32392698"><ele>1404.599976</ele><time>2011-07-05T07:43:26Z</time></trkpt>
<trkpt lat="44.14915594" lon="5.32372196"><ele>1405</ele><time>2011-07-05T07:43:33Z</time></trkpt>
<trkpt lat="44.14885294" lon="5.32355198"><ele>1405.199951</ele><time>2011-07-05T07:43:41Z</time></trkpt>
<trkpt lat="44.14861397" lon="5.32335492"><ele>1405.599976</ele><time>2011-07-05T07:43:48Z</time></trkpt>
<trkpt lat="44.14845698" lon="5.32312592"><ele>1406</ele><time>2011-07-05T07:43:54Z</time></trkpt>
<trkpt lat="44.14835296" lon="5.32280196"><ele>1406.400024</ele><time>2011-07-05T07:44:01Z</time></trkpt>
<trkpt lat="44.14831499" lon="5.32252293"><ele>1406.800049</ele><time>2011-07-05T07:44:07Z</time></trkpt>
<trkpt lat="44.14833494" lon="5.32224792"><ele>1407</ele><time>2011-07-05T07:44:13Z</time></trkpt>
<trkpt lat="44.14843996" lon="5.32193494"><ele>1407</ele><time>2011-07-05T07:44:20Z</time></trkpt>
<trkpt lat="44.14858094" lon="5.32162498"><ele>1407.599976</ele><time>2011-07-05T07:44:27Z</time></trkpt>
<trkpt lat="44.14871095" lon="5.32134494"><ele>1408.199951</ele><time>2011-07-05T07:44:33Z</time></trkpt>
<trkpt lat="44.14881597" lon="5.32105392"><ele>1409</ele><time>2011-07-05T07:44:39Z</time></trkpt>
<trkpt lat="44.14891396" lon="5.32070993"><ele>1408.199951</ele><time>2011-07-05T07:44:46Z</time></trkpt>
<trkpt lat="44.14898898" lon="5.32033794"><ele>1408.400024</ele><time>2011-07-05T07:44:53Z</time></trkpt>
<trkpt lat="44.14900398" lon="5.31984097"><ele>1409.800049</ele><time>2011-07-05T07:45:02Z</time></trkpt>
<trkpt lat="44.14899794" lon="5.31940796"><ele>1410.400024</ele><time>2011-07-05T07:45:10Z</time></trkpt>
<trkpt lat="44.14901395" lon="5.31896498"><ele>1410.800049</ele><time>2011-07-05T07:45:18Z</time></trkpt>
<trkpt lat="44.14905896" lon="5.31846592"><ele>1411.400024</ele><time>2011-07-05T07:45:27Z</time></trkpt>
<trkpt lat="44.14916592" lon="5.31803794"><ele>1411.199951</ele><time>2011-07-05T07:45:35Z</time></trkpt>
<trkpt lat="44.14924798" lon="5.31783795"><ele>1411</ele><time>2011-07-05T07:45:39Z</time></trkpt>
<trkpt lat="44.14941595" lon="5.31768498"><ele>1411.400024</ele><time>2011-07-05T07:45:44Z</time></trkpt>
<trkpt lat="44.14959700" lon="5.31771792"><ele>1412.400024</ele><time>2011-07-05T07:45:49Z</time></trkpt>
<trkpt lat="44.14989699" lon="5.31785094"><ele>1413.599976</ele><time>2011-07-05T07:45:57Z</time></trkpt>
<trkpt lat="44.15024098" lon="5.31794096"><ele>1413.800049</ele><time>2011-07-05T07:46:06Z</time></trkpt>
<trkpt lat="44.15047098" lon="5.31802294"><ele>1414</ele><time>2011-07-05T07:46:13Z</time></trkpt>
<trkpt lat="44.15075295" lon="5.31812897"><ele>1413.599976</ele><time>2011-07-05T07:46:22Z</time></trkpt>
<trkpt lat="44.15102896" lon="5.31829895"><ele>1413.599976</ele><time>2011-07-05T07:46:31Z</time></trkpt>
<trkpt lat="44.15126592" lon="5.31847296"><ele>1413</ele><time>2011-07-05T07:46:39Z</time></trkpt>
<trkpt lat="44.15148594" lon="5.31865192"><ele>1413.199951</ele><time>2011-07-05T07:46:47Z</time></trkpt>
<trkpt lat="44.15170396" lon="5.31881000"><ele>1414</ele><time>2011-07-05T07:46:55Z</time></trkpt>
<trkpt lat="44.15187696" lon="5.31891997"><ele>1414.199951</ele><time>2011-07-05T07:47:02Z</time></trkpt>
<trkpt lat="44.15206295" lon="5.31888896"><ele>1414.400024</ele><time>2011-07-05T07:47:08Z</time></trkpt>
<trkpt lat="44.15223495" lon="5.31880899"><ele>1414.199951</ele><time>2011-07-05T07:47:14Z</time></trkpt>
<trkpt lat="44.15233294" lon="5.31873599"><ele>1415</ele><time>2011-07-05T07:47:20Z</time></trkpt>
<trkpt lat="44.15234299" lon="5.31868192"><ele>1415.199951</ele><time>2011-07-05T07:47:26Z</time></trkpt>
<trkpt lat="44.15234199" lon="5.31868092"><ele>1415.199951</ele><time>2011-07-05T07:47:27Z</time></trkpt>
<trkpt lat="44.15226295" lon="5.31846894"><ele>1416.400024</ele><time>2011-07-05T07:48:53Z</time></trkpt>
<trkpt lat="44.15221894" lon="5.31825797"><ele>1417.400024</ele><time>2011-07-05T07:48:59Z</time></trkpt>
<trkpt lat="44.15212892" lon="5.31792697"><ele>1419.400024</ele><time>2011-07-05T07:49:09Z</time></trkpt>
<trkpt lat="44.15205097" lon="5.31766394"><ele>1421.400024</ele><time>2011-07-05T07:49:18Z</time></trkpt>
<trkpt lat="44.15196497" lon="5.31738399"><ele>1422.800049</ele><time>2011-07-05T07:49:28Z</time></trkpt>
<trkpt lat="44.15187193" lon="5.31712993"><ele>1425</ele><time>2011-07-05T07:49:37Z</time></trkpt>
<trkpt lat="44.15179700" lon="5.31693195"><ele>1427.199951</ele><time>2011-07-05T07:49:44Z</time></trkpt>
<trkpt lat="44.15166498" lon="5.31660992"><ele>1428</ele><time>2011-07-05T07:49:56Z</time></trkpt>
<trkpt lat="44.15158996" lon="5.31639098"><ele>1429.800049</ele><time>2011-07-05T07:50:04Z</time></trkpt>
<trkpt lat="44.15149198" lon="5.31607498"><ele>1431.800049</ele><time>2011-07-05T07:50:15Z</time></trkpt>
<trkpt lat="44.15141495" lon="5.31579092"><ele>1433.199951</ele><time>2011-07-05T07:50:25Z</time></trkpt>
<trkpt lat="44.15134496" lon="5.31551993"><ele>1435</ele><time>2011-07-05T07:50:35Z</time></trkpt>
<trkpt lat="44.15127397" lon="5.31522799"><ele>1436.800049</ele><time>2011-07-05T07:50:46Z</time></trkpt>
<trkpt lat="44.15120197" lon="5.31495592"><ele>1438</ele><time>2011-07-05T07:50:56Z</time></trkpt>
<trkpt lat="44.15108898" lon="5.31471997"><ele>1439.400024</ele><time>2011-07-05T07:51:05Z</time></trkpt>
<trkpt lat="44.15097993" lon="5.31449298"><ele>1440.800049</ele><time>2011-07-05T07:51:14Z</time></trkpt>
<trkpt lat="44.15092897" lon="5.31428193"><ele>1442</ele><time>2011-07-05T07:51:22Z</time></trkpt>
<trkpt lat="44.15095193" lon="5.31413499"><ele>1444.199951</ele><time>2011-07-05T07:51:28Z</time></trkpt>
<trkpt lat="44.15106299" lon="5.31393894"><ele>1445.800049</ele><time>2011-07-05T07:51:38Z</time></trkpt>
<trkpt lat="44.15115595" lon="5.31382998"><ele>1447.599976</ele><time>2011-07-05T07:51:45Z</time></trkpt>
<trkpt lat="44.15129400" lon="5.31370299"><ele>1448.599976</ele><time>2011-07-05T07:51:54Z</time></trkpt>
<trkpt lat="44.15148695" lon="5.31355195"><ele>1450.400024</ele><time>2011-07-05T07:52:05Z</time></trkpt>
<trkpt lat="44.15165693" lon="5.31351297"><ele>1451.800049</ele><time>2011-07-05T07:52:14Z</time></trkpt>
<trkpt lat="44.15180395" lon="5.31351993"><ele>1453.400024</ele><time>2011-07-05T07:52:22Z</time></trkpt>
<trkpt lat="44.15202297" lon="5.31356393"><ele>1455</ele><time>2011-07-05T07:52:34Z</time></trkpt>
<trkpt lat="44.15220494" lon="5.31360995"><ele>1456.800049</ele><time>2011-07-05T07:52:45Z</time></trkpt>
<trkpt lat="44.15235800" lon="5.31367600"><ele>1458.199951</ele><time>2011-07-05T07:52:55Z</time></trkpt>
<trkpt lat="44.15250896" lon="5.31376393"><ele>1459.599976</ele><time>2011-07-05T07:53:05Z</time></trkpt>
<trkpt lat="44.15260895" lon="5.31385596"><ele>1461.599976</ele><time>2011-07-05T07:53:12Z</time></trkpt>
<trkpt lat="44.15270392" lon="5.31395596"><ele>1462</ele><time>2011-07-05T07:53:19Z</time></trkpt>
<trkpt lat="44.15283099" lon="5.31411295"><ele>1463.400024</ele><time>2011-07-05T07:53:29Z</time></trkpt>
<trkpt lat="44.15290894" lon="5.31424396"><ele>1464.400024</ele><time>2011-07-05T07:53:36Z</time></trkpt>
<trkpt lat="44.15304992" lon="5.31439299"><ele>1466.599976</ele><time>2011-07-05T07:53:46Z</time></trkpt>
<trkpt lat="44.15320893" lon="5.31450195"><ele>1467.199951</ele><time>2011-07-05T07:53:56Z</time></trkpt>
<trkpt lat="44.15327892" lon="5.31453799"><ele>1467.599976</ele><time>2011-07-05T07:54:00Z</time></trkpt>
<trkpt lat="44.15331999" lon="5.31457395"><ele>1467.800049</ele><time>2011-07-05T07:54:04Z</time></trkpt>
<trkpt lat="44.15340498" lon="5.31460195"><ele>1469.800049</ele><time>2011-07-05T07:54:10Z</time></trkpt>
<trkpt lat="44.15357094" lon="5.31467797"><ele>1470.800049</ele><time>2011-07-05T07:54:20Z</time></trkpt>
<trkpt lat="44.15370598" lon="5.31474696"><ele>1471.400024</ele><time>2011-07-05T07:54:28Z</time></trkpt>
<trkpt lat="44.15383296" lon="5.31482197"><ele>1473</ele><time>2011-07-05T07:54:36Z</time></trkpt>
<trkpt lat="44.15394000" lon="5.31489800"><ele>1473.800049</ele><time>2011-07-05T07:54:43Z</time></trkpt>
<trkpt lat="44.15406095" lon="5.31498693"><ele>1475</ele><time>2011-07-05T07:54:51Z</time></trkpt>
<trkpt lat="44.15417897" lon="5.31506999"><ele>1476</ele><time>2011-07-05T07:54:59Z</time></trkpt>
<trkpt lat="44.15431492" lon="5.31516697"><ele>1477.199951</ele><time>2011-07-05T07:55:08Z</time></trkpt>
<trkpt lat="44.15444300" lon="5.31525792"><ele>1478.199951</ele><time>2011-07-05T07:55:17Z</time></trkpt>
<trkpt lat="44.15458499" lon="5.31535892"><ele>1479.599976</ele><time>2011-07-05T07:55:27Z</time></trkpt>
<trkpt lat="44.15473293" lon="5.31544793"><ele>1480.400024</ele><time>2011-07-05T07:55:37Z</time></trkpt>
<trkpt lat="44.15489394" lon="5.31549797"><ele>1482.800049</ele><time>2011-07-05T07:55:47Z</time></trkpt>
<trkpt lat="44.15500098" lon="5.31543897"><ele>1484.199951</ele><time>2011-07-05T07:55:53Z</time></trkpt>
<trkpt lat="44.15503493" lon="5.31528994"><ele>1484.400024</ele><time>2011-07-05T07:55:58Z</time></trkpt>
<trkpt lat="44.15496494" lon="5.31509799"><ele>1483.800049</ele><time>2011-07-05T07:56:03Z</time></trkpt>
<trkpt lat="44.15483795" lon="5.31469298"><ele>1484.400024</ele><time>2011-07-05T07:56:12Z</time></trkpt>
<trkpt lat="44.15482094" lon="5.31427799"><ele>1486.599976</ele><time>2011-07-05T07:56:21Z</time></trkpt>
<trkpt lat="44.15482999" lon="5.31397800"><ele>1488.599976</ele><time>2011-07-05T07:56:29Z</time></trkpt>
<trkpt lat="44.15484298" lon="5.31366795"><ele>1489.199951</ele><time>2011-07-05T07:56:38Z</time></trkpt>
<trkpt lat="44.15486997" lon="5.31335095"><ele>1490.199951</ele><time>2011-07-05T07:56:47Z</time></trkpt>
<trkpt lat="44.15489797" lon="5.31297896"><ele>1493.199951</ele><time>2011-07-05T07:56:57Z</time></trkpt>
<trkpt lat="44.15490392" lon="5.31294099"><ele>1493.400024</ele><time>2011-07-05T07:56:58Z</time></trkpt>
<trkpt lat="44.15494993" lon="5.31260798"><ele>1494.800049</ele><time>2011-07-05T07:57:07Z</time></trkpt>
<trkpt lat="44.15503593" lon="5.31240195"><ele>1496</ele><time>2011-07-05T07:57:14Z</time></trkpt>
<trkpt lat="44.15518697" lon="5.31224496"><ele>1497.599976</ele><time>2011-07-05T07:57:22Z</time></trkpt>
<trkpt lat="44.15535495" lon="5.31220992"><ele>1498.400024</ele><time>2011-07-05T07:57:30Z</time></trkpt>
<trkpt lat="44.15551093" lon="5.31226398"><ele>1500.199951</ele><time>2011-07-05T07:57:38Z</time></trkpt>
<trkpt lat="44.15567597" lon="5.31239298"><ele>1501.400024</ele><time>2011-07-05T07:57:47Z</time></trkpt>
<trkpt lat="44.15586700" lon="5.31253195"><ele>1502.599976</ele><time>2011-07-05T07:57:57Z</time></trkpt>
<trkpt lat="44.15606095" lon="5.31268199"><ele>1504.199951</ele><time>2011-07-05T07:58:07Z</time></trkpt>
<trkpt lat="44.15627293" lon="5.31279992"><ele>1505.400024</ele><time>2011-07-05T07:58:17Z</time></trkpt>
<trkpt lat="44.15643093" lon="5.31287293"><ele>1505.599976</ele><time>2011-07-05T07:58:24Z</time></trkpt>
<trkpt lat="44.15664400" lon="5.31296999"><ele>1506</ele><time>2011-07-05T07:58:33Z</time></trkpt>
<trkpt lat="44.15682899" lon="5.31304199"><ele>1507</ele><time>2011-07-05T07:58:41Z</time></trkpt>
<trkpt lat="44.15709796" lon="5.31317493"><ele>1508.599976</ele><time>2011-07-05T07:58:52Z</time></trkpt>
<trkpt lat="44.15727692" lon="5.31331298"><ele>1511.800049</ele><time>2011-07-05T07:59:00Z</time></trkpt>
<trkpt lat="44.15749392" lon="5.31347492"><ele>1514.199951</ele><time>2011-07-05T07:59:10Z</time></trkpt>
<trkpt lat="44.15766693" lon="5.31351398"><ele>1514.800049</ele><time>2011-07-05T07:59:17Z</time></trkpt>
<trkpt lat="44.15782199" lon="5.31341599"><ele>1514.599976</ele><time>2011-07-05T07:59:23Z</time></trkpt>
<trkpt lat="44.15787899" lon="5.31322698"><ele>1513</ele><time>2011-07-05T07:59:28Z</time></trkpt>
<trkpt lat="44.15786600" lon="5.31293697"><ele>1513.400024</ele><time>2011-07-05T07:59:36Z</time></trkpt>
<trkpt lat="44.15785393" lon="5.31269892"><ele>1515.400024</ele><time>2011-07-05T07:59:44Z</time></trkpt>
<trkpt lat="44.15783993" lon="5.31251796"><ele>1519</ele><time>2011-07-05T07:59:51Z</time></trkpt>
<trkpt lat="44.15783498" lon="5.31242299"><ele>1520.800049</ele><time>2011-07-05T07:59:55Z</time></trkpt>
<trkpt lat="44.15782794" lon="5.31223096"><ele>1522.400024</ele><time>2011-07-05T08:00:03Z</time></trkpt>
<trkpt lat="44.15777799" lon="5.31203499"><ele>1522.400024</ele><time>2011-07-05T08:00:12Z</time></trkpt>
<trkpt lat="44.15772493" lon="5.31187599"><ele>1523.199951</ele><time>2011-07-05T08:00:19Z</time></trkpt>
<trkpt lat="44.15765695" lon="5.31171799"><ele>1523.599976</ele><time>2011-07-05T08:00:26Z</time></trkpt>
<trkpt lat="44.15757196" lon="5.31147692"><ele>1525</ele><time>2011-07-05T08:00:36Z</time></trkpt>
<trkpt lat="44.15751798" lon="5.31121499"><ele>1526.400024</ele><time>2011-07-05T08:00:47Z</time></trkpt>
<trkpt lat="44.15748093" lon="5.31101994"><ele>1527.400024</ele><time>2011-07-05T08:00:56Z</time></trkpt>
<trkpt lat="44.15745797" lon="5.31087192"><ele>1527.800049</ele><time>2011-07-05T08:01:03Z</time></trkpt>
<trkpt lat="44.15745193" lon="5.31067193"><ele>1529.400024</ele><time>2011-07-05T08:01:12Z</time></trkpt>
<trkpt lat="44.15747297" lon="5.31035995"><ele>1532.599976</ele><time>2011-07-05T08:01:26Z</time></trkpt>
<trkpt lat="44.15750893" lon="5.31011294"><ele>1533.800049</ele><time>2011-07-05T08:01:37Z</time></trkpt>
<trkpt lat="44.15754497" lon="5.30989098"><ele>1534</ele><time>2011-07-05T08:01:46Z</time></trkpt>
<trkpt lat="44.15759099" lon="5.30967196"><ele>1534.199951</ele><time>2011-07-05T08:01:55Z</time></trkpt>
<trkpt lat="44.15766399" lon="5.30944699"><ele>1537.800049</ele><time>2011-07-05T08:02:05Z</time></trkpt>
<trkpt lat="44.15771898" lon="5.30927994"><ele>1539.199951</ele><time>2011-07-05T08:02:13Z</time></trkpt>
<trkpt lat="44.15778092" lon="5.30912697"><ele>1541.400024</ele><time>2011-07-05T08:02:21Z</time></trkpt>
<trkpt lat="44.15786793" lon="5.30894592"><ele>1542.199951</ele><time>2011-07-05T08:02:30Z</time></trkpt>
<trkpt lat="44.15798100" lon="5.30876295"><ele>1544.400024</ele><time>2011-07-05T08:02:40Z</time></trkpt>
<trkpt lat="44.15811293" lon="5.30860998"><ele>1544.800049</ele><time>2011-07-05T08:02:50Z</time></trkpt>
<trkpt lat="44.15825693" lon="5.30847796"><ele>1545.800049</ele><time>2011-07-05T08:03:00Z</time></trkpt>
<trkpt lat="44.15838299" lon="5.30838693"><ele>1547</ele><time>2011-07-05T08:03:09Z</time></trkpt>
<trkpt lat="44.15853093" lon="5.30830697"><ele>1549</ele><time>2011-07-05T08:03:18Z</time></trkpt>
<trkpt lat="44.15867292" lon="5.30824193"><ele>1550</ele><time>2011-07-05T08:03:27Z</time></trkpt>
<trkpt lat="44.15882899" lon="5.30817797"><ele>1550</ele><time>2011-07-05T08:03:37Z</time></trkpt>
<trkpt lat="44.15895095" lon="5.30814998"><ele>1552</ele><time>2011-07-05T08:03:45Z</time></trkpt>
<trkpt lat="44.15908095" lon="5.30813900"><ele>1553.400024</ele><time>2011-07-05T08:03:53Z</time></trkpt>
<trkpt lat="44.15921096" lon="5.30813799"><ele>1554</ele><time>2011-07-05T08:04:01Z</time></trkpt>
<trkpt lat="44.15922697" lon="5.30814193"><ele>1554.199951</ele><time>2011-07-05T08:04:02Z</time></trkpt>
<trkpt lat="44.15930098" lon="5.30807194"><ele>1555.400024</ele><time>2011-07-05T08:04:08Z</time></trkpt>
<trkpt lat="44.15930995" lon="5.30805996"><ele>1555.199951</ele><time>2011-07-05T08:04:11Z</time></trkpt>
<trkpt lat="44.15936099" lon="5.30807898"><ele>1557.800049</ele><time>2011-07-05T08:05:18Z</time></trkpt>
<trkpt lat="44.15950499" lon="5.30819600"><ele>1559.199951</ele><time>2011-07-05T08:05:25Z</time></trkpt>
<trkpt lat="44.15978596" lon="5.30823899"><ele>1559.599976</ele><time>2011-07-05T08:05:35Z</time></trkpt>
<trkpt lat="44.16007597" lon="5.30826397"><ele>1562.599976</ele><time>2011-07-05T08:05:45Z</time></trkpt>
<trkpt lat="44.16022098" lon="5.30825299"><ele>1562.800049</ele><time>2011-07-05T08:05:51Z</time></trkpt>
<trkpt lat="44.16024394" lon="5.30825492"><ele>1563.400024</ele><time>2011-07-05T08:05:54Z</time></trkpt>
<trkpt lat="44.16033296" lon="5.30806398"><ele>1565.199951</ele><time>2011-07-05T08:07:32Z</time></trkpt>
<trkpt lat="44.16033497" lon="5.30790296"><ele>1565.599976</ele><time>2011-07-05T08:07:37Z</time></trkpt>
<trkpt lat="44.16021796" lon="5.30758697"><ele>1567.599976</ele><time>2011-07-05T08:07:47Z</time></trkpt>
<trkpt lat="44.16009592" lon="5.30733593"><ele>1567.400024</ele><time>2011-07-05T08:07:56Z</time></trkpt>
<trkpt lat="44.15999399" lon="5.30711096"><ele>1568.400024</ele><time>2011-07-05T08:08:05Z</time></trkpt>
<trkpt lat="44.15990800" lon="5.30684592"><ele>1569</ele><time>2011-07-05T08:08:15Z</time></trkpt>
<trkpt lat="44.15986399" lon="5.30664392"><ele>1570.599976</ele><time>2011-07-05T08:08:23Z</time></trkpt>
<trkpt lat="44.15980297" lon="5.30637796"><ele>1571</ele><time>2011-07-05T08:08:34Z</time></trkpt>
<trkpt lat="44.15975394" lon="5.30611292"><ele>1573.599976</ele><time>2011-07-05T08:08:44Z</time></trkpt>
<trkpt lat="44.15970599" lon="5.30586599"><ele>1574.800049</ele><time>2011-07-05T08:08:53Z</time></trkpt>
<trkpt lat="44.15965897" lon="5.30558998"><ele>1575.599976</ele><time>2011-07-05T08:09:03Z</time></trkpt>
<trkpt lat="44.15965092" lon="5.30533793"><ele>1578</ele><time>2011-07-05T08:09:12Z</time></trkpt>
<trkpt lat="44.15965495" lon="5.30528395"><ele>1578.800049</ele><time>2011-07-05T08:09:14Z</time></trkpt>
<trkpt lat="44.15968697" lon="5.30499193"><ele>1579.599976</ele><time>2011-07-05T08:09:25Z</time></trkpt>
<trkpt lat="44.15973499" lon="5.30476092"><ele>1581</ele><time>2011-07-05T08:09:35Z</time></trkpt>
<trkpt lat="44.15977196" lon="5.30459798"><ele>1582</ele><time>2011-07-05T08:09:42Z</time></trkpt>
<trkpt lat="44.15982099" lon="5.30437896"><ele>1582.599976</ele><time>2011-07-05T08:09:50Z</time></trkpt>
<trkpt lat="44.15987598" lon="5.30411895"><ele>1584.400024</ele><time>2011-07-05T08:09:59Z</time></trkpt>
<trkpt lat="44.15992694" lon="5.30386196"><ele>1586</ele><time>2011-07-05T08:10:08Z</time></trkpt>
<trkpt lat="44.15997597" lon="5.30362593"><ele>1589</ele><time>2011-07-05T08:10:17Z</time></trkpt>
<trkpt lat="44.16001596" lon="5.30342896"><ele>1589.199951</ele><time>2011-07-05T08:10:25Z</time></trkpt>
<trkpt lat="44.16007094" lon="5.30320399"><ele>1590.599976</ele><time>2011-07-05T08:10:34Z</time></trkpt>
<trkpt lat="44.16014696" lon="5.30299796"><ele>1591.400024</ele><time>2011-07-05T08:10:43Z</time></trkpt>
<trkpt lat="44.16023196" lon="5.30275899"><ele>1593</ele><time>2011-07-05T08:10:53Z</time></trkpt>
<trkpt lat="44.16030295" lon="5.30258800"><ele>1593.800049</ele><time>2011-07-05T08:11:01Z</time></trkpt>
<trkpt lat="44.16038895" lon="5.30234492"><ele>1595.400024</ele><time>2011-07-05T08:11:12Z</time></trkpt>
<trkpt lat="44.16048300" lon="5.30209900"><ele>1597.599976</ele><time>2011-07-05T08:11:22Z</time></trkpt>
<trkpt lat="44.16061099" lon="5.30181192"><ele>1600.400024</ele><time>2011-07-05T08:11:34Z</time></trkpt>
<trkpt lat="44.16069095" lon="5.30163992"><ele>1600.800049</ele><time>2011-07-05T08:11:42Z</time></trkpt>
<trkpt lat="44.16079899" lon="5.30146399"><ele>1601.400024</ele><time>2011-07-05T08:11:51Z</time></trkpt>
<trkpt lat="44.16090293" lon="5.30132895"><ele>1605.199951</ele><time>2011-07-05T08:11:59Z</time></trkpt>
<trkpt lat="44.16091592" lon="5.30131194"><ele>1605.400024</ele><time>2011-07-05T08:12:00Z</time></trkpt>
<trkpt lat="44.16103796" lon="5.30119493"><ele>1606.199951</ele><time>2011-07-05T08:12:09Z</time></trkpt>
<trkpt lat="44.16113997" lon="5.30110197"><ele>1606.199951</ele><time>2011-07-05T08:12:17Z</time></trkpt>
<trkpt lat="44.16125597" lon="5.30101094"><ele>1607.199951</ele><time>2011-07-05T08:12:26Z</time></trkpt>
<trkpt lat="44.16140894" lon="5.30090399"><ele>1610</ele><time>2011-07-05T08:12:37Z</time></trkpt>
<trkpt lat="44.16151196" lon="5.30084297"><ele>1611</ele><time>2011-07-05T08:12:44Z</time></trkpt>
<trkpt lat="44.16164096" lon="5.30079494"><ele>1611.199951</ele><time>2011-07-05T08:12:52Z</time></trkpt>
<trkpt lat="44.16177892" lon="5.30079796"><ele>1614.599976</ele><time>2011-07-05T08:13:00Z</time></trkpt>
<trkpt lat="44.16189694" lon="5.30087197"><ele>1615.599976</ele><time>2011-07-05T08:13:08Z</time></trkpt>
<trkpt lat="44.16198696" lon="5.30098094"><ele>1618.199951</ele><time>2011-07-05T08:13:16Z</time></trkpt>
<trkpt lat="44.16199593" lon="5.30100097"><ele>1618.400024</ele><time>2011-07-05T08:13:17Z</time></trkpt>
<trkpt lat="44.16208092" lon="5.30115000"><ele>1619.400024</ele><time>2011-07-05T08:13:26Z</time></trkpt>
<trkpt lat="44.16217195" lon="5.30132200"><ele>1620.400024</ele><time>2011-07-05T08:13:36Z</time></trkpt>
<trkpt lat="44.16224697" lon="5.30146399"><ele>1621</ele><time>2011-07-05T08:13:44Z</time></trkpt>
<trkpt lat="44.16235199" lon="5.30164596"><ele>1622.199951</ele><time>2011-07-05T08:13:54Z</time></trkpt>
<trkpt lat="44.16243900" lon="5.30180496"><ele>1624</ele><time>2011-07-05T08:14:02Z</time></trkpt>
<trkpt lat="44.16250194" lon="5.30193999"><ele>1624.800049</ele><time>2011-07-05T08:14:09Z</time></trkpt>
<trkpt lat="44.16259792" lon="5.30210294"><ele>1625</ele><time>2011-07-05T08:14:18Z</time></trkpt>
<trkpt lat="44.16269397" lon="5.30227192"><ele>1625.599976</ele><time>2011-07-05T08:14:27Z</time></trkpt>
<trkpt lat="44.16282699" lon="5.30246194"><ele>1628</ele><time>2011-07-05T08:14:37Z</time></trkpt>
<trkpt lat="44.16297292" lon="5.30257794"><ele>1630.400024</ele><time>2011-07-05T08:14:46Z</time></trkpt>
<trkpt lat="44.16315297" lon="5.30257492"><ele>1630.599976</ele><time>2011-07-05T08:14:54Z</time></trkpt>
<trkpt lat="44.16330895" lon="5.30248599"><ele>1632.400024</ele><time>2011-07-05T08:15:00Z</time></trkpt>
<trkpt lat="44.16352898" lon="5.30233596"><ele>1633</ele><time>2011-07-05T08:15:09Z</time></trkpt>
<trkpt lat="44.16371296" lon="5.30219799"><ele>1636</ele><time>2011-07-05T08:15:17Z</time></trkpt>
<trkpt lat="44.16387096" lon="5.30203094"><ele>1638.599976</ele><time>2011-07-05T08:15:27Z</time></trkpt>
<trkpt lat="44.16394698" lon="5.30191393"><ele>1639.400024</ele><time>2011-07-05T08:15:33Z</time></trkpt>
<trkpt lat="44.16402695" lon="5.30173799"><ele>1640</ele><time>2011-07-05T08:15:41Z</time></trkpt>
<trkpt lat="44.16411596" lon="5.30149592"><ele>1641</ele><time>2011-07-05T08:15:50Z</time></trkpt>
<trkpt lat="44.16420800" lon="5.30120197"><ele>1644</ele><time>2011-07-05T08:16:00Z</time></trkpt>
<trkpt lat="44.16425795" lon="5.30102695"><ele>1643.800049</ele><time>2011-07-05T08:16:07Z</time></trkpt>
<trkpt lat="44.16432593" lon="5.30081699"><ele>1643.400024</ele><time>2011-07-05T08:16:16Z</time></trkpt>
<trkpt lat="44.16440296" lon="5.30059093"><ele>1648</ele><time>2011-07-05T08:16:26Z</time></trkpt>
<trkpt lat="44.16446700" lon="5.30040200"><ele>1649</ele><time>2011-07-05T08:16:34Z</time></trkpt>
<trkpt lat="44.16454998" lon="5.30017292"><ele>1649</ele><time>2011-07-05T08:16:44Z</time></trkpt>
<trkpt lat="44.16457999" lon="5.30010193"><ele>1650.199951</ele><time>2011-07-05T08:16:47Z</time></trkpt>
<trkpt lat="44.16466196" lon="5.29988400"><ele>1651.199951</ele><time>2011-07-05T08:16:56Z</time></trkpt>
<trkpt lat="44.16476296" lon="5.29967998"><ele>1653.199951</ele><time>2011-07-05T08:17:05Z</time></trkpt>
<trkpt lat="44.16487092" lon="5.29944797"><ele>1651.400024</ele><time>2011-07-05T08:17:16Z</time></trkpt>
<trkpt lat="44.16493395" lon="5.29930095"><ele>1654.199951</ele><time>2011-07-05T08:17:23Z</time></trkpt>
<trkpt lat="44.16497896" lon="5.29919693"><ele>1656.400024</ele><time>2011-07-05T08:17:28Z</time></trkpt>
<trkpt lat="44.16503093" lon="5.29909300"><ele>1659.199951</ele><time>2011-07-05T08:17:33Z</time></trkpt>
<trkpt lat="44.16510696" lon="5.29889393"><ele>1659.400024</ele><time>2011-07-05T08:17:42Z</time></trkpt>
<trkpt lat="44.16517896" lon="5.29863895"><ele>1661.599976</ele><time>2011-07-05T08:17:53Z</time></trkpt>
<trkpt lat="44.16521793" lon="5.29846494"><ele>1662.400024</ele><time>2011-07-05T08:18:00Z</time></trkpt>
<trkpt lat="44.16525993" lon="5.29823595"><ele>1664.800049</ele><time>2011-07-05T08:18:09Z</time></trkpt>
<trkpt lat="44.16530494" lon="5.29798893"><ele>1666.599976</ele><time>2011-07-05T08:18:19Z</time></trkpt>
<trkpt lat="44.16535397" lon="5.29777394"><ele>1666.400024</ele><time>2011-07-05T08:18:28Z</time></trkpt>
<trkpt lat="44.16541197" lon="5.29752893"><ele>1667.599976</ele><time>2011-07-05T08:18:38Z</time></trkpt>
<trkpt lat="44.16547593" lon="5.29733296"><ele>1668.599976</ele><time>2011-07-05T08:18:46Z</time></trkpt>
<trkpt lat="44.16554499" lon="5.29719592"><ele>1670.400024</ele><time>2011-07-05T08:18:53Z</time></trkpt>
<trkpt lat="44.16557400" lon="5.29714395"><ele>1671.800049</ele><time>2011-07-05T08:18:56Z</time></trkpt>
<trkpt lat="44.16568195" lon="5.29700993"><ele>1674.400024</ele><time>2011-07-05T08:19:05Z</time></trkpt>
<trkpt lat="44.16580592" lon="5.29689099"><ele>1675</ele><time>2011-07-05T08:19:14Z</time></trkpt>
<trkpt lat="44.16596392" lon="5.29678697"><ele>1676</ele><time>2011-07-05T08:19:24Z</time></trkpt>
<trkpt lat="44.16611999" lon="5.29668898"><ele>1679</ele><time>2011-07-05T08:19:34Z</time></trkpt>
<trkpt lat="44.16623298" lon="5.29661899"><ele>1680.400024</ele><time>2011-07-05T08:19:42Z</time></trkpt>
<trkpt lat="44.16634094" lon="5.29655093"><ele>1680.599976</ele><time>2011-07-05T08:19:50Z</time></trkpt>
<trkpt lat="44.16643993" lon="5.29649695"><ele>1682</ele><time>2011-07-05T08:19:57Z</time></trkpt>
<trkpt lat="44.16657597" lon="5.29641397"><ele>1682.400024</ele><time>2011-07-05T08:20:07Z</time></trkpt>
<trkpt lat="44.16674998" lon="5.29630492"><ele>1684</ele><time>2011-07-05T08:20:19Z</time></trkpt>
<trkpt lat="44.16688794" lon="5.29621297"><ele>1685.199951</ele><time>2011-07-05T08:20:28Z</time></trkpt>
<trkpt lat="44.16695399" lon="5.29614693"><ele>1687.599976</ele><time>2011-07-05T08:20:33Z</time></trkpt>
<trkpt lat="44.16702792" lon="5.29606797"><ele>1689</ele><time>2011-07-05T08:20:39Z</time></trkpt>
<trkpt lat="44.16719992" lon="5.29593495"><ele>1691.800049</ele><time>2011-07-05T08:20:50Z</time></trkpt>
<trkpt lat="44.16730897" lon="5.29581492"><ele>1692.400024</ele><time>2011-07-05T08:20:58Z</time></trkpt>
<trkpt lat="44.16745397" lon="5.29568198"><ele>1691.800049</ele><time>2011-07-05T08:21:08Z</time></trkpt>
<trkpt lat="44.16758096" lon="5.29549498"><ele>1694.599976</ele><time>2011-07-05T08:21:18Z</time></trkpt>
<trkpt lat="44.16768699" lon="5.29525694"><ele>1695.599976</ele><time>2011-07-05T08:21:29Z</time></trkpt>
<trkpt lat="44.16772194" lon="5.29504395"><ele>1697.199951</ele><time>2011-07-05T08:21:37Z</time></trkpt>
<trkpt lat="44.16768699" lon="5.29477498"><ele>1698.199951</ele><time>2011-07-05T08:21:46Z</time></trkpt>
<trkpt lat="44.16761197" lon="5.29461195"><ele>1699</ele><time>2011-07-05T08:21:52Z</time></trkpt>
<trkpt lat="44.16751298" lon="5.29439192"><ele>1701</ele><time>2011-07-05T08:22:01Z</time></trkpt>
<trkpt lat="44.16740393" lon="5.29417500"><ele>1701.599976</ele><time>2011-07-05T08:22:11Z</time></trkpt>
<trkpt lat="44.16733696" lon="5.29402697"><ele>1701.400024</ele><time>2011-07-05T08:22:18Z</time></trkpt>
<trkpt lat="44.16724895" lon="5.29383796"><ele>1702.800049</ele><time>2011-07-05T08:22:27Z</time></trkpt>
<trkpt lat="44.16717192" lon="5.29365792"><ele>1705</ele><time>2011-07-05T08:22:35Z</time></trkpt>
<trkpt lat="44.16711694" lon="5.29347796"><ele>1704.400024</ele><time>2011-07-05T08:22:43Z</time></trkpt>
<trkpt lat="44.16709095" lon="5.29329297"><ele>1705.400024</ele><time>2011-07-05T08:22:51Z</time></trkpt>
<trkpt lat="44.16707796" lon="5.29303992"><ele>1706</ele><time>2011-07-05T08:23:02Z</time></trkpt>
<trkpt lat="44.16707695" lon="5.29294395"><ele>1707.599976</ele><time>2011-07-05T08:23:06Z</time></trkpt>
<trkpt lat="44.16711300" lon="5.29272895"><ele>1708</ele><time>2011-07-05T08:23:15Z</time></trkpt>
<trkpt lat="44.16714292" lon="5.29262896"><ele>1708</ele><time>2011-07-05T08:23:19Z</time></trkpt>
<trkpt lat="44.16713999" lon="5.29245998"><ele>1710</ele><time>2011-07-05T08:23:27Z</time></trkpt>
<trkpt lat="44.16713898" lon="5.29245495"><ele>1710</ele><time>2011-07-05T08:23:28Z</time></trkpt>
<trkpt lat="44.16719900" lon="5.29244992"><ele>1712.599976</ele><time>2011-07-05T08:25:28Z</time></trkpt>
<trkpt lat="44.16727292" lon="5.29236099"><ele>1712</ele><time>2011-07-05T08:25:34Z</time></trkpt>
<trkpt lat="44.16737200" lon="5.29220693"><ele>1712</ele><time>2011-07-05T08:25:42Z</time></trkpt>
<trkpt lat="44.16750192" lon="5.29204893"><ele>1714.400024</ele><time>2011-07-05T08:25:52Z</time></trkpt>
<trkpt lat="44.16761398" lon="5.29195698"><ele>1715.400024</ele><time>2011-07-05T08:26:00Z</time></trkpt>
<trkpt lat="44.16772999" lon="5.29188699"><ele>1715.400024</ele><time>2011-07-05T08:26:08Z</time></trkpt>
<trkpt lat="44.16783392" lon="5.29184500"><ele>1716.599976</ele><time>2011-07-05T08:26:15Z</time></trkpt>
<trkpt lat="44.16794993" lon="5.29179898"><ele>1719</ele><time>2011-07-05T08:26:23Z</time></trkpt>
<trkpt lat="44.16796493" lon="5.29179395"><ele>1719.400024</ele><time>2011-07-05T08:26:24Z</time></trkpt>
<trkpt lat="44.16805395" lon="5.29175498"><ele>1722.199951</ele><time>2011-07-05T08:26:30Z</time></trkpt>
<trkpt lat="44.16810793" lon="5.29173293"><ele>1720.599976</ele><time>2011-07-05T08:26:34Z</time></trkpt>
<trkpt lat="44.16823994" lon="5.29167795"><ele>1723.199951</ele><time>2011-07-05T08:26:43Z</time></trkpt>
<trkpt lat="44.16835000" lon="5.29163092"><ele>1725.199951</ele><time>2011-07-05T08:26:51Z</time></trkpt>
<trkpt lat="44.16836400" lon="5.29162698"><ele>1725.400024</ele><time>2011-07-05T08:26:52Z</time></trkpt>
<trkpt lat="44.16850297" lon="5.29157200"><ele>1725</ele><time>2011-07-05T08:27:02Z</time></trkpt>
<trkpt lat="44.16862199" lon="5.29151693"><ele>1725.800049</ele><time>2011-07-05T08:27:11Z</time></trkpt>
<trkpt lat="44.16872995" lon="5.29147192"><ele>1728.599976</ele><time>2011-07-05T08:27:19Z</time></trkpt>
<trkpt lat="44.16884495" lon="5.29142800"><ele>1731</ele><time>2011-07-05T08:27:28Z</time></trkpt>
<trkpt lat="44.16895794" lon="5.29138098"><ele>1733</ele><time>2011-07-05T08:27:37Z</time></trkpt>
<trkpt lat="44.16904796" lon="5.29134694"><ele>1735.599976</ele><time>2011-07-05T08:27:44Z</time></trkpt>
<trkpt lat="44.16913195" lon="5.29131996"><ele>1737.599976</ele><time>2011-07-05T08:27:51Z</time></trkpt>
<trkpt lat="44.16919598" lon="5.29128995"><ele>1735.599976</ele><time>2011-07-05T08:27:56Z</time></trkpt>
<trkpt lat="44.16925600" lon="5.29125500"><ele>1739.199951</ele><time>2011-07-05T08:28:01Z</time></trkpt>
<trkpt lat="44.16936597" lon="5.29119297"><ele>1741</ele><time>2011-07-05T08:28:10Z</time></trkpt>
<trkpt lat="44.16937695" lon="5.29118299"><ele>1741.199951</ele><time>2011-07-05T08:28:11Z</time></trkpt>
<trkpt lat="44.16946094" lon="5.29110094"><ele>1741.599976</ele><time>2011-07-05T08:28:18Z</time></trkpt>
<trkpt lat="44.16949899" lon="5.29095492"><ele>1741.599976</ele><time>2011-07-05T08:28:23Z</time></trkpt>
<trkpt lat="44.16949295" lon="5.29080296"><ele>1738.599976</ele><time>2011-07-05T08:28:29Z</time></trkpt>
<trkpt lat="44.16948600" lon="5.29078293"><ele>1736.400024</ele><time>2011-07-05T08:28:32Z</time></trkpt>
<trkpt lat="44.16941794" lon="5.29073398"><ele>1733.199951</ele><time>2011-07-05T08:30:06Z</time></trkpt>
<trkpt lat="44.16939497" lon="5.29070992"><ele>1733</ele><time>2011-07-05T08:30:07Z</time></trkpt>
<trkpt lat="44.16919397" lon="5.29046198"><ele>1735.800049</ele><time>2011-07-05T08:30:16Z</time></trkpt>
<trkpt lat="44.16912599" lon="5.29038697"><ele>1737.199951</ele><time>2011-07-05T08:30:19Z</time></trkpt>
<trkpt lat="44.16896196" lon="5.29019393"><ele>1738.800049</ele><time>2011-07-05T08:30:27Z</time></trkpt>
<trkpt lat="44.16877295" lon="5.28996192"><ele>1739.400024</ele><time>2011-07-05T08:30:37Z</time></trkpt>
<trkpt lat="44.16868192" lon="5.28973100"><ele>1741</ele><time>2011-07-05T08:30:45Z</time></trkpt>
<trkpt lat="44.16862392" lon="5.28944492"><ele>1743.800049</ele><time>2011-07-05T08:30:55Z</time></trkpt>
<trkpt lat="44.16861596" lon="5.28917092"><ele>1745</ele><time>2011-07-05T08:31:04Z</time></trkpt>
<trkpt lat="44.16863699" lon="5.28887194"><ele>1747.199951</ele><time>2011-07-05T08:31:14Z</time></trkpt>
<trkpt lat="44.16867899" lon="5.28859693"><ele>1749.599976</ele><time>2011-07-05T08:31:24Z</time></trkpt>
<trkpt lat="44.16872098" lon="5.28833399"><ele>1751.599976</ele><time>2011-07-05T08:31:34Z</time></trkpt>
<trkpt lat="44.16875895" lon="5.28809393"><ele>1753</ele><time>2011-07-05T08:31:43Z</time></trkpt>
<trkpt lat="44.16882299" lon="5.28785295"><ele>1754.800049</ele><time>2011-07-05T08:31:52Z</time></trkpt>
<trkpt lat="44.16888694" lon="5.28762697"><ele>1756</ele><time>2011-07-05T08:32:01Z</time></trkpt>
<trkpt lat="44.16894394" lon="5.28744299"><ele>1757.599976</ele><time>2011-07-05T08:32:09Z</time></trkpt>
<trkpt lat="44.16903094" lon="5.28722992"><ele>1759</ele><time>2011-07-05T08:32:19Z</time></trkpt>
<trkpt lat="44.16913195" lon="5.28697394"><ele>1760.599976</ele><time>2011-07-05T08:32:30Z</time></trkpt>
<trkpt lat="44.16919095" lon="5.28682298"><ele>1762</ele><time>2011-07-05T08:32:37Z</time></trkpt>
<trkpt lat="44.16928793" lon="5.28664595"><ele>1763</ele><time>2011-07-05T08:32:46Z</time></trkpt>
<trkpt lat="44.16936396" lon="5.28651193"><ele>1764.400024</ele><time>2011-07-05T08:32:54Z</time></trkpt>
<trkpt lat="44.16945197" lon="5.28637195"><ele>1766.199951</ele><time>2011-07-05T08:33:03Z</time></trkpt>
<trkpt lat="44.16952992" lon="5.28625796"><ele>1767.199951</ele><time>2011-07-05T08:33:11Z</time></trkpt>
<trkpt lat="44.16960594" lon="5.28616693"><ele>1768.599976</ele><time>2011-07-05T08:33:18Z</time></trkpt>
<trkpt lat="44.16970996" lon="5.28604195"><ele>1770.800049</ele><time>2011-07-05T08:33:27Z</time></trkpt>
<trkpt lat="44.16982597" lon="5.28590893"><ele>1772.599976</ele><time>2011-07-05T08:33:37Z</time></trkpt>
<trkpt lat="44.16995094" lon="5.28578798"><ele>1774.199951</ele><time>2011-07-05T08:33:47Z</time></trkpt>
<trkpt lat="44.17007994" lon="5.28567692"><ele>1776</ele><time>2011-07-05T08:33:57Z</time></trkpt>
<trkpt lat="44.17016795" lon="5.28560593"><ele>1777.199951</ele><time>2011-07-05T08:34:04Z</time></trkpt>
<trkpt lat="44.17025797" lon="5.28552295"><ele>1778.599976</ele><time>2011-07-05T08:34:11Z</time></trkpt>
<trkpt lat="44.17038496" lon="5.28541792"><ele>1781.400024</ele><time>2011-07-05T08:34:20Z</time></trkpt>
<trkpt lat="44.17053793" lon="5.28527099"><ele>1782.800049</ele><time>2011-07-05T08:34:32Z</time></trkpt>
<trkpt lat="44.17067296" lon="5.28511995"><ele>1784.199951</ele><time>2011-07-05T08:34:43Z</time></trkpt>
<trkpt lat="44.17077899" lon="5.28498592"><ele>1785.599976</ele><time>2011-07-05T08:34:52Z</time></trkpt>
<trkpt lat="44.17088192" lon="5.28482197"><ele>1787</ele><time>2011-07-05T08:35:03Z</time></trkpt>
<trkpt lat="44.17098292" lon="5.28468392"><ele>1788.800049</ele><time>2011-07-05T08:35:12Z</time></trkpt>
<trkpt lat="44.17109398" lon="5.28456892"><ele>1791.199951</ele><time>2011-07-05T08:35:20Z</time></trkpt>
<trkpt lat="44.17125793" lon="5.28443900"><ele>1793.199951</ele><time>2011-07-05T08:35:31Z</time></trkpt>
<trkpt lat="44.17138693" lon="5.28438100"><ele>1794.599976</ele><time>2011-07-05T08:35:40Z</time></trkpt>
<trkpt lat="44.17155096" lon="5.28432492"><ele>1796.400024</ele><time>2011-07-05T08:35:51Z</time></trkpt>
<trkpt lat="44.17170896" lon="5.28429500"><ele>1797.599976</ele><time>2011-07-05T08:36:01Z</time></trkpt>
<trkpt lat="44.17185196" lon="5.28426792"><ele>1799.199951</ele><time>2011-07-05T08:36:10Z</time></trkpt>
<trkpt lat="44.17201398" lon="5.28424395"><ele>1801.800049</ele><time>2011-07-05T08:36:20Z</time></trkpt>
<trkpt lat="44.17216997" lon="5.28421696"><ele>1803</ele><time>2011-07-05T08:36:31Z</time></trkpt>
<trkpt lat="44.17230793" lon="5.28419400"><ele>1805.199951</ele><time>2011-07-05T08:36:41Z</time></trkpt>
<trkpt lat="44.17244992" lon="5.28417195"><ele>1806.800049</ele><time>2011-07-05T08:36:52Z</time></trkpt>
<trkpt lat="44.17255595" lon="5.28415896"><ele>1809.599976</ele><time>2011-07-05T08:37:00Z</time></trkpt>
<trkpt lat="44.17270599" lon="5.28412200"><ele>1811</ele><time>2011-07-05T08:37:11Z</time></trkpt>
<trkpt lat="44.17280599" lon="5.28411194"><ele>1814</ele><time>2011-07-05T08:37:18Z</time></trkpt>
<trkpt lat="44.17292300" lon="5.28409299"><ele>1815</ele><time>2011-07-05T08:37:26Z</time></trkpt>
<trkpt lat="44.17306297" lon="5.28405997"><ele>1816.800049</ele><time>2011-07-05T08:37:36Z</time></trkpt>
<trkpt lat="44.17317395" lon="5.28404295"><ele>1819</ele><time>2011-07-05T08:37:45Z</time></trkpt>
<trkpt lat="44.17330395" lon="5.28403600"><ele>1820.400024</ele><time>2011-07-05T08:37:54Z</time></trkpt>
<trkpt lat="44.17341996" lon="5.28401496"><ele>1822</ele><time>2011-07-05T08:38:02Z</time></trkpt>
<trkpt lat="44.17353094" lon="5.28398696"><ele>1825.400024</ele><time>2011-07-05T08:38:11Z</time></trkpt>
<trkpt lat="44.17365097" lon="5.28396492"><ele>1826.800049</ele><time>2011-07-05T08:38:20Z</time></trkpt>
<trkpt lat="44.17369396" lon="5.28396400"><ele>1828.599976</ele><time>2011-07-05T08:38:23Z</time></trkpt>
<trkpt lat="44.17383897" lon="5.28393399"><ele>1834.800049</ele><time>2011-07-05T08:38:33Z</time></trkpt>
<trkpt lat="44.17393796" lon="5.28390398"><ele>1839</ele><time>2011-07-05T08:38:40Z</time></trkpt>
<trkpt lat="44.17405397" lon="5.28386794"><ele>1838.599976</ele><time>2011-07-05T08:38:48Z</time></trkpt>
<trkpt lat="44.17410200" lon="5.28385093"><ele>1838.599976</ele><time>2011-07-05T08:38:54Z</time></trkpt>
<trkpt lat="44.17413100" lon="5.28380692"><ele>1836.599976</ele><time>2011-07-05T08:39:01Z</time></trkpt>
<trkpt lat="44.17423694" lon="5.28370097"><ele>1839</ele><time>2011-07-05T08:39:09Z</time></trkpt>
<trkpt lat="44.17429595" lon="5.28350400"><ele>1842.400024</ele><time>2011-07-05T08:39:18Z</time></trkpt>
<trkpt lat="44.17427894" lon="5.28332697"><ele>1839.800049</ele><time>2011-07-05T08:39:25Z</time></trkpt>
<trkpt lat="44.17425497" lon="5.28315498"><ele>1841.599976</ele><time>2011-07-05T08:39:32Z</time></trkpt>
<trkpt lat="44.17421297" lon="5.28290897"><ele>1842.599976</ele><time>2011-07-05T08:39:43Z</time></trkpt>
<trkpt lat="44.17420199" lon="5.28284292"><ele>1844</ele><time>2011-07-05T08:39:46Z</time></trkpt>
<trkpt lat="44.17417299" lon="5.28270093"><ele>1846</ele><time>2011-07-05T08:39:52Z</time></trkpt>
<trkpt lat="44.17413695" lon="5.28250999"><ele>1846.400024</ele><time>2011-07-05T08:40:00Z</time></trkpt>
<trkpt lat="44.17409998" lon="5.28232793"><ele>1845.400024</ele><time>2011-07-05T08:40:08Z</time></trkpt>
<trkpt lat="44.17407794" lon="5.28222995"><ele>1847</ele><time>2011-07-05T08:40:13Z</time></trkpt>
<trkpt lat="44.17406595" lon="5.28212694"><ele>1843.400024</ele><time>2011-07-05T08:40:18Z</time></trkpt>
<trkpt lat="44.17402798" lon="5.28193499"><ele>1846.400024</ele><time>2011-07-05T08:40:27Z</time></trkpt>
<trkpt lat="44.17399697" lon="5.28174698"><ele>1847</ele><time>2011-07-05T08:40:36Z</time></trkpt>
<trkpt lat="44.17396596" lon="5.28160198"><ele>1848.599976</ele><time>2011-07-05T08:40:43Z</time></trkpt>
<trkpt lat="44.17392497" lon="5.28142294"><ele>1848.400024</ele><time>2011-07-05T08:40:52Z</time></trkpt>
<trkpt lat="44.17388792" lon="5.28122094"><ele>1849.400024</ele><time>2011-07-05T08:41:02Z</time></trkpt>
<trkpt lat="44.17384895" lon="5.28100695"><ele>1850</ele><time>2011-07-05T08:41:12Z</time></trkpt>
<trkpt lat="44.17380695" lon="5.28082799"><ele>1851.400024</ele><time>2011-07-05T08:41:20Z</time></trkpt>
<trkpt lat="44.17375096" lon="5.28062599"><ele>1852.800049</ele><time>2011-07-05T08:41:29Z</time></trkpt>
<trkpt lat="44.17368592" lon="5.28046095"><ele>1854</ele><time>2011-07-05T08:41:37Z</time></trkpt>
<trkpt lat="44.17356798" lon="5.28023598"><ele>1855.599976</ele><time>2011-07-05T08:41:48Z</time></trkpt>
<trkpt lat="44.17345692" lon="5.28002299"><ele>1857.199951</ele><time>2011-07-05T08:41:58Z</time></trkpt>
<trkpt lat="44.17337294" lon="5.27985292"><ele>1860.199951</ele><time>2011-07-05T08:42:07Z</time></trkpt>
<trkpt lat="44.17325794" lon="5.27962192"><ele>1862.400024</ele><time>2011-07-05T08:42:19Z</time></trkpt>
<trkpt lat="44.17316398" lon="5.27945093"><ele>1863.199951</ele><time>2011-07-05T08:42:28Z</time></trkpt>
<trkpt lat="44.17309198" lon="5.27928698"><ele>1865.400024</ele><time>2011-07-05T08:42:36Z</time></trkpt>
<trkpt lat="44.17303196" lon="5.27911892"><ele>1866.800049</ele><time>2011-07-05T08:42:44Z</time></trkpt>
<trkpt lat="44.17298896" lon="5.27895698"><ele>1869.400024</ele><time>2011-07-05T08:42:51Z</time></trkpt>
<trkpt lat="44.17297496" lon="5.27889797"><ele>1869.400024</ele><time>2011-07-05T08:42:54Z</time></trkpt>
<trkpt lat="44.17296600" lon="5.27867795"><ele>1872.800049</ele><time>2011-07-05T08:43:05Z</time></trkpt>
<trkpt lat="44.17296398" lon="5.27865792"><ele>1873</ele><time>2011-07-05T08:43:06Z</time></trkpt>
<trkpt lat="44.17293993" lon="5.27851299"><ele>1873.400024</ele><time>2011-07-05T08:43:13Z</time></trkpt>
<trkpt lat="44.17294797" lon="5.27847293"><ele>1873.599976</ele><time>2011-07-05T08:43:15Z</time></trkpt>
<trkpt lat="44.17292694" lon="5.27837193"><ele>1875.199951</ele><time>2011-07-05T08:43:20Z</time></trkpt>
<trkpt lat="44.17291696" lon="5.27833899"><ele>1875.800049</ele><time>2011-07-05T08:43:24Z</time></trkpt>
<trkpt lat="44.17296994" lon="5.27835994"><ele>1877.800049</ele><time>2011-07-05T08:45:36Z</time></trkpt>
<trkpt lat="44.17300992" lon="5.27826900"><ele>1878</ele><time>2011-07-05T08:45:42Z</time></trkpt>
<trkpt lat="44.17304998" lon="5.27811393"><ele>1877</ele><time>2011-07-05T08:45:50Z</time></trkpt>
<trkpt lat="44.17308695" lon="5.27795794"><ele>1879.199951</ele><time>2011-07-05T08:45:57Z</time></trkpt>
<trkpt lat="44.17313799" lon="5.27780992"><ele>1880.400024</ele><time>2011-07-05T08:46:04Z</time></trkpt>
<trkpt lat="44.17321796" lon="5.27763499"><ele>1881.400024</ele><time>2011-07-05T08:46:13Z</time></trkpt>
<trkpt lat="44.17327998" lon="5.27748898"><ele>1883.599976</ele><time>2011-07-05T08:46:20Z</time></trkpt>
<trkpt lat="44.17332994" lon="5.27732494"><ele>1883.800049</ele><time>2011-07-05T08:46:28Z</time></trkpt>
<trkpt lat="44.17336699" lon="5.27717692"><ele>1885.199951</ele><time>2011-07-05T08:46:35Z</time></trkpt>
<trkpt lat="44.17340194" lon="5.27706494"><ele>1888</ele><time>2011-07-05T08:46:41Z</time></trkpt>
<trkpt lat="44.17342692" lon="5.27704993"><ele>1889</ele><time>2011-07-05T08:46:43Z</time></trkpt>
<trkpt lat="44.17350898" lon="5.27705597"><ele>1890.199951</ele><time>2011-07-05T08:46:48Z</time></trkpt>
<trkpt lat="44.17350395" lon="5.27715496"><ele>1893</ele><time>2011-07-05T08:46:53Z</time></trkpt>
<trkpt lat="44.17349892" lon="5.27723299"><ele>1893</ele><time>2011-07-05T08:46:57Z</time></trkpt>
<trkpt lat="44.17351392" lon="5.27735696"><ele>1893.599976</ele><time>2011-07-05T08:47:03Z</time></trkpt>
<trkpt lat="44.17350294" lon="5.27754396"><ele>1894.199951</ele><time>2011-07-05T08:47:12Z</time></trkpt>
<trkpt lat="44.17350797" lon="5.27766894"><ele>1895.599976</ele><time>2011-07-05T08:47:19Z</time></trkpt>
<trkpt lat="44.17349297" lon="5.27780095"><ele>1896</ele><time>2011-07-05T08:47:26Z</time></trkpt>
<trkpt lat="44.17348593" lon="5.27788695"><ele>1897.199951</ele><time>2011-07-05T08:47:31Z</time></trkpt>
<trkpt lat="44.17349095" lon="5.27801293"><ele>1898.599976</ele><time>2011-07-05T08:47:38Z</time></trkpt>
<trkpt lat="44.17349699" lon="5.27806800"><ele>1898.800049</ele><time>2011-07-05T08:47:41Z</time></trkpt>
<trkpt lat="44.17350294" lon="5.27825198"><ele>1900</ele><time>2011-07-05T08:47:52Z</time></trkpt>
<trkpt lat="44.17351392" lon="5.27842297"><ele>1900.599976</ele><time>2011-07-05T08:48:02Z</time></trkpt>
<trkpt lat="44.17351493" lon="5.27844099"><ele>1901.800049</ele><time>2011-07-05T08:48:05Z</time></trkpt>
<trkpt lat="44.17351300" lon="5.27848693"><ele>1900</ele><time>2011-07-05T08:48:21Z</time></trkpt>
<trkpt lat="44.17351300" lon="5.27848793"><ele>1899.400024</ele><time>2011-07-05T08:48:22Z</time></trkpt>
<trkpt lat="44.17348995" lon="5.27851593"><ele>1900.599976</ele><time>2011-07-05T08:48:36Z</time></trkpt>
<trkpt lat="44.17344997" lon="5.27855096"><ele>1900.800049</ele><time>2011-07-05T08:48:44Z</time></trkpt>
<trkpt lat="44.17344494" lon="5.27847896"><ele>1898.199951</ele><time>2011-07-05T08:50:19Z</time></trkpt>
<trkpt lat="44.17345592" lon="5.27844393"><ele>1897.599976</ele><time>2011-07-05T08:50:25Z</time></trkpt>
<trkpt lat="44.17348299" lon="5.27843798"><ele>1898.199951</ele><time>2011-07-05T08:50:52Z</time></trkpt>
<trkpt lat="44.17349095" lon="5.27840998"><ele>1898.599976</ele><time>2011-07-05T08:51:04Z</time></trkpt>
<trkpt lat="44.17349992" lon="5.27833999"><ele>1898.599976</ele><time>2011-07-05T08:51:10Z</time></trkpt>
<trkpt lat="44.17349297" lon="5.27829498"><ele>1899</ele><time>2011-07-05T08:51:23Z</time></trkpt>
<trkpt lat="44.17350898" lon="5.27814000"><ele>1898.599976</ele><time>2011-07-05T08:51:32Z</time></trkpt>
<trkpt lat="44.17349498" lon="5.27800396"><ele>1897.599976</ele><time>2011-07-05T08:51:40Z</time></trkpt>
<trkpt lat="44.17350797" lon="5.27783196"><ele>1897.400024</ele><time>2011-07-05T08:51:46Z</time></trkpt>
<trkpt lat="44.17352599" lon="5.27762292"><ele>1894.599976</ele><time>2011-07-05T08:51:53Z</time></trkpt>
<trkpt lat="44.17352297" lon="5.27747800"><ele>1893</ele><time>2011-07-05T08:51:58Z</time></trkpt>
<trkpt lat="44.17352398" lon="5.27739694"><ele>1893</ele><time>2011-07-05T08:52:04Z</time></trkpt>
<trkpt lat="44.17348400" lon="5.27725596"><ele>1892.199951</ele><time>2011-07-05T08:52:26Z</time></trkpt>
<trkpt lat="44.17347696" lon="5.27705396"><ele>1892.800049</ele><time>2011-07-05T08:52:30Z</time></trkpt>
<trkpt lat="44.17335793" lon="5.27698196"><ele>1893</ele><time>2011-07-05T08:52:34Z</time></trkpt>
<trkpt lat="44.17328895" lon="5.27711095"><ele>1891.800049</ele><time>2011-07-05T08:52:38Z</time></trkpt>
<trkpt lat="44.17319993" lon="5.27748797"><ele>1886</ele><time>2011-07-05T08:52:44Z</time></trkpt>
<trkpt lat="44.17313498" lon="5.27766894"><ele>1884.599976</ele><time>2011-07-05T08:52:47Z</time></trkpt>
<trkpt lat="44.17308896" lon="5.27778595"><ele>1884</ele><time>2011-07-05T08:52:49Z</time></trkpt>
<trkpt lat="44.17299500" lon="5.27805693"><ele>1882</ele><time>2011-07-05T08:52:54Z</time></trkpt>
<trkpt lat="44.17292492" lon="5.27804998"><ele>1881</ele><time>2011-07-05T08:52:57Z</time></trkpt>
<trkpt lat="44.17292694" lon="5.27793297"><ele>1880</ele><time>2011-07-05T08:53:00Z</time></trkpt>
<trkpt lat="44.17300095" lon="5.27760892"><ele>1878.400024</ele><time>2011-07-05T08:53:07Z</time></trkpt>
<trkpt lat="44.17300992" lon="5.27742393"><ele>1877.800049</ele><time>2011-07-05T08:53:12Z</time></trkpt>
<trkpt lat="44.17300900" lon="5.27739393"><ele>1877.599976</ele><time>2011-07-05T08:53:13Z</time></trkpt>
<trkpt lat="44.17303699" lon="5.27733894"><ele>1877.400024</ele><time>2011-07-05T08:53:17Z</time></trkpt>
<trkpt lat="44.17303699" lon="5.27733793"><ele>1876.800049</ele><time>2011-07-05T08:53:18Z</time></trkpt>
<trkpt lat="44.17308996" lon="5.27736995"><ele>1877.400024</ele><time>2011-07-05T08:53:27Z</time></trkpt>
<trkpt lat="44.17310396" lon="5.27737993"><ele>1877.599976</ele><time>2011-07-05T08:53:31Z</time></trkpt>
<trkpt lat="44.17310094" lon="5.27735193"><ele>1879</ele><time>2011-07-05T08:58:45Z</time></trkpt>
<trkpt lat="44.17310094" lon="5.27734992"><ele>1879</ele><time>2011-07-05T08:58:46Z</time></trkpt>
<trkpt lat="44.17310396" lon="5.27736099"><ele>1876.199951</ele><time>2011-07-05T09:08:04Z</time></trkpt>
<trkpt lat="44.17308594" lon="5.27735193"><ele>1875.800049</ele><time>2011-07-05T09:08:08Z</time></trkpt>
<trkpt lat="44.17303498" lon="5.27733098"><ele>1876.400024</ele><time>2011-07-05T09:08:13Z</time></trkpt>
<trkpt lat="44.17301595" lon="5.27734900"><ele>1876.599976</ele><time>2011-07-05T09:08:17Z</time></trkpt>
<trkpt lat="44.17301293" lon="5.27758394"><ele>1875.199951</ele><time>2011-07-05T09:08:27Z</time></trkpt>
<trkpt lat="44.17298796" lon="5.27772493"><ele>1877</ele><time>2011-07-05T09:08:31Z</time></trkpt>
<trkpt lat="44.17291797" lon="5.27797295"><ele>1877.800049</ele><time>2011-07-05T09:08:39Z</time></trkpt>
<trkpt lat="44.17289995" lon="5.27814796"><ele>1878.400024</ele><time>2011-07-05T09:08:45Z</time></trkpt>
<trkpt lat="44.17292995" lon="5.27841493"><ele>1878.199951</ele><time>2011-07-05T09:08:52Z</time></trkpt>
<trkpt lat="44.17292895" lon="5.27876495"><ele>1876.199951</ele><time>2011-07-05T09:08:57Z</time></trkpt>
<trkpt lat="44.17301293" lon="5.27923392"><ele>1870.800049</ele><time>2011-07-05T09:09:02Z</time></trkpt>
<trkpt lat="44.17308996" lon="5.27941899"><ele>1869.400024</ele><time>2011-07-05T09:09:04Z</time></trkpt>
<trkpt lat="44.17346497" lon="5.28018996"><ele>1863.400024</ele><time>2011-07-05T09:09:12Z</time></trkpt>
<trkpt lat="44.17374493" lon="5.28078692"><ele>1856.800049</ele><time>2011-07-05T09:09:18Z</time></trkpt>
<trkpt lat="44.17389496" lon="5.28150500"><ele>1849.599976</ele><time>2011-07-05T09:09:25Z</time></trkpt>
<trkpt lat="44.17391592" lon="5.28160994"><ele>1849.199951</ele><time>2011-07-05T09:09:26Z</time></trkpt>
<trkpt lat="44.17406595" lon="5.28239993"><ele>1845</ele><time>2011-07-05T09:09:33Z</time></trkpt>
<trkpt lat="44.17419093" lon="5.28311097"><ele>1842.400024</ele><time>2011-07-05T09:09:39Z</time></trkpt>
<trkpt lat="44.17421892" lon="5.28332295"><ele>1842.599976</ele><time>2011-07-05T09:09:41Z</time></trkpt>
<trkpt lat="44.17418397" lon="5.28371899"><ele>1841.400024</ele><time>2011-07-05T09:09:45Z</time></trkpt>
<trkpt lat="44.17401893" lon="5.28398395"><ele>1840.800049</ele><time>2011-07-05T09:09:48Z</time></trkpt>
<trkpt lat="44.17377695" lon="5.28424898"><ele>1838.800049</ele><time>2011-07-05T09:09:52Z</time></trkpt>
<trkpt lat="44.17353898" lon="5.28440899"><ele>1837.599976</ele><time>2011-07-05T09:09:57Z</time></trkpt>
<trkpt lat="44.17332793" lon="5.28453397"><ele>1835.400024</ele><time>2011-07-05T09:10:03Z</time></trkpt>
<trkpt lat="44.17303992" lon="5.28476598"><ele>1837.199951</ele><time>2011-07-05T09:10:11Z</time></trkpt>
<trkpt lat="44.17286793" lon="5.28502699"><ele>1837.400024</ele><time>2011-07-05T09:10:18Z</time></trkpt>
<trkpt lat="44.17268998" lon="5.28534500"><ele>1837.599976</ele><time>2011-07-05T09:10:26Z</time></trkpt>
<trkpt lat="44.17251798" lon="5.28577600"><ele>1837</ele><time>2011-07-05T09:10:35Z</time></trkpt>
<trkpt lat="44.17242092" lon="5.28606400"><ele>1835.800049</ele><time>2011-07-05T09:10:41Z</time></trkpt>
<trkpt lat="44.17226594" lon="5.28653397"><ele>1836</ele><time>2011-07-05T09:10:49Z</time></trkpt>
<trkpt lat="44.17216293" lon="5.28697494"><ele>1835.800049</ele><time>2011-07-05T09:10:56Z</time></trkpt>
<trkpt lat="44.17208598" lon="5.28748197"><ele>1835.199951</ele><time>2011-07-05T09:11:04Z</time></trkpt>
<trkpt lat="44.17204994" lon="5.28788497"><ele>1834.800049</ele><time>2011-07-05T09:11:11Z</time></trkpt>
<trkpt lat="44.17194894" lon="5.28818194"><ele>1835.199951</ele><time>2011-07-05T09:11:17Z</time></trkpt>
<trkpt lat="44.17190795" lon="5.28825394"><ele>1835.199951</ele><time>2011-07-05T09:11:19Z</time></trkpt>
<trkpt lat="44.17173997" lon="5.28850892"><ele>1834.800049</ele><time>2011-07-05T09:11:27Z</time></trkpt>
<trkpt lat="44.17165197" lon="5.28877697"><ele>1834.199951</ele><time>2011-07-05T09:11:34Z</time></trkpt>
<trkpt lat="44.17164895" lon="5.28908098"><ele>1834.400024</ele><time>2011-07-05T09:11:41Z</time></trkpt>
<trkpt lat="44.17171692" lon="5.28950494"><ele>1834.599976</ele><time>2011-07-05T09:11:50Z</time></trkpt>
<trkpt lat="44.17180292" lon="5.28986393"><ele>1837</ele><time>2011-07-05T09:11:58Z</time></trkpt>
<trkpt lat="44.17181600" lon="5.28990299"><ele>1837.199951</ele><time>2011-07-05T09:11:59Z</time></trkpt>
<trkpt lat="44.17188398" lon="5.29015898"><ele>1835.199951</ele><time>2011-07-05T09:12:06Z</time></trkpt>
<trkpt lat="44.17183494" lon="5.29028596"><ele>1835.199951</ele><time>2011-07-05T09:12:10Z</time></trkpt>
<trkpt lat="44.17168398" lon="5.29046693"><ele>1832.800049</ele><time>2011-07-05T09:12:18Z</time></trkpt>
<trkpt lat="44.17163093" lon="5.29053398"><ele>1831.400024</ele><time>2011-07-05T09:12:21Z</time></trkpt>
<trkpt lat="44.17158893" lon="5.29058796"><ele>1830.400024</ele><time>2011-07-05T09:12:25Z</time></trkpt>
<trkpt lat="44.17155700" lon="5.29063499"><ele>1828</ele><time>2011-07-05T09:12:30Z</time></trkpt>
<trkpt lat="44.17150696" lon="5.29070992"><ele>1827</ele><time>2011-07-05T09:12:36Z</time></trkpt>
<trkpt lat="44.17149195" lon="5.29073993"><ele>1826.599976</ele><time>2011-07-05T09:12:40Z</time></trkpt>
<trkpt lat="44.17147100" lon="5.29077899"><ele>1825</ele><time>2011-07-05T09:12:45Z</time></trkpt>
<trkpt lat="44.17141492" lon="5.29085694"><ele>1822</ele><time>2011-07-05T09:12:50Z</time></trkpt>
<trkpt lat="44.17136396" lon="5.29093799"><ele>1820.400024</ele><time>2011-07-05T09:12:55Z</time></trkpt>
<trkpt lat="44.17136396" lon="5.29093900"><ele>1821.400024</ele><time>2011-07-05T09:12:56Z</time></trkpt>
<trkpt lat="44.17130898" lon="5.29101494"><ele>1819.599976</ele><time>2011-07-05T09:13:03Z</time></trkpt>
<trkpt lat="44.17120898" lon="5.29115994"><ele>1816.599976</ele><time>2011-07-05T09:13:10Z</time></trkpt>
<trkpt lat="44.17110899" lon="5.29130797"><ele>1814.800049</ele><time>2011-07-05T09:13:16Z</time></trkpt>
<trkpt lat="44.17096297" lon="5.29149195"><ele>1812.400024</ele><time>2011-07-05T09:13:23Z</time></trkpt>
<trkpt lat="44.17082392" lon="5.29166495"><ele>1811.199951</ele><time>2011-07-05T09:13:30Z</time></trkpt>
<trkpt lat="44.17073792" lon="5.29173000"><ele>1807.599976</ele><time>2011-07-05T09:13:35Z</time></trkpt>
<trkpt lat="44.17065594" lon="5.29180896"><ele>1806.800049</ele><time>2011-07-05T09:13:42Z</time></trkpt>
<trkpt lat="44.17054899" lon="5.29190199"><ele>1805.599976</ele><time>2011-07-05T09:13:48Z</time></trkpt>
<trkpt lat="44.17050599" lon="5.29193100"><ele>1804.599976</ele><time>2011-07-05T09:13:50Z</time></trkpt>
<trkpt lat="44.17039493" lon="5.29202496"><ele>1802.199951</ele><time>2011-07-05T09:13:55Z</time></trkpt>
<trkpt lat="44.17023894" lon="5.29213392"><ele>1797.800049</ele><time>2011-07-05T09:14:01Z</time></trkpt>
<trkpt lat="44.17017298" lon="5.29217793"><ele>1796.400024</ele><time>2011-07-05T09:14:04Z</time></trkpt>
<trkpt lat="44.17006292" lon="5.29227197"><ele>1796.800049</ele><time>2011-07-05T09:14:10Z</time></trkpt>
<trkpt lat="44.16995396" lon="5.29241296"><ele>1796</ele><time>2011-07-05T09:14:17Z</time></trkpt>
<trkpt lat="44.16986897" lon="5.29253894"><ele>1793.800049</ele><time>2011-07-05T09:14:23Z</time></trkpt>
<trkpt lat="44.16976998" lon="5.29266500"><ele>1791.400024</ele><time>2011-07-05T09:14:29Z</time></trkpt>
<trkpt lat="44.16966998" lon="5.29286399"><ele>1789.199951</ele><time>2011-07-05T09:14:35Z</time></trkpt>
<trkpt lat="44.16956194" lon="5.29312994"><ele>1787.599976</ele><time>2011-07-05T09:14:42Z</time></trkpt>
<trkpt lat="44.16947594" lon="5.29341996"><ele>1786</ele><time>2011-07-05T09:14:49Z</time></trkpt>
<trkpt lat="44.16936899" lon="5.29370796"><ele>1784.400024</ele><time>2011-07-05T09:14:56Z</time></trkpt>
<trkpt lat="44.16932800" lon="5.29380594"><ele>1782.599976</ele><time>2011-07-05T09:14:59Z</time></trkpt>
<trkpt lat="44.16923094" lon="5.29399697"><ele>1780</ele><time>2011-07-05T09:15:05Z</time></trkpt>
<trkpt lat="44.16919699" lon="5.29408699"><ele>1778.400024</ele><time>2011-07-05T09:15:08Z</time></trkpt>
<trkpt lat="44.16908693" lon="5.29433300"><ele>1773.400024</ele><time>2011-07-05T09:15:16Z</time></trkpt>
<trkpt lat="44.16906397" lon="5.29439997"><ele>1772.599976</ele><time>2011-07-05T09:15:18Z</time></trkpt>
<trkpt lat="44.16899993" lon="5.29458496"><ele>1768.800049</ele><time>2011-07-05T09:15:24Z</time></trkpt>
<trkpt lat="44.16898694" lon="5.29462494"><ele>1766.599976</ele><time>2011-07-05T09:15:27Z</time></trkpt>
<trkpt lat="44.16898099" lon="5.29465294"><ele>1765.599976</ele><time>2011-07-05T09:15:31Z</time></trkpt>
<trkpt lat="44.16896892" lon="5.29468697"><ele>1764.400024</ele><time>2011-07-05T09:15:36Z</time></trkpt>
<trkpt lat="44.16894394" lon="5.29477296"><ele>1762.800049</ele><time>2011-07-05T09:15:57Z</time></trkpt>
<trkpt lat="44.16894193" lon="5.29483097"><ele>1762.199951</ele><time>2011-07-05T09:16:02Z</time></trkpt>
<trkpt lat="44.16892592" lon="5.29492292"><ele>1760.800049</ele><time>2011-07-05T09:16:07Z</time></trkpt>
<trkpt lat="44.16887898" lon="5.29505996"><ele>1758.599976</ele><time>2011-07-05T09:16:13Z</time></trkpt>
<trkpt lat="44.16886398" lon="5.29509894"><ele>1757.400024</ele><time>2011-07-05T09:16:16Z</time></trkpt>
<trkpt lat="44.16882299" lon="5.29519994"><ele>1755.400024</ele><time>2011-07-05T09:16:23Z</time></trkpt>
<trkpt lat="44.16876993" lon="5.29531100"><ele>1753.400024</ele><time>2011-07-05T09:16:30Z</time></trkpt>
<trkpt lat="44.16876297" lon="5.29532793"><ele>1752.599976</ele><time>2011-07-05T09:16:33Z</time></trkpt>
<trkpt lat="44.16873297" lon="5.29539599"><ele>1751.599976</ele><time>2011-07-05T09:16:38Z</time></trkpt>
<trkpt lat="44.16866197" lon="5.29556598"><ele>1749.800049</ele><time>2011-07-05T09:16:43Z</time></trkpt>
<trkpt lat="44.16860900" lon="5.29564896"><ele>1749.400024</ele><time>2011-07-05T09:16:45Z</time></trkpt>
<trkpt lat="44.16843994" lon="5.29599094"><ele>1746.800049</ele><time>2011-07-05T09:16:51Z</time></trkpt>
<trkpt lat="44.16818798" lon="5.29635094"><ele>1744.599976</ele><time>2011-07-05T09:16:56Z</time></trkpt>
<trkpt lat="44.16797499" lon="5.29669695"><ele>1743.800049</ele><time>2011-07-05T09:17:01Z</time></trkpt>
<trkpt lat="44.16786997" lon="5.29686693"><ele>1744</ele><time>2011-07-05T09:17:05Z</time></trkpt>
<trkpt lat="44.16779696" lon="5.29709098"><ele>1744.400024</ele><time>2011-07-05T09:17:11Z</time></trkpt>
<trkpt lat="44.16770996" lon="5.29747294"><ele>1744.400024</ele><time>2011-07-05T09:17:20Z</time></trkpt>
<trkpt lat="44.16764500" lon="5.29787100"><ele>1743.800049</ele><time>2011-07-05T09:17:29Z</time></trkpt>
<trkpt lat="44.16765698" lon="5.29825095"><ele>1744.400024</ele><time>2011-07-05T09:17:37Z</time></trkpt>
<trkpt lat="44.16766897" lon="5.29857592"><ele>1745.800049</ele><time>2011-07-05T09:17:45Z</time></trkpt>
<trkpt lat="44.16764592" lon="5.29895796"><ele>1748</ele><time>2011-07-05T09:17:55Z</time></trkpt>
<trkpt lat="44.16759697" lon="5.29928595"><ele>1746.599976</ele><time>2011-07-05T09:18:03Z</time></trkpt>
<trkpt lat="44.16754995" lon="5.29957294"><ele>1745.400024</ele><time>2011-07-05T09:18:11Z</time></trkpt>
<trkpt lat="44.16746998" lon="5.29979297"><ele>1744</ele><time>2011-07-05T09:18:18Z</time></trkpt>
<trkpt lat="44.16739295" lon="5.30005700"><ele>1743</ele><time>2011-07-05T09:18:24Z</time></trkpt>
<trkpt lat="44.16737200" lon="5.30010796"><ele>1742.800049</ele><time>2011-07-05T09:18:25Z</time></trkpt>
<trkpt lat="44.16733696" lon="5.30021500"><ele>1742.400024</ele><time>2011-07-05T09:18:27Z</time></trkpt>
<trkpt lat="44.16720897" lon="5.30057198"><ele>1739.599976</ele><time>2011-07-05T09:18:35Z</time></trkpt>
<trkpt lat="44.16711392" lon="5.30079000"><ele>1738.599976</ele><time>2011-07-05T09:18:41Z</time></trkpt>
<trkpt lat="44.16701292" lon="5.30096493"><ele>1737.199951</ele><time>2011-07-05T09:18:47Z</time></trkpt>
<trkpt lat="44.16700093" lon="5.30098697"><ele>1736.400024</ele><time>2011-07-05T09:18:50Z</time></trkpt>
<trkpt lat="44.16698400" lon="5.30103198"><ele>1736.199951</ele><time>2011-07-05T09:18:54Z</time></trkpt>
<trkpt lat="44.16691896" lon="5.30109895"><ele>1735.199951</ele><time>2011-07-05T09:19:02Z</time></trkpt>
<trkpt lat="44.16685492" lon="5.30117397"><ele>1733.599976</ele><time>2011-07-05T09:19:10Z</time></trkpt>
<trkpt lat="44.16684696" lon="5.30117992"><ele>1733.400024</ele><time>2011-07-05T09:19:11Z</time></trkpt>
<trkpt lat="44.16682097" lon="5.30121798"><ele>1732.400024</ele><time>2011-07-05T09:19:15Z</time></trkpt>
<trkpt lat="44.16674495" lon="5.30128595"><ele>1730.400024</ele><time>2011-07-05T09:19:23Z</time></trkpt>
<trkpt lat="44.16669893" lon="5.30131093"><ele>1729</ele><time>2011-07-05T09:19:30Z</time></trkpt>
<trkpt lat="44.16661293" lon="5.30144395"><ele>1727.199951</ele><time>2011-07-05T09:19:39Z</time></trkpt>
<trkpt lat="44.16650095" lon="5.30155795"><ele>1725</ele><time>2011-07-05T09:19:43Z</time></trkpt>
<trkpt lat="44.16634396" lon="5.30177495"><ele>1720.800049</ele><time>2011-07-05T09:19:49Z</time></trkpt>
<trkpt lat="44.16631797" lon="5.30181494"><ele>1720</ele><time>2011-07-05T09:19:50Z</time></trkpt>
<trkpt lat="44.16617992" lon="5.30205893"><ele>1716.599976</ele><time>2011-07-05T09:19:55Z</time></trkpt>
<trkpt lat="44.16600893" lon="5.30233797"><ele>1711.800049</ele><time>2011-07-05T09:20:01Z</time></trkpt>
<trkpt lat="44.16587298" lon="5.30255900"><ele>1709.800049</ele><time>2011-07-05T09:20:05Z</time></trkpt>
<trkpt lat="44.16577893" lon="5.30270996"><ele>1708.599976</ele><time>2011-07-05T09:20:08Z</time></trkpt>
<trkpt lat="44.16558196" lon="5.30306099"><ele>1706.400024</ele><time>2011-07-05T09:20:14Z</time></trkpt>
<trkpt lat="44.16554692" lon="5.30312494"><ele>1705.599976</ele><time>2011-07-05T09:20:15Z</time></trkpt>
<trkpt lat="44.16529194" lon="5.30355695"><ele>1702</ele><time>2011-07-05T09:20:21Z</time></trkpt>
<trkpt lat="44.16524693" lon="5.30364395"><ele>1701.599976</ele><time>2011-07-05T09:20:22Z</time></trkpt>
<trkpt lat="44.16493094" lon="5.30425499"><ele>1699.199951</ele><time>2011-07-05T09:20:29Z</time></trkpt>
<trkpt lat="44.16471393" lon="5.30468993"><ele>1698.599976</ele><time>2011-07-05T09:20:35Z</time></trkpt>
<trkpt lat="44.16458694" lon="5.30494298"><ele>1698.800049</ele><time>2011-07-05T09:20:40Z</time></trkpt>
<trkpt lat="44.16444093" lon="5.30521397"><ele>1699</ele><time>2011-07-05T09:20:46Z</time></trkpt>
<trkpt lat="44.16421998" lon="5.30556399"><ele>1697.400024</ele><time>2011-07-05T09:20:52Z</time></trkpt>
<trkpt lat="44.16391195" lon="5.30591796"><ele>1693.199951</ele><time>2011-07-05T09:20:58Z</time></trkpt>
<trkpt lat="44.16379494" lon="5.30605794"><ele>1692.599976</ele><time>2011-07-05T09:21:01Z</time></trkpt>
<trkpt lat="44.16359997" lon="5.30646295"><ele>1690.599976</ele><time>2011-07-05T09:21:07Z</time></trkpt>
<trkpt lat="44.16344298" lon="5.30704600"><ele>1687.400024</ele><time>2011-07-05T09:21:13Z</time></trkpt>
<trkpt lat="44.16334894" lon="5.30751698"><ele>1682.800049</ele><time>2011-07-05T09:21:19Z</time></trkpt>
<trkpt lat="44.16332496" lon="5.30764899"><ele>1682</ele><time>2011-07-05T09:21:21Z</time></trkpt>
<trkpt lat="44.16324098" lon="5.30812492"><ele>1677.599976</ele><time>2011-07-05T09:21:29Z</time></trkpt>
<trkpt lat="44.16323092" lon="5.30820597"><ele>1676.800049</ele><time>2011-07-05T09:21:31Z</time></trkpt>
<trkpt lat="44.16320099" lon="5.30836992"><ele>1674.800049</ele><time>2011-07-05T09:21:35Z</time></trkpt>
<trkpt lat="44.16315498" lon="5.30855197"><ele>1671.800049</ele><time>2011-07-05T09:21:40Z</time></trkpt>
<trkpt lat="44.16308893" lon="5.30883797"><ele>1665.800049</ele><time>2011-07-05T09:21:46Z</time></trkpt>
<trkpt lat="44.16295893" lon="5.30918992"><ele>1659.800049</ele><time>2011-07-05T09:21:53Z</time></trkpt>
<trkpt lat="44.16288299" lon="5.30926997"><ele>1658.199951</ele><time>2011-07-05T09:21:57Z</time></trkpt>
<trkpt lat="44.16283797" lon="5.30933593"><ele>1657.400024</ele><time>2011-07-05T09:21:59Z</time></trkpt>
<trkpt lat="44.16276296" lon="5.30956895"><ele>1655.800049</ele><time>2011-07-05T09:22:03Z</time></trkpt>
<trkpt lat="44.16261200" lon="5.31004697"><ele>1653.400024</ele><time>2011-07-05T09:22:09Z</time></trkpt>
<trkpt lat="44.16240899" lon="5.31063697"><ele>1650.800049</ele><time>2011-07-05T09:22:16Z</time></trkpt>
<trkpt lat="44.16218293" lon="5.31125698"><ele>1649</ele><time>2011-07-05T09:22:24Z</time></trkpt>
<trkpt lat="44.16197900" lon="5.31176593"><ele>1647.599976</ele><time>2011-07-05T09:22:32Z</time></trkpt>
<trkpt lat="44.16196994" lon="5.31205192"><ele>1648.199951</ele><time>2011-07-05T09:22:37Z</time></trkpt>
<trkpt lat="44.16203893" lon="5.31248795"><ele>1649.199951</ele><time>2011-07-05T09:22:46Z</time></trkpt>
<trkpt lat="44.16210992" lon="5.31291392"><ele>1648.800049</ele><time>2011-07-05T09:22:54Z</time></trkpt>
<trkpt lat="44.16218000" lon="5.31356695"><ele>1649.800049</ele><time>2011-07-05T09:23:05Z</time></trkpt>
<trkpt lat="44.16221797" lon="5.31377692"><ele>1651.400024</ele><time>2011-07-05T09:23:10Z</time></trkpt>
<trkpt lat="44.16222794" lon="5.31384800"><ele>1652.199951</ele><time>2011-07-05T09:23:14Z</time></trkpt>
<trkpt lat="44.16222693" lon="5.31384800"><ele>1652.400024</ele><time>2011-07-05T09:23:15Z</time></trkpt>
<trkpt lat="44.16224697" lon="5.31397297"><ele>1652.599976</ele><time>2011-07-05T09:23:33Z</time></trkpt>
<trkpt lat="44.16227597" lon="5.31422895"><ele>1652.800049</ele><time>2011-07-05T09:23:38Z</time></trkpt>
<trkpt lat="44.16230799" lon="5.31446993"><ele>1653.400024</ele><time>2011-07-05T09:23:44Z</time></trkpt>
<trkpt lat="44.16235199" lon="5.31472893"><ele>1653</ele><time>2011-07-05T09:23:50Z</time></trkpt>
<trkpt lat="44.16231000" lon="5.31488794"><ele>1652</ele><time>2011-07-05T09:23:54Z</time></trkpt>
<trkpt lat="44.16221495" lon="5.31510998"><ele>1652.400024</ele><time>2011-07-05T09:24:00Z</time></trkpt>
<trkpt lat="44.16208193" lon="5.31532698"><ele>1651.199951</ele><time>2011-07-05T09:24:07Z</time></trkpt>
<trkpt lat="44.16195192" lon="5.31553796"><ele>1646</ele><time>2011-07-05T09:24:14Z</time></trkpt>
<trkpt lat="44.16193298" lon="5.31556897"><ele>1645.800049</ele><time>2011-07-05T09:24:15Z</time></trkpt>
<trkpt lat="44.16181899" lon="5.31577298"><ele>1643.199951</ele><time>2011-07-05T09:24:21Z</time></trkpt>
<trkpt lat="44.16168194" lon="5.31602092"><ele>1643</ele><time>2011-07-05T09:24:26Z</time></trkpt>
<trkpt lat="44.16147198" lon="5.31640800"><ele>1642</ele><time>2011-07-05T09:24:31Z</time></trkpt>
<trkpt lat="44.16113092" lon="5.31702893"><ele>1640.400024</ele><time>2011-07-05T09:24:39Z</time></trkpt>
<trkpt lat="44.16105196" lon="5.31716597"><ele>1641.199951</ele><time>2011-07-05T09:24:41Z</time></trkpt>
<trkpt lat="44.16093394" lon="5.31747895"><ele>1640.400024</ele><time>2011-07-05T09:24:46Z</time></trkpt>
<trkpt lat="44.16087200" lon="5.31770200"><ele>1640.599976</ele><time>2011-07-05T09:24:52Z</time></trkpt>
<trkpt lat="44.16079296" lon="5.31799695"><ele>1640</ele><time>2011-07-05T09:24:59Z</time></trkpt>
<trkpt lat="44.16069397" lon="5.31839593"><ele>1639.199951</ele><time>2011-07-05T09:25:07Z</time></trkpt>
<trkpt lat="44.16061593" lon="5.31872199"><ele>1639</ele><time>2011-07-05T09:25:14Z</time></trkpt>
<trkpt lat="44.16061794" lon="5.31900999"><ele>1640</ele><time>2011-07-05T09:25:20Z</time></trkpt>
<trkpt lat="44.16063596" lon="5.31934393"><ele>1642.800049</ele><time>2011-07-05T09:25:28Z</time></trkpt>
<trkpt lat="44.16064099" lon="5.31966294"><ele>1643.800049</ele><time>2011-07-05T09:25:37Z</time></trkpt>
<trkpt lat="44.16063596" lon="5.31990300"><ele>1644.400024</ele><time>2011-07-05T09:25:44Z</time></trkpt>
<trkpt lat="44.16060998" lon="5.32007692"><ele>1644.800049</ele><time>2011-07-05T09:25:49Z</time></trkpt>
<trkpt lat="44.16053195" lon="5.32028899"><ele>1643.400024</ele><time>2011-07-05T09:25:56Z</time></trkpt>
<trkpt lat="44.16049892" lon="5.32036199"><ele>1642</ele><time>2011-07-05T09:26:01Z</time></trkpt>
<trkpt lat="44.16046397" lon="5.32040600"><ele>1641.400024</ele><time>2011-07-05T09:26:08Z</time></trkpt>
<trkpt lat="44.16042692" lon="5.32048596"><ele>1640.400024</ele><time>2011-07-05T09:26:18Z</time></trkpt>
<trkpt lat="44.16039499" lon="5.32057799"><ele>1639</ele><time>2011-07-05T09:26:26Z</time></trkpt>
<trkpt lat="44.16035199" lon="5.32067095"><ele>1638.800049</ele><time>2011-07-05T09:26:32Z</time></trkpt>
<trkpt lat="44.16026800" lon="5.32084093"><ele>1637.400024</ele><time>2011-07-05T09:26:38Z</time></trkpt>
<trkpt lat="44.16016792" lon="5.32101595"><ele>1635.400024</ele><time>2011-07-05T09:26:43Z</time></trkpt>
<trkpt lat="44.16011897" lon="5.32118694"><ele>1632.800049</ele><time>2011-07-05T09:26:48Z</time></trkpt>
<trkpt lat="44.16009399" lon="5.32141493"><ele>1630.800049</ele><time>2011-07-05T09:26:54Z</time></trkpt>
<trkpt lat="44.16006792" lon="5.32172799"><ele>1626.599976</ele><time>2011-07-05T09:27:00Z</time></trkpt>
<trkpt lat="44.16003096" lon="5.32215899"><ele>1623.199951</ele><time>2011-07-05T09:27:07Z</time></trkpt>
<trkpt lat="44.15999399" lon="5.32274396"><ele>1618</ele><time>2011-07-05T09:27:14Z</time></trkpt>
<trkpt lat="44.15995795" lon="5.32320798"><ele>1615.199951</ele><time>2011-07-05T09:27:19Z</time></trkpt>
<trkpt lat="44.15993993" lon="5.32339599"><ele>1616.400024</ele><time>2011-07-05T09:27:23Z</time></trkpt>
<trkpt lat="44.15993398" lon="5.32367192"><ele>1618.400024</ele><time>2011-07-05T09:27:29Z</time></trkpt>
<trkpt lat="44.15991596" lon="5.32391299"><ele>1620.800049</ele><time>2011-07-05T09:27:34Z</time></trkpt>
<trkpt lat="44.15990699" lon="5.32408892"><ele>1622.800049</ele><time>2011-07-05T09:27:38Z</time></trkpt>
<trkpt lat="44.15989693" lon="5.32431800"><ele>1625</ele><time>2011-07-05T09:27:44Z</time></trkpt>
<trkpt lat="44.15987497" lon="5.32456694"><ele>1625.599976</ele><time>2011-07-05T09:27:53Z</time></trkpt>
<trkpt lat="44.15986399" lon="5.32482997"><ele>1625.400024</ele><time>2011-07-05T09:27:59Z</time></trkpt>
<trkpt lat="44.15983499" lon="5.32525593"><ele>1623.800049</ele><time>2011-07-05T09:28:06Z</time></trkpt>
<trkpt lat="44.15982594" lon="5.32531394"><ele>1623.800049</ele><time>2011-07-05T09:28:07Z</time></trkpt>
<trkpt lat="44.15976794" lon="5.32575097"><ele>1623</ele><time>2011-07-05T09:28:15Z</time></trkpt>
<trkpt lat="44.15969593" lon="5.32607594"><ele>1622.199951</ele><time>2011-07-05T09:28:22Z</time></trkpt>
<trkpt lat="44.15962293" lon="5.32631096"><ele>1620.800049</ele><time>2011-07-05T09:28:29Z</time></trkpt>
<trkpt lat="44.15962092" lon="5.32632798"><ele>1619.599976</ele><time>2011-07-05T09:28:32Z</time></trkpt>
<trkpt lat="44.15960994" lon="5.32637299"><ele>1620.400024</ele><time>2011-07-05T09:28:39Z</time></trkpt>
<trkpt lat="44.15959493" lon="5.32640593"><ele>1618.800049</ele><time>2011-07-05T09:28:42Z</time></trkpt>
<trkpt lat="44.15959493" lon="5.32640694"><ele>1618.400024</ele><time>2011-07-05T09:28:43Z</time></trkpt>
<trkpt lat="44.15952997" lon="5.32657692"><ele>1617.599976</ele><time>2011-07-05T09:29:04Z</time></trkpt>
<trkpt lat="44.15945998" lon="5.32667692"><ele>1615.800049</ele><time>2011-07-05T09:29:09Z</time></trkpt>
<trkpt lat="44.15939896" lon="5.32679695"><ele>1614.199951</ele><time>2011-07-05T09:29:15Z</time></trkpt>
<trkpt lat="44.15933593" lon="5.32696593"><ele>1611.599976</ele><time>2011-07-05T09:29:21Z</time></trkpt>
<trkpt lat="44.15931892" lon="5.32704597"><ele>1610.800049</ele><time>2011-07-05T09:29:24Z</time></trkpt>
<trkpt lat="44.15930995" lon="5.32714698"><ele>1608.800049</ele><time>2011-07-05T09:29:28Z</time></trkpt>
<trkpt lat="44.15929193" lon="5.32748292"><ele>1605.599976</ele><time>2011-07-05T09:29:36Z</time></trkpt>
<trkpt lat="44.15927994" lon="5.32770395"><ele>1603.400024</ele><time>2011-07-05T09:29:41Z</time></trkpt>
<trkpt lat="44.15924893" lon="5.32799799"><ele>1600.599976</ele><time>2011-07-05T09:29:47Z</time></trkpt>
<trkpt lat="44.15921599" lon="5.32813998"><ele>1599.199951</ele><time>2011-07-05T09:29:50Z</time></trkpt>
<trkpt lat="44.15916092" lon="5.32836797"><ele>1597.199951</ele><time>2011-07-05T09:29:55Z</time></trkpt>
<trkpt lat="44.15913292" lon="5.32845598"><ele>1596.599976</ele><time>2011-07-05T09:29:57Z</time></trkpt>
<trkpt lat="44.15910493" lon="5.32880399"><ele>1596</ele><time>2011-07-05T09:30:03Z</time></trkpt>
<trkpt lat="44.15900493" lon="5.32917196"><ele>1593.199951</ele><time>2011-07-05T09:30:10Z</time></trkpt>
<trkpt lat="44.15885598" lon="5.32950598"><ele>1588.800049</ele><time>2011-07-05T09:30:17Z</time></trkpt>
<trkpt lat="44.15880796" lon="5.32961695"><ele>1588</ele><time>2011-07-05T09:30:19Z</time></trkpt>
<trkpt lat="44.15871592" lon="5.32988098"><ele>1586.400024</ele><time>2011-07-05T09:30:23Z</time></trkpt>
<trkpt lat="44.15859296" lon="5.33025700"><ele>1585.400024</ele><time>2011-07-05T09:30:29Z</time></trkpt>
<trkpt lat="44.15857293" lon="5.33030192"><ele>1585.400024</ele><time>2011-07-05T09:30:30Z</time></trkpt>
<trkpt lat="44.15851895" lon="5.33047794"><ele>1585.800049</ele><time>2011-07-05T09:30:35Z</time></trkpt>
<trkpt lat="44.15846497" lon="5.33064893"><ele>1586</ele><time>2011-07-05T09:30:40Z</time></trkpt>
<trkpt lat="44.15840093" lon="5.33076293"><ele>1586.199951</ele><time>2011-07-05T09:30:43Z</time></trkpt>
<trkpt lat="44.15827998" lon="5.33080995"><ele>1587</ele><time>2011-07-05T09:30:47Z</time></trkpt>
<trkpt lat="44.15821896" lon="5.33092696"><ele>1587.400024</ele><time>2011-07-05T09:30:51Z</time></trkpt>
<trkpt lat="44.15810999" lon="5.33110692"><ele>1589</ele><time>2011-07-05T09:30:56Z</time></trkpt>
<trkpt lat="44.15802492" lon="5.33124992"><ele>1590.800049</ele><time>2011-07-05T09:31:00Z</time></trkpt>
<trkpt lat="44.15794797" lon="5.33147195"><ele>1593.800049</ele><time>2011-07-05T09:31:07Z</time></trkpt>
<trkpt lat="44.15794395" lon="5.33150297"><ele>1594</ele><time>2011-07-05T09:31:08Z</time></trkpt>
<trkpt lat="44.15791897" lon="5.33174495"><ele>1593.800049</ele><time>2011-07-05T09:31:15Z</time></trkpt>
<trkpt lat="44.15784496" lon="5.33211694"><ele>1595</ele><time>2011-07-05T09:31:24Z</time></trkpt>
<trkpt lat="44.15780297" lon="5.33243394"><ele>1595.400024</ele><time>2011-07-05T09:31:31Z</time></trkpt>
<trkpt lat="44.15778293" lon="5.33281499"><ele>1595.800049</ele><time>2011-07-05T09:31:40Z</time></trkpt>
<trkpt lat="44.15779592" lon="5.33307692"><ele>1596.400024</ele><time>2011-07-05T09:31:47Z</time></trkpt>
<trkpt lat="44.15788092" lon="5.33322595"><ele>1596.199951</ele><time>2011-07-05T09:31:52Z</time></trkpt>
<trkpt lat="44.15800497" lon="5.33336995"><ele>1596</ele><time>2011-07-05T09:31:58Z</time></trkpt>
<trkpt lat="44.15810094" lon="5.33351194"><ele>1595.800049</ele><time>2011-07-05T09:32:03Z</time></trkpt>
<trkpt lat="44.15805694" lon="5.33369098"><ele>1595.599976</ele><time>2011-07-05T09:32:08Z</time></trkpt>
<trkpt lat="44.15787899" lon="5.33402994"><ele>1594.199951</ele><time>2011-07-05T09:32:18Z</time></trkpt>
<trkpt lat="44.15773398" lon="5.33439900"><ele>1593.199951</ele><time>2011-07-05T09:32:28Z</time></trkpt>
<trkpt lat="44.15768595" lon="5.33466797"><ele>1592.800049</ele><time>2011-07-05T09:32:35Z</time></trkpt>
<trkpt lat="44.15762695" lon="5.33498699"><ele>1592</ele><time>2011-07-05T09:32:42Z</time></trkpt>
<trkpt lat="44.15756593" lon="5.33541095"><ele>1590.199951</ele><time>2011-07-05T09:32:49Z</time></trkpt>
<trkpt lat="44.15750599" lon="5.33585393"><ele>1588.800049</ele><time>2011-07-05T09:32:55Z</time></trkpt>
<trkpt lat="44.15745495" lon="5.33628694"><ele>1587</ele><time>2011-07-05T09:33:01Z</time></trkpt>
<trkpt lat="44.15743299" lon="5.33649598"><ele>1586.800049</ele><time>2011-07-05T09:33:05Z</time></trkpt>
<trkpt lat="44.15745696" lon="5.33663898"><ele>1584.199951</ele><time>2011-07-05T09:33:10Z</time></trkpt>
<trkpt lat="44.15748596" lon="5.33672799"><ele>1581.199951</ele><time>2011-07-05T09:33:15Z</time></trkpt>
<trkpt lat="44.15748697" lon="5.33672799"><ele>1581.599976</ele><time>2011-07-05T09:33:16Z</time></trkpt>
<trkpt lat="44.15752796" lon="5.33671794"><ele>1583</ele><time>2011-07-05T09:33:23Z</time></trkpt>
<trkpt lat="44.15759996" lon="5.33671098"><ele>1583.400024</ele><time>2011-07-05T09:33:30Z</time></trkpt>
<trkpt lat="44.15760993" lon="5.33671098"><ele>1583.400024</ele><time>2011-07-05T09:33:32Z</time></trkpt>
<trkpt lat="44.15766894" lon="5.33676295"><ele>1584</ele><time>2011-07-05T09:33:38Z</time></trkpt>
<trkpt lat="44.15778193" lon="5.33682799"><ele>1583.199951</ele><time>2011-07-05T09:33:43Z</time></trkpt>
<trkpt lat="44.15783792" lon="5.33692497"><ele>1582.199951</ele><time>2011-07-05T09:33:47Z</time></trkpt>
<trkpt lat="44.15792693" lon="5.33704793"><ele>1580</ele><time>2011-07-05T09:33:52Z</time></trkpt>
<trkpt lat="44.15799592" lon="5.33721398"><ele>1577.800049</ele><time>2011-07-05T09:33:58Z</time></trkpt>
<trkpt lat="44.15802299" lon="5.33726494"><ele>1577</ele><time>2011-07-05T09:34:00Z</time></trkpt>
<trkpt lat="44.15803699" lon="5.33731498"><ele>1575.800049</ele><time>2011-07-05T09:34:03Z</time></trkpt>
<trkpt lat="44.15804193" lon="5.33731800"><ele>1575.599976</ele><time>2011-07-05T09:34:05Z</time></trkpt>
<trkpt lat="44.15806993" lon="5.33733996"><ele>1575.599976</ele><time>2011-07-05T09:34:11Z</time></trkpt>
<trkpt lat="44.15820396" lon="5.33744800"><ele>1575</ele><time>2011-07-05T09:34:50Z</time></trkpt>
<trkpt lat="44.15830798" lon="5.33754992"><ele>1574.199951</ele><time>2011-07-05T09:34:55Z</time></trkpt>
<trkpt lat="44.15842398" lon="5.33763098"><ele>1574</ele><time>2011-07-05T09:35:00Z</time></trkpt>
<trkpt lat="44.15855692" lon="5.33781999"><ele>1573</ele><time>2011-07-05T09:35:07Z</time></trkpt>
<trkpt lat="44.15870394" lon="5.33790599"><ele>1572</ele><time>2011-07-05T09:35:13Z</time></trkpt>
<trkpt lat="44.15891499" lon="5.33800598"><ele>1569</ele><time>2011-07-05T09:35:19Z</time></trkpt>
<trkpt lat="44.15898993" lon="5.33808896"><ele>1569</ele><time>2011-07-05T09:35:23Z</time></trkpt>
<trkpt lat="44.15902697" lon="5.33827596"><ele>1567.800049</ele><time>2011-07-05T09:35:29Z</time></trkpt>
<trkpt lat="44.15903100" lon="5.33832198"><ele>1567.800049</ele><time>2011-07-05T09:35:31Z</time></trkpt>
<trkpt lat="44.15904298" lon="5.33836397"><ele>1567.199951</ele><time>2011-07-05T09:35:35Z</time></trkpt>
<trkpt lat="44.15903594" lon="5.33828393"><ele>1567.199951</ele><time>2011-07-05T09:35:42Z</time></trkpt>
<trkpt lat="44.15911700" lon="5.33822693"><ele>1568.400024</ele><time>2011-07-05T09:35:48Z</time></trkpt>
<trkpt lat="44.15916997" lon="5.33823699"><ele>1568</ele><time>2011-07-05T09:35:51Z</time></trkpt>
<trkpt lat="44.15918992" lon="5.33825995"><ele>1567</ele><time>2011-07-05T09:35:55Z</time></trkpt>
<trkpt lat="44.15923292" lon="5.33834595"><ele>1566.599976</ele><time>2011-07-05T09:36:10Z</time></trkpt>
<trkpt lat="44.15930199" lon="5.33833296"><ele>1565.800049</ele><time>2011-07-05T09:36:13Z</time></trkpt>
<trkpt lat="44.15934498" lon="5.33835693"><ele>1565</ele><time>2011-07-05T09:36:15Z</time></trkpt>
<trkpt lat="44.15942495" lon="5.33851099"><ele>1562</ele><time>2011-07-05T09:36:22Z</time></trkpt>
<trkpt lat="44.15945294" lon="5.33857092"><ele>1560.199951</ele><time>2011-07-05T09:36:25Z</time></trkpt>
<trkpt lat="44.15945596" lon="5.33866497"><ele>1558.199951</ele><time>2011-07-05T09:36:29Z</time></trkpt>
<trkpt lat="44.15945797" lon="5.33871794"><ele>1557.400024</ele><time>2011-07-05T09:36:31Z</time></trkpt>
<trkpt lat="44.15946292" lon="5.33878097"><ele>1555.599976</ele><time>2011-07-05T09:36:35Z</time></trkpt>
<trkpt lat="44.15953098" lon="5.33879296"><ele>1553</ele><time>2011-07-05T09:36:42Z</time></trkpt>
<trkpt lat="44.15956300" lon="5.33888692"><ele>1550.400024</ele><time>2011-07-05T09:36:50Z</time></trkpt>
<trkpt lat="44.15956694" lon="5.33897200"><ele>1548.400024</ele><time>2011-07-05T09:36:56Z</time></trkpt>
<trkpt lat="44.15956794" lon="5.33900393"><ele>1547.599976</ele><time>2011-07-05T09:36:58Z</time></trkpt>
<trkpt lat="44.15957398" lon="5.33914299"><ele>1544.199951</ele><time>2011-07-05T09:37:06Z</time></trkpt>
<trkpt lat="44.15958194" lon="5.33920694"><ele>1542.199951</ele><time>2011-07-05T09:37:10Z</time></trkpt>
<trkpt lat="44.15958395" lon="5.33920694"><ele>1541.599976</ele><time>2011-07-05T09:37:11Z</time></trkpt>
<trkpt lat="44.15963198" lon="5.33920795"><ele>1541.199951</ele><time>2011-07-05T09:37:25Z</time></trkpt>
<trkpt lat="44.15968596" lon="5.33920493"><ele>1538.599976</ele><time>2011-07-05T09:37:32Z</time></trkpt>
<trkpt lat="44.15975695" lon="5.33924893"><ele>1535.400024</ele><time>2011-07-05T09:37:42Z</time></trkpt>
<trkpt lat="44.15976894" lon="5.33925195"><ele>1535</ele><time>2011-07-05T09:37:43Z</time></trkpt>
<trkpt lat="44.15981798" lon="5.33927894"><ele>1533.199951</ele><time>2011-07-05T09:37:47Z</time></trkpt>
<trkpt lat="44.15985695" lon="5.33930392"><ele>1532.199951</ele><time>2011-07-05T09:37:50Z</time></trkpt>
<trkpt lat="44.15989098" lon="5.33929395"><ele>1530.599976</ele><time>2011-07-05T09:37:55Z</time></trkpt>
<trkpt lat="44.16001998" lon="5.33942898"><ele>1526.599976</ele><time>2011-07-05T09:38:06Z</time></trkpt>
<trkpt lat="44.16009097" lon="5.33958698"><ele>1522.800049</ele><time>2011-07-05T09:38:12Z</time></trkpt>
<trkpt lat="44.16017496" lon="5.33971899"><ele>1519.599976</ele><time>2011-07-05T09:38:17Z</time></trkpt>
<trkpt lat="44.16017496" lon="5.33978999"><ele>1518.599976</ele><time>2011-07-05T09:38:19Z</time></trkpt>
<trkpt lat="44.16016700" lon="5.33982997"><ele>1518</ele><time>2011-07-05T09:38:20Z</time></trkpt>
<trkpt lat="44.16013699" lon="5.33992192"><ele>1516.800049</ele><time>2011-07-05T09:38:22Z</time></trkpt>
<trkpt lat="44.16001193" lon="5.34013499"><ele>1514.599976</ele><time>2011-07-05T09:38:27Z</time></trkpt>
<trkpt lat="44.15975494" lon="5.34030698"><ele>1511.199951</ele><time>2011-07-05T09:38:33Z</time></trkpt>
<trkpt lat="44.15942092" lon="5.34038996"><ele>1508.800049</ele><time>2011-07-05T09:38:39Z</time></trkpt>
<trkpt lat="44.15912194" lon="5.34038896"><ele>1509.199951</ele><time>2011-07-05T09:38:45Z</time></trkpt>
<trkpt lat="44.15880796" lon="5.34038192"><ele>1510</ele><time>2011-07-05T09:38:50Z</time></trkpt>
<trkpt lat="44.15847394" lon="5.34037597"><ele>1510</ele><time>2011-07-05T09:38:56Z</time></trkpt>
<trkpt lat="44.15811695" lon="5.34032199"><ele>1509.199951</ele><time>2011-07-05T09:39:03Z</time></trkpt>
<trkpt lat="44.15793498" lon="5.34030195"><ele>1509.199951</ele><time>2011-07-05T09:39:07Z</time></trkpt>
<trkpt lat="44.15755394" lon="5.34018000"><ele>1508.800049</ele><time>2011-07-05T09:39:15Z</time></trkpt>
<trkpt lat="44.15723694" lon="5.34007195"><ele>1508.400024</ele><time>2011-07-05T09:39:22Z</time></trkpt>
<trkpt lat="44.15689998" lon="5.33984799"><ele>1508.199951</ele><time>2011-07-05T09:39:29Z</time></trkpt>
<trkpt lat="44.15668096" lon="5.33966895"><ele>1507.400024</ele><time>2011-07-05T09:39:34Z</time></trkpt>
<trkpt lat="44.15640193" lon="5.33943292"><ele>1507</ele><time>2011-07-05T09:39:40Z</time></trkpt>
<trkpt lat="44.15629992" lon="5.33936595"><ele>1507</ele><time>2011-07-05T09:39:42Z</time></trkpt>
<trkpt lat="44.15586993" lon="5.33914299"><ele>1505.199951</ele><time>2011-07-05T09:39:50Z</time></trkpt>
<trkpt lat="44.15544899" lon="5.33899697"><ele>1504.599976</ele><time>2011-07-05T09:39:58Z</time></trkpt>
<trkpt lat="44.15523198" lon="5.33896093"><ele>1503.800049</ele><time>2011-07-05T09:40:02Z</time></trkpt>
<trkpt lat="44.15506996" lon="5.33897392"><ele>1503.400024</ele><time>2011-07-05T09:40:05Z</time></trkpt>
<trkpt lat="44.15489897" lon="5.33902497"><ele>1502.800049</ele><time>2011-07-05T09:40:08Z</time></trkpt>
<trkpt lat="44.15454894" lon="5.33916897"><ele>1499</ele><time>2011-07-05T09:40:14Z</time></trkpt>
<trkpt lat="44.15420495" lon="5.33933594"><ele>1496</ele><time>2011-07-05T09:40:19Z</time></trkpt>
<trkpt lat="44.15377194" lon="5.33957499"><ele>1492</ele><time>2011-07-05T09:40:25Z</time></trkpt>
<trkpt lat="44.15339392" lon="5.33977398"><ele>1489.199951</ele><time>2011-07-05T09:40:31Z</time></trkpt>
<trkpt lat="44.15308496" lon="5.33990096"><ele>1485</ele><time>2011-07-05T09:40:36Z</time></trkpt>
<trkpt lat="44.15276796" lon="5.34001496"><ele>1481.400024</ele><time>2011-07-05T09:40:42Z</time></trkpt>
<trkpt lat="44.15258096" lon="5.34007598"><ele>1479.199951</ele><time>2011-07-05T09:40:46Z</time></trkpt>
<trkpt lat="44.15244198" lon="5.34012996"><ele>1477.199951</ele><time>2011-07-05T09:40:49Z</time></trkpt>
<trkpt lat="44.15220997" lon="5.34018796"><ele>1474.400024</ele><time>2011-07-05T09:40:54Z</time></trkpt>
<trkpt lat="44.15200696" lon="5.34025099"><ele>1471.800049</ele><time>2011-07-05T09:40:58Z</time></trkpt>
<trkpt lat="44.15160094" lon="5.34032400"><ele>1466.199951</ele><time>2011-07-05T09:41:05Z</time></trkpt>
<trkpt lat="44.15118495" lon="5.34034495"><ele>1461.800049</ele><time>2011-07-05T09:41:12Z</time></trkpt>
<trkpt lat="44.15081296" lon="5.34032794"><ele>1458</ele><time>2011-07-05T09:41:18Z</time></trkpt>
<trkpt lat="44.15057198" lon="5.34025996"><ele>1455.400024</ele><time>2011-07-05T09:41:22Z</time></trkpt>
<trkpt lat="44.15035196" lon="5.34024898"><ele>1452.199951</ele><time>2011-07-05T09:41:27Z</time></trkpt>
<trkpt lat="44.15018499" lon="5.34020598"><ele>1450</ele><time>2011-07-05T09:41:31Z</time></trkpt>
<trkpt lat="44.15004199" lon="5.34017597"><ele>1447.800049</ele><time>2011-07-05T09:41:35Z</time></trkpt>
<trkpt lat="44.14986296" lon="5.34022995"><ele>1444.800049</ele><time>2011-07-05T09:41:40Z</time></trkpt>
<trkpt lat="44.14958996" lon="5.34034294"><ele>1440</ele><time>2011-07-05T09:41:46Z</time></trkpt>
<trkpt lat="44.14925795" lon="5.34049792"><ele>1434.800049</ele><time>2011-07-05T09:41:51Z</time></trkpt>
<trkpt lat="44.14894598" lon="5.34068199"><ele>1430.400024</ele><time>2011-07-05T09:41:56Z</time></trkpt>
<trkpt lat="44.14858296" lon="5.34085399"><ele>1426.800049</ele><time>2011-07-05T09:42:02Z</time></trkpt>
<trkpt lat="44.14811692" lon="5.34104300"><ele>1422.400024</ele><time>2011-07-05T09:42:09Z</time></trkpt>
<trkpt lat="44.14798298" lon="5.34108893"><ele>1421.599976</ele><time>2011-07-05T09:42:11Z</time></trkpt>
<trkpt lat="44.14772498" lon="5.34117292"><ele>1418.800049</ele><time>2011-07-05T09:42:15Z</time></trkpt>
<trkpt lat="44.14761099" lon="5.34121198"><ele>1417.800049</ele><time>2011-07-05T09:42:17Z</time></trkpt>
<trkpt lat="44.14744000" lon="5.34121692"><ele>1416.199951</ele><time>2011-07-05T09:42:20Z</time></trkpt>
<trkpt lat="44.14713196" lon="5.34108600"><ele>1414.400024</ele><time>2011-07-05T09:42:26Z</time></trkpt>
<trkpt lat="44.14683198" lon="5.34080093"><ele>1412.400024</ele><time>2011-07-05T09:42:32Z</time></trkpt>
<trkpt lat="44.14669099" lon="5.34061695"><ele>1411</ele><time>2011-07-05T09:42:35Z</time></trkpt>
<trkpt lat="44.14657599" lon="5.34036599"><ele>1409</ele><time>2011-07-05T09:42:39Z</time></trkpt>
<trkpt lat="44.14650399" lon="5.34009492"><ele>1406.800049</ele><time>2011-07-05T09:42:45Z</time></trkpt>
<trkpt lat="44.14640400" lon="5.34000498"><ele>1404.800049</ele><time>2011-07-05T09:42:50Z</time></trkpt>
<trkpt lat="44.14631498" lon="5.34001797"><ele>1403.800049</ele><time>2011-07-05T09:42:53Z</time></trkpt>
<trkpt lat="44.14601197" lon="5.34004698"><ele>1399.400024</ele><time>2011-07-05T09:43:00Z</time></trkpt>
<trkpt lat="44.14580896" lon="5.34015594"><ele>1395.199951</ele><time>2011-07-05T09:43:06Z</time></trkpt>
<trkpt lat="44.14572498" lon="5.34020900"><ele>1394</ele><time>2011-07-05T09:43:08Z</time></trkpt>
<trkpt lat="44.14543899" lon="5.34026893"><ele>1390.400024</ele><time>2011-07-05T09:43:13Z</time></trkpt>
<trkpt lat="44.14511092" lon="5.34035996"><ele>1387.400024</ele><time>2011-07-05T09:43:18Z</time></trkpt>
<trkpt lat="44.14495099" lon="5.34047194"><ele>1386.199951</ele><time>2011-07-05T09:43:21Z</time></trkpt>
<trkpt lat="44.14490598" lon="5.34053195"><ele>1385.800049</ele><time>2011-07-05T09:43:22Z</time></trkpt>
<trkpt lat="44.14480196" lon="5.34073999"><ele>1385</ele><time>2011-07-05T09:43:25Z</time></trkpt>
<trkpt lat="44.14456098" lon="5.34110997"><ele>1382.800049</ele><time>2011-07-05T09:43:31Z</time></trkpt>
<trkpt lat="44.14444095" lon="5.34128792"><ele>1381.599976</ele><time>2011-07-05T09:43:34Z</time></trkpt>
<trkpt lat="44.14421892" lon="5.34156896"><ele>1379</ele><time>2011-07-05T09:43:39Z</time></trkpt>
<trkpt lat="44.14398598" lon="5.34181095"><ele>1376.400024</ele><time>2011-07-05T09:43:44Z</time></trkpt>
<trkpt lat="44.14382597" lon="5.34192000"><ele>1374.400024</ele><time>2011-07-05T09:43:48Z</time></trkpt>
<trkpt lat="44.14362196" lon="5.34200792"><ele>1372</ele><time>2011-07-05T09:43:53Z</time></trkpt>
<trkpt lat="44.14358298" lon="5.34202997"><ele>1371.400024</ele><time>2011-07-05T09:43:54Z</time></trkpt>
<trkpt lat="44.14347393" lon="5.34207892"><ele>1370</ele><time>2011-07-05T09:43:57Z</time></trkpt>
<trkpt lat="44.14335592" lon="5.34213399"><ele>1368.199951</ele><time>2011-07-05T09:44:01Z</time></trkpt>
<trkpt lat="44.14331895" lon="5.34213499"><ele>1367.599976</ele><time>2011-07-05T09:44:02Z</time></trkpt>
<trkpt lat="44.14313396" lon="5.34217799"><ele>1365.400024</ele><time>2011-07-05T09:44:06Z</time></trkpt>
<trkpt lat="44.14296993" lon="5.34228696"><ele>1363</ele><time>2011-07-05T09:44:10Z</time></trkpt>
<trkpt lat="44.14286599" lon="5.34241595"><ele>1361.800049</ele><time>2011-07-05T09:44:13Z</time></trkpt>
<trkpt lat="44.14269995" lon="5.34264595"><ele>1359.800049</ele><time>2011-07-05T09:44:17Z</time></trkpt>
<trkpt lat="44.14249292" lon="5.34293194"><ele>1357</ele><time>2011-07-05T09:44:22Z</time></trkpt>
<trkpt lat="44.14241597" lon="5.34303294"><ele>1356.400024</ele><time>2011-07-05T09:44:24Z</time></trkpt>
<trkpt lat="44.14237993" lon="5.34307494"><ele>1355.800049</ele><time>2011-07-05T09:44:25Z</time></trkpt>
<trkpt lat="44.14226795" lon="5.34325699"><ele>1354.199951</ele><time>2011-07-05T09:44:29Z</time></trkpt>
<trkpt lat="44.14221900" lon="5.34334794"><ele>1353.199951</ele><time>2011-07-05T09:44:31Z</time></trkpt>
<trkpt lat="44.14216393" lon="5.34343796"><ele>1352.199951</ele><time>2011-07-05T09:44:33Z</time></trkpt>
<trkpt lat="44.14199998" lon="5.34361498"><ele>1350</ele><time>2011-07-05T09:44:38Z</time></trkpt>
<trkpt lat="44.14181398" lon="5.34366393"><ele>1347</ele><time>2011-07-05T09:44:43Z</time></trkpt>
<trkpt lat="44.14174894" lon="5.34365195"><ele>1346</ele><time>2011-07-05T09:44:46Z</time></trkpt>
<trkpt lat="44.14098292" lon="5.34438897"><ele>1296.599976</ele><time>2011-07-05T09:45:57Z</time></trkpt>
<trkpt lat="44.14098199" lon="5.34438998"><ele>1297.800049</ele><time>2011-07-05T09:45:58Z</time></trkpt>
<trkpt lat="44.14098694" lon="5.34432292"><ele>1302.199951</ele><time>2011-07-05T09:46:03Z</time></trkpt>
<trkpt lat="44.14099700" lon="5.34417599"><ele>1304.800049</ele><time>2011-07-05T09:46:07Z</time></trkpt>
<trkpt lat="44.14094595" lon="5.34405193"><ele>1306.199951</ele><time>2011-07-05T09:46:10Z</time></trkpt>
<trkpt lat="44.14082198" lon="5.34401799"><ele>1305.800049</ele><time>2011-07-05T09:46:14Z</time></trkpt>
<trkpt lat="44.14061093" lon="5.34408295"><ele>1306.199951</ele><time>2011-07-05T09:46:18Z</time></trkpt>
<trkpt lat="44.14021798" lon="5.34419199"><ele>1306</ele><time>2011-07-05T09:46:24Z</time></trkpt>
<trkpt lat="44.14010399" lon="5.34422292"><ele>1305.800049</ele><time>2011-07-05T09:46:26Z</time></trkpt>
<trkpt lat="44.13978196" lon="5.34429694"><ele>1305.199951</ele><time>2011-07-05T09:46:31Z</time></trkpt>
<trkpt lat="44.13950292" lon="5.34432099"><ele>1304.599976</ele><time>2011-07-05T09:46:35Z</time></trkpt>
<trkpt lat="44.13931198" lon="5.34438193"><ele>1304</ele><time>2011-07-05T09:46:38Z</time></trkpt>
<trkpt lat="44.13904494" lon="5.34459692"><ele>1303.800049</ele><time>2011-07-05T09:46:43Z</time></trkpt>
<trkpt lat="44.13893798" lon="5.34468192"><ele>1303.599976</ele><time>2011-07-05T09:46:45Z</time></trkpt>
<trkpt lat="44.13882399" lon="5.34475300"><ele>1303.400024</ele><time>2011-07-05T09:46:47Z</time></trkpt>
<trkpt lat="44.13860195" lon="5.34498199"><ele>1303</ele><time>2011-07-05T09:46:52Z</time></trkpt>
<trkpt lat="44.13850397" lon="5.34510897"><ele>1303</ele><time>2011-07-05T09:46:56Z</time></trkpt>
<trkpt lat="44.13834999" lon="5.34524493"><ele>1303.199951</ele><time>2011-07-05T09:47:00Z</time></trkpt>
<trkpt lat="44.13800097" lon="5.34537795"><ele>1302.199951</ele><time>2011-07-05T09:47:06Z</time></trkpt>
<trkpt lat="44.13782495" lon="5.34545599"><ele>1300.800049</ele><time>2011-07-05T09:47:09Z</time></trkpt>
<trkpt lat="44.13769796" lon="5.34548298"><ele>1300</ele><time>2011-07-05T09:47:11Z</time></trkpt>
<trkpt lat="44.13763292" lon="5.34548499"><ele>1299.400024</ele><time>2011-07-05T09:47:12Z</time></trkpt>
<trkpt lat="44.13733494" lon="5.34558892"><ele>1297.199951</ele><time>2011-07-05T09:47:17Z</time></trkpt>
<trkpt lat="44.13698894" lon="5.34568992"><ele>1295.400024</ele><time>2011-07-05T09:47:22Z</time></trkpt>
<trkpt lat="44.13677696" lon="5.34569294"><ele>1294.199951</ele><time>2011-07-05T09:47:25Z</time></trkpt>
<trkpt lat="44.13653296" lon="5.34575899"><ele>1292.599976</ele><time>2011-07-05T09:47:29Z</time></trkpt>
<trkpt lat="44.13643096" lon="5.34582395"><ele>1291.599976</ele><time>2011-07-05T09:47:31Z</time></trkpt>
<trkpt lat="44.13632895" lon="5.34587692"><ele>1290.800049</ele><time>2011-07-05T09:47:33Z</time></trkpt>
<trkpt lat="44.13627899" lon="5.34590492"><ele>1290.400024</ele><time>2011-07-05T09:47:34Z</time></trkpt>
<trkpt lat="44.13609694" lon="5.34603199"><ele>1288.400024</ele><time>2011-07-05T09:47:38Z</time></trkpt>
<trkpt lat="44.13599493" lon="5.34608999"><ele>1287.199951</ele><time>2011-07-05T09:47:40Z</time></trkpt>
<trkpt lat="44.13566695" lon="5.34640993"><ele>1284.400024</ele><time>2011-07-05T09:47:47Z</time></trkpt>
<trkpt lat="44.13549696" lon="5.34657799"><ele>1280.599976</ele><time>2011-07-05T09:47:51Z</time></trkpt>
<trkpt lat="44.13536897" lon="5.34672299"><ele>1279</ele><time>2011-07-05T09:47:54Z</time></trkpt>
<trkpt lat="44.13524492" lon="5.34691695"><ele>1277.400024</ele><time>2011-07-05T09:47:57Z</time></trkpt>
<trkpt lat="44.13494392" lon="5.34722297"><ele>1274.800049</ele><time>2011-07-05T09:48:02Z</time></trkpt>
<trkpt lat="44.13487695" lon="5.34726497"><ele>1274.199951</ele><time>2011-07-05T09:48:03Z</time></trkpt>
<trkpt lat="44.13453296" lon="5.34746295"><ele>1271.199951</ele><time>2011-07-05T09:48:08Z</time></trkpt>
<trkpt lat="44.13439097" lon="5.34751198"><ele>1270.400024</ele><time>2011-07-05T09:48:10Z</time></trkpt>
<trkpt lat="44.13431696" lon="5.34753595"><ele>1269.800049</ele><time>2011-07-05T09:48:11Z</time></trkpt>
<trkpt lat="44.13389493" lon="5.34779395"><ele>1266</ele><time>2011-07-05T09:48:17Z</time></trkpt>
<trkpt lat="44.13382896" lon="5.34784097"><ele>1265.800049</ele><time>2011-07-05T09:48:18Z</time></trkpt>
<trkpt lat="44.13356896" lon="5.34797399"><ele>1264</ele><time>2011-07-05T09:48:22Z</time></trkpt>
<trkpt lat="44.13330493" lon="5.34804197"><ele>1261.800049</ele><time>2011-07-05T09:48:26Z</time></trkpt>
<trkpt lat="44.13315497" lon="5.34804792"><ele>1260.800049</ele><time>2011-07-05T09:48:28Z</time></trkpt>
<trkpt lat="44.13261794" lon="5.34807097"><ele>1257</ele><time>2011-07-05T09:48:35Z</time></trkpt>
<trkpt lat="44.13213297" lon="5.34808899"><ele>1253.800049</ele><time>2011-07-05T09:48:41Z</time></trkpt>
<trkpt lat="44.13205099" lon="5.34809696"><ele>1253.599976</ele><time>2011-07-05T09:48:42Z</time></trkpt>
<trkpt lat="44.13174497" lon="5.34823693"><ele>1252</ele><time>2011-07-05T09:48:46Z</time></trkpt>
<trkpt lat="44.13154799" lon="5.34842393"><ele>1250.599976</ele><time>2011-07-05T09:48:49Z</time></trkpt>
<trkpt lat="44.13129193" lon="5.34865100"><ele>1249</ele><time>2011-07-05T09:48:53Z</time></trkpt>
<trkpt lat="44.13111700" lon="5.34884294"><ele>1247.199951</ele><time>2011-07-05T09:48:56Z</time></trkpt>
<trkpt lat="44.13087493" lon="5.34912097"><ele>1245.599976</ele><time>2011-07-05T09:49:00Z</time></trkpt>
<trkpt lat="44.13065792" lon="5.34943697"><ele>1243.800049</ele><time>2011-07-05T09:49:04Z</time></trkpt>
<trkpt lat="44.13032600" lon="5.34975397"><ele>1242.599976</ele><time>2011-07-05T09:49:09Z</time></trkpt>
<trkpt lat="44.12992300" lon="5.34995698"><ele>1239.800049</ele><time>2011-07-05T09:49:14Z</time></trkpt>
<trkpt lat="44.12954598" lon="5.35019998"><ele>1237.400024</ele><time>2011-07-05T09:49:19Z</time></trkpt>
<trkpt lat="44.12946694" lon="5.35023300"><ele>1237</ele><time>2011-07-05T09:49:20Z</time></trkpt>
<trkpt lat="44.12909595" lon="5.35048697"><ele>1234.199951</ele><time>2011-07-05T09:49:26Z</time></trkpt>
<trkpt lat="44.12904792" lon="5.35053299"><ele>1233.800049</ele><time>2011-07-05T09:49:27Z</time></trkpt>
<trkpt lat="44.12880292" lon="5.35062393"><ele>1232.400024</ele><time>2011-07-05T09:49:31Z</time></trkpt>
<trkpt lat="44.12852196" lon="5.35078595"><ele>1229.599976</ele><time>2011-07-05T09:49:36Z</time></trkpt>
<trkpt lat="44.12822792" lon="5.35098092"><ele>1227.400024</ele><time>2011-07-05T09:49:41Z</time></trkpt>
<trkpt lat="44.12815198" lon="5.35098092"><ele>1227.199951</ele><time>2011-07-05T09:49:42Z</time></trkpt>
<trkpt lat="44.12777396" lon="5.35093498"><ele>1223.800049</ele><time>2011-07-05T09:49:47Z</time></trkpt>
<trkpt lat="44.12747598" lon="5.35093498"><ele>1222</ele><time>2011-07-05T09:49:51Z</time></trkpt>
<trkpt lat="44.12710894" lon="5.35101696"><ele>1219.599976</ele><time>2011-07-05T09:49:56Z</time></trkpt>
<trkpt lat="44.12703392" lon="5.35104395"><ele>1219</ele><time>2011-07-05T09:49:57Z</time></trkpt>
<trkpt lat="44.12679797" lon="5.35106700"><ele>1217.800049</ele><time>2011-07-05T09:50:00Z</time></trkpt>
<trkpt lat="44.12639095" lon="5.35111193"><ele>1215</ele><time>2011-07-05T09:50:05Z</time></trkpt>
<trkpt lat="44.12606900" lon="5.35119792"><ele>1213.599976</ele><time>2011-07-05T09:50:09Z</time></trkpt>
<trkpt lat="44.12558695" lon="5.35126297"><ele>1212.400024</ele><time>2011-07-05T09:50:15Z</time></trkpt>
<trkpt lat="44.12522293" lon="5.35124495"><ele>1210.800049</ele><time>2011-07-05T09:50:20Z</time></trkpt>
<trkpt lat="44.12486695" lon="5.35112894"><ele>1209.199951</ele><time>2011-07-05T09:50:25Z</time></trkpt>
<trkpt lat="44.12479897" lon="5.35110597"><ele>1209</ele><time>2011-07-05T09:50:26Z</time></trkpt>
<trkpt lat="44.12452597" lon="5.35109298"><ele>1208</ele><time>2011-07-05T09:50:30Z</time></trkpt>
<trkpt lat="44.12394393" lon="5.35105694"><ele>1205.800049</ele><time>2011-07-05T09:50:39Z</time></trkpt>
<trkpt lat="44.12368895" lon="5.35103096"><ele>1204.599976</ele><time>2011-07-05T09:50:43Z</time></trkpt>
<trkpt lat="44.12338897" lon="5.35082493"><ele>1203</ele><time>2011-07-05T09:50:48Z</time></trkpt>
<trkpt lat="44.12313399" lon="5.35067699"><ele>1202.199951</ele><time>2011-07-05T09:50:52Z</time></trkpt>
<trkpt lat="44.12263392" lon="5.35041598"><ele>1199.599976</ele><time>2011-07-05T09:51:00Z</time></trkpt>
<trkpt lat="44.12233293" lon="5.35042997"><ele>1197.800049</ele><time>2011-07-05T09:51:05Z</time></trkpt>
<trkpt lat="44.12199799" lon="5.35054497"><ele>1195.199951</ele><time>2011-07-05T09:51:11Z</time></trkpt>
<trkpt lat="44.12176397" lon="5.35064799"><ele>1193.800049</ele><time>2011-07-05T09:51:15Z</time></trkpt>
<trkpt lat="44.12145199" lon="5.35073499"><ele>1192</ele><time>2011-07-05T09:51:20Z</time></trkpt>
<trkpt lat="44.12108394" lon="5.35075394"><ele>1189</ele><time>2011-07-05T09:51:26Z</time></trkpt>
<trkpt lat="44.12087498" lon="5.35075595"><ele>1187</ele><time>2011-07-05T09:51:31Z</time></trkpt>
<trkpt lat="44.12069695" lon="5.35077992"><ele>1185.599976</ele><time>2011-07-05T09:51:36Z</time></trkpt>
<trkpt lat="44.12040895" lon="5.35075494"><ele>1183.800049</ele><time>2011-07-05T09:51:42Z</time></trkpt>
<trkpt lat="44.12022195" lon="5.35075394"><ele>1182.400024</ele><time>2011-07-05T09:51:45Z</time></trkpt>
<trkpt lat="44.12001793" lon="5.35078998"><ele>1180.599976</ele><time>2011-07-05T09:51:48Z</time></trkpt>
<trkpt lat="44.11974192" lon="5.35075192"><ele>1178.400024</ele><time>2011-07-05T09:51:52Z</time></trkpt>
<trkpt lat="44.11960194" lon="5.35070197"><ele>1177.599976</ele><time>2011-07-05T09:51:54Z</time></trkpt>
<trkpt lat="44.11938099" lon="5.35062594"><ele>1175</ele><time>2011-07-05T09:51:58Z</time></trkpt>
<trkpt lat="44.11930799" lon="5.35063198"><ele>1174</ele><time>2011-07-05T09:52:00Z</time></trkpt>
<trkpt lat="44.11919793" lon="5.35072192"><ele>1173</ele><time>2011-07-05T09:52:03Z</time></trkpt>
<trkpt lat="44.11891798" lon="5.35106197"><ele>1170.400024</ele><time>2011-07-05T09:52:09Z</time></trkpt>
<trkpt lat="44.11880993" lon="5.35117093"><ele>1169.400024</ele><time>2011-07-05T09:52:11Z</time></trkpt>
<trkpt lat="44.11872796" lon="5.35130496"><ele>1168.599976</ele><time>2011-07-05T09:52:13Z</time></trkpt>
<trkpt lat="44.11851095" lon="5.35153496"><ele>1166.599976</ele><time>2011-07-05T09:52:17Z</time></trkpt>
<trkpt lat="44.11839595" lon="5.35166396"><ele>1165.400024</ele><time>2011-07-05T09:52:19Z</time></trkpt>
<trkpt lat="44.11815095" lon="5.35201097"><ele>1161.800049</ele><time>2011-07-05T09:52:24Z</time></trkpt>
<trkpt lat="44.11804894" lon="5.35221892"><ele>1159.800049</ele><time>2011-07-05T09:52:27Z</time></trkpt>
<trkpt lat="44.11785892" lon="5.35244892"><ele>1157</ele><time>2011-07-05T09:52:31Z</time></trkpt>
<trkpt lat="44.11750596" lon="5.35273693"><ele>1152</ele><time>2011-07-05T09:52:37Z</time></trkpt>
<trkpt lat="44.11732592" lon="5.35288394"><ele>1150.199951</ele><time>2011-07-05T09:52:40Z</time></trkpt>
<trkpt lat="44.11710095" lon="5.35316600"><ele>1147</ele><time>2011-07-05T09:52:44Z</time></trkpt>
<trkpt lat="44.11686298" lon="5.35342793"><ele>1143.800049</ele><time>2011-07-05T09:52:48Z</time></trkpt>
<trkpt lat="44.11677397" lon="5.35355592"><ele>1142.199951</ele><time>2011-07-05T09:52:50Z</time></trkpt>
<trkpt lat="44.11663097" lon="5.35371099"><ele>1140.599976</ele><time>2011-07-05T09:52:53Z</time></trkpt>
<trkpt lat="44.11657498" lon="5.35375399"><ele>1140</ele><time>2011-07-05T09:52:54Z</time></trkpt>
<trkpt lat="44.11645194" lon="5.35392900"><ele>1138.400024</ele><time>2011-07-05T09:52:58Z</time></trkpt>
<trkpt lat="44.11641095" lon="5.35403495"><ele>1138.199951</ele><time>2011-07-05T09:53:03Z</time></trkpt>
<trkpt lat="44.11639695" lon="5.35404895"><ele>1138</ele><time>2011-07-05T09:53:06Z</time></trkpt>
<trkpt lat="44.11637994" lon="5.35405800"><ele>1137.800049</ele><time>2011-07-05T09:53:12Z</time></trkpt>
<trkpt lat="44.11637197" lon="5.35405993"><ele>1137.800049</ele><time>2011-07-05T09:53:15Z</time></trkpt>
<trkpt lat="44.11632797" lon="5.35408599"><ele>1137.599976</ele><time>2011-07-05T09:53:27Z</time></trkpt>
<trkpt lat="44.11620299" lon="5.35417593"><ele>1137.400024</ele><time>2011-07-05T09:53:32Z</time></trkpt>
<trkpt lat="44.11607592" lon="5.35428800"><ele>1137.400024</ele><time>2011-07-05T09:53:36Z</time></trkpt>
<trkpt lat="44.11582698" lon="5.35461397"><ele>1136.599976</ele><time>2011-07-05T09:53:44Z</time></trkpt>
<trkpt lat="44.11565498" lon="5.35472696"><ele>1135.800049</ele><time>2011-07-05T09:53:48Z</time></trkpt>
<trkpt lat="44.11545499" lon="5.35472897"><ele>1134.400024</ele><time>2011-07-05T09:53:53Z</time></trkpt>
<trkpt lat="44.11543697" lon="5.35471899"><ele>1133.800049</ele><time>2011-07-05T09:53:55Z</time></trkpt>
<trkpt lat="44.11543194" lon="5.35468698"><ele>1133.800049</ele><time>2011-07-05T09:53:59Z</time></trkpt>
<trkpt lat="44.11526900" lon="5.35471095"><ele>1132.800049</ele><time>2011-07-05T09:54:52Z</time></trkpt>
<trkpt lat="44.11522692" lon="5.35470894"><ele>1132.599976</ele><time>2011-07-05T09:54:53Z</time></trkpt>
<trkpt lat="44.11490195" lon="5.35478194"><ele>1130.800049</ele><time>2011-07-05T09:54:59Z</time></trkpt>
<trkpt lat="44.11483792" lon="5.35480692"><ele>1130.199951</ele><time>2011-07-05T09:55:00Z</time></trkpt>
<trkpt lat="44.11457598" lon="5.35487800"><ele>1128.199951</ele><time>2011-07-05T09:55:04Z</time></trkpt>
<trkpt lat="44.11404792" lon="5.35487699"><ele>1125.400024</ele><time>2011-07-05T09:55:12Z</time></trkpt>
<trkpt lat="44.11370896" lon="5.35482293"><ele>1124.199951</ele><time>2011-07-05T09:55:17Z</time></trkpt>
<trkpt lat="44.11324594" lon="5.35469594"><ele>1122.599976</ele><time>2011-07-05T09:55:24Z</time></trkpt>
<trkpt lat="44.11313497" lon="5.35464800"><ele>1121.800049</ele><time>2011-07-05T09:55:26Z</time></trkpt>
<trkpt lat="44.11272492" lon="5.35457793"><ele>1119.400024</ele><time>2011-07-05T09:55:33Z</time></trkpt>
<trkpt lat="44.11248495" lon="5.35457793"><ele>1117.800049</ele><time>2011-07-05T09:55:37Z</time></trkpt>
<trkpt lat="44.11209796" lon="5.35454499"><ele>1115.199951</ele><time>2011-07-05T09:55:43Z</time></trkpt>
<trkpt lat="44.11191397" lon="5.35452898"><ele>1113.800049</ele><time>2011-07-05T09:55:46Z</time></trkpt>
<trkpt lat="44.11185295" lon="5.35452093"><ele>1113.400024</ele><time>2011-07-05T09:55:47Z</time></trkpt>
<trkpt lat="44.11166394" lon="5.35452495"><ele>1112.599976</ele><time>2011-07-05T09:55:50Z</time></trkpt>
<trkpt lat="44.11120998" lon="5.35451196"><ele>1110.400024</ele><time>2011-07-05T09:55:57Z</time></trkpt>
<trkpt lat="44.11075199" lon="5.35448195"><ele>1107.599976</ele><time>2011-07-05T09:56:04Z</time></trkpt>
<trkpt lat="44.11069097" lon="5.35447692"><ele>1107.199951</ele><time>2011-07-05T09:56:05Z</time></trkpt>
<trkpt lat="44.11030699" lon="5.35441599"><ele>1104.800049</ele><time>2011-07-05T09:56:11Z</time></trkpt>
<trkpt lat="44.11002293" lon="5.35430795"><ele>1103</ele><time>2011-07-05T09:56:16Z</time></trkpt>
<trkpt lat="44.10966796" lon="5.35409898"><ele>1101.199951</ele><time>2011-07-05T09:56:23Z</time></trkpt>
<trkpt lat="44.10956495" lon="5.35402992"><ele>1101</ele><time>2011-07-05T09:56:25Z</time></trkpt>
<trkpt lat="44.10939898" lon="5.35387192"><ele>1100.599976</ele><time>2011-07-05T09:56:29Z</time></trkpt>
<trkpt lat="44.10927493" lon="5.35377393"><ele>1100.199951</ele><time>2011-07-05T09:56:32Z</time></trkpt>
<trkpt lat="44.10898198" lon="5.35355793"><ele>1098.199951</ele><time>2011-07-05T09:56:39Z</time></trkpt>
<trkpt lat="44.10890194" lon="5.35346297"><ele>1097.400024</ele><time>2011-07-05T09:56:43Z</time></trkpt>
<trkpt lat="44.10889096" lon="5.35345492"><ele>1097</ele><time>2011-07-05T09:56:45Z</time></trkpt>
<trkpt lat="44.10881393" lon="5.35338292"><ele>1096.400024</ele><time>2011-07-05T09:56:57Z</time></trkpt>
<trkpt lat="44.10867898" lon="5.35336297"><ele>1096</ele><time>2011-07-05T09:57:01Z</time></trkpt>
<trkpt lat="44.10838796" lon="5.35340798"><ele>1095.400024</ele><time>2011-07-05T09:57:06Z</time></trkpt>
<trkpt lat="44.10795696" lon="5.35345894"><ele>1094.800049</ele><time>2011-07-05T09:57:13Z</time></trkpt>
<trkpt lat="44.10778094" lon="5.35340999"><ele>1094.199951</ele><time>2011-07-05T09:57:16Z</time></trkpt>
<trkpt lat="44.10733896" lon="5.35326599"><ele>1093.199951</ele><time>2011-07-05T09:57:24Z</time></trkpt>
<trkpt lat="44.10704392" lon="5.35310296"><ele>1092.199951</ele><time>2011-07-05T09:57:30Z</time></trkpt>
<trkpt lat="44.10671996" lon="5.35292594"><ele>1090.800049</ele><time>2011-07-05T09:57:36Z</time></trkpt>
<trkpt lat="44.10624898" lon="5.35269493"><ele>1088.800049</ele><time>2011-07-05T09:57:44Z</time></trkpt>
<trkpt lat="44.10601496" lon="5.35244297"><ele>1088.800049</ele><time>2011-07-05T09:57:49Z</time></trkpt>
<trkpt lat="44.10581597" lon="5.35232797"><ele>1088.400024</ele><time>2011-07-05T09:57:53Z</time></trkpt>
<trkpt lat="44.10535295" lon="5.35231699"><ele>1086.199951</ele><time>2011-07-05T09:58:01Z</time></trkpt>
<trkpt lat="44.10500896" lon="5.35224600"><ele>1084.400024</ele><time>2011-07-05T09:58:07Z</time></trkpt>
<trkpt lat="44.10471300" lon="5.35222094"><ele>1082</ele><time>2011-07-05T09:58:12Z</time></trkpt>
<trkpt lat="44.10465793" lon="5.35221700"><ele>1081.400024</ele><time>2011-07-05T09:58:13Z</time></trkpt>
<trkpt lat="44.10449699" lon="5.35218598"><ele>1079.800049</ele><time>2011-07-05T09:58:16Z</time></trkpt>
<trkpt lat="44.10408092" lon="5.35214097"><ele>1076.400024</ele><time>2011-07-05T09:58:23Z</time></trkpt>
<trkpt lat="44.10367892" lon="5.35211097"><ele>1072.599976</ele><time>2011-07-05T09:58:30Z</time></trkpt>
<trkpt lat="44.10336594" lon="5.35212798"><ele>1069.400024</ele><time>2011-07-05T09:58:35Z</time></trkpt>
<trkpt lat="44.10315195" lon="5.35216394"><ele>1066.599976</ele><time>2011-07-05T09:58:39Z</time></trkpt>
<trkpt lat="44.10306796" lon="5.35220593"><ele>1065.199951</ele><time>2011-07-05T09:58:41Z</time></trkpt>
<trkpt lat="44.10294794" lon="5.35223996"><ele>1063.599976</ele><time>2011-07-05T09:58:44Z</time></trkpt>
<trkpt lat="44.10267293" lon="5.35225698"><ele>1060.800049</ele><time>2011-07-05T09:58:49Z</time></trkpt>
<trkpt lat="44.10224092" lon="5.35223393"><ele>1056</ele><time>2011-07-05T09:58:56Z</time></trkpt>
<trkpt lat="44.10217898" lon="5.35222798"><ele>1055.800049</ele><time>2011-07-05T09:58:57Z</time></trkpt>
<trkpt lat="44.10172694" lon="5.35219696"><ele>1052.800049</ele><time>2011-07-05T09:59:04Z</time></trkpt>
<trkpt lat="44.10152494" lon="5.35215598"><ele>1051.599976</ele><time>2011-07-05T09:59:08Z</time></trkpt>
<trkpt lat="44.10128195" lon="5.35225094"><ele>1050.199951</ele><time>2011-07-05T09:59:13Z</time></trkpt>
<trkpt lat="44.10122797" lon="5.35227500"><ele>1049.599976</ele><time>2011-07-05T09:59:14Z</time></trkpt>
<trkpt lat="44.10088196" lon="5.35234096"><ele>1047.199951</ele><time>2011-07-05T09:59:20Z</time></trkpt>
<trkpt lat="44.10071592" lon="5.35237793"><ele>1046.400024</ele><time>2011-07-05T09:59:23Z</time></trkpt>
<trkpt lat="44.10038098" lon="5.35246493"><ele>1045.400024</ele><time>2011-07-05T09:59:29Z</time></trkpt>
<trkpt lat="44.10012499" lon="5.35257993"><ele>1044.599976</ele><time>2011-07-05T09:59:34Z</time></trkpt>
<trkpt lat="44.09998694" lon="5.35265998"><ele>1044.199951</ele><time>2011-07-05T09:59:37Z</time></trkpt>
<trkpt lat="44.09985493" lon="5.35268798"><ele>1043.800049</ele><time>2011-07-05T09:59:40Z</time></trkpt>
<trkpt lat="44.09955000" lon="5.35260994"><ele>1043.800049</ele><time>2011-07-05T09:59:47Z</time></trkpt>
<trkpt lat="44.09918798" lon="5.35264900"><ele>1042.800049</ele><time>2011-07-05T09:59:54Z</time></trkpt>
<trkpt lat="44.09895999" lon="5.35267197"><ele>1041.800049</ele><time>2011-07-05T09:59:59Z</time></trkpt>
<trkpt lat="44.09870996" lon="5.35269694"><ele>1041.800049</ele><time>2011-07-05T10:00:04Z</time></trkpt>
<trkpt lat="44.09838893" lon="5.35273399"><ele>1041.199951</ele><time>2011-07-05T10:00:10Z</time></trkpt>
<trkpt lat="44.09811099" lon="5.35275193"><ele>1039.800049</ele><time>2011-07-05T10:00:15Z</time></trkpt>
<trkpt lat="44.09774797" lon="5.35278998"><ele>1038.400024</ele><time>2011-07-05T10:00:21Z</time></trkpt>
<trkpt lat="44.09725294" lon="5.35286894"><ele>1036.400024</ele><time>2011-07-05T10:00:29Z</time></trkpt>
<trkpt lat="44.09688396" lon="5.35290792"><ele>1034.599976</ele><time>2011-07-05T10:00:35Z</time></trkpt>
<trkpt lat="44.09652195" lon="5.35289694"><ele>1032.400024</ele><time>2011-07-05T10:00:41Z</time></trkpt>
<trkpt lat="44.09631399" lon="5.35283399"><ele>1031.199951</ele><time>2011-07-05T10:00:45Z</time></trkpt>
<trkpt lat="44.09601795" lon="5.35281898"><ele>1029</ele><time>2011-07-05T10:00:52Z</time></trkpt>
<trkpt lat="44.09599598" lon="5.35282100"><ele>1028.400024</ele><time>2011-07-05T10:00:55Z</time></trkpt>
<trkpt lat="44.09589096" lon="5.35283893"><ele>1028</ele><time>2011-07-05T10:01:01Z</time></trkpt>
<trkpt lat="44.09575894" lon="5.35285595"><ele>1027.400024</ele><time>2011-07-05T10:01:04Z</time></trkpt>
<trkpt lat="44.09538595" lon="5.35292393"><ele>1025.400024</ele><time>2011-07-05T10:01:12Z</time></trkpt>
<trkpt lat="44.09507297" lon="5.35295594"><ele>1023.200012</ele><time>2011-07-05T10:01:18Z</time></trkpt>
<trkpt lat="44.09466594" lon="5.35300196"><ele>1019.599976</ele><time>2011-07-05T10:01:26Z</time></trkpt>
<trkpt lat="44.09455497" lon="5.35301898"><ele>1018.799988</ele><time>2011-07-05T10:01:28Z</time></trkpt>
<trkpt lat="44.09433092" lon="5.35306298"><ele>1017</ele><time>2011-07-05T10:01:32Z</time></trkpt>
<trkpt lat="44.09410796" lon="5.35307899"><ele>1015</ele><time>2011-07-05T10:01:36Z</time></trkpt>
<trkpt lat="44.09385592" lon="5.35310699"><ele>1012.599976</ele><time>2011-07-05T10:01:41Z</time></trkpt>
<trkpt lat="44.09366196" lon="5.35315594"><ele>1010.599976</ele><time>2011-07-05T10:01:46Z</time></trkpt>
<trkpt lat="44.09357898" lon="5.35327194"><ele>1009.599976</ele><time>2011-07-05T10:01:50Z</time></trkpt>
<trkpt lat="44.09355794" lon="5.35346892"><ele>1009.599976</ele><time>2011-07-05T10:01:54Z</time></trkpt>
<trkpt lat="44.09348996" lon="5.35389296"><ele>1010.200012</ele><time>2011-07-05T10:02:00Z</time></trkpt>
<trkpt lat="44.09342995" lon="5.35457198"><ele>1010.200012</ele><time>2011-07-05T10:02:08Z</time></trkpt>
<trkpt lat="44.09340296" lon="5.35505192"><ele>1010.200012</ele><time>2011-07-05T10:02:14Z</time></trkpt>
<trkpt lat="44.09341193" lon="5.35525896"><ele>1010.200012</ele><time>2011-07-05T10:02:17Z</time></trkpt>
<trkpt lat="44.09348695" lon="5.35547898"><ele>1010.200012</ele><time>2011-07-05T10:02:21Z</time></trkpt>
<trkpt lat="44.09374494" lon="5.35599195"><ele>1010</ele><time>2011-07-05T10:02:30Z</time></trkpt>
<trkpt lat="44.09380194" lon="5.35610997"><ele>1009.799988</ele><time>2011-07-05T10:02:32Z</time></trkpt>
<trkpt lat="44.09400897" lon="5.35628792"><ele>1008.799988</ele><time>2011-07-05T10:02:37Z</time></trkpt>
<trkpt lat="44.09415498" lon="5.35625196"><ele>1008.200012</ele><time>2011-07-05T10:02:40Z</time></trkpt>
<trkpt lat="44.09420092" lon="5.35622397"><ele>1008</ele><time>2011-07-05T10:02:41Z</time></trkpt>
<trkpt lat="44.09464398" lon="5.35599095"><ele>1006.599976</ele><time>2011-07-05T10:02:49Z</time></trkpt>
<trkpt lat="44.09506995" lon="5.35579892"><ele>1005.400024</ele><time>2011-07-05T10:02:57Z</time></trkpt>
<trkpt lat="44.09521697" lon="5.35574997"><ele>1005</ele><time>2011-07-05T10:03:00Z</time></trkpt>
<trkpt lat="44.09559893" lon="5.35574494"><ele>1003.400024</ele><time>2011-07-05T10:03:07Z</time></trkpt>
<trkpt lat="44.09601292" lon="5.35577696"><ele>1002.200012</ele><time>2011-07-05T10:03:13Z</time></trkpt>
<trkpt lat="44.09650393" lon="5.35581996"><ele>1002</ele><time>2011-07-05T10:03:20Z</time></trkpt>
<trkpt lat="44.09685194" lon="5.35586497"><ele>1001.799988</ele><time>2011-07-05T10:03:26Z</time></trkpt>
<trkpt lat="44.09717197" lon="5.35590998"><ele>1000.599976</ele><time>2011-07-05T10:03:32Z</time></trkpt>
<trkpt lat="44.09757698" lon="5.35592599"><ele>999.599976</ele><time>2011-07-05T10:03:39Z</time></trkpt>
<trkpt lat="44.09785098" lon="5.35594795"><ele>999.400024</ele><time>2011-07-05T10:03:44Z</time></trkpt>
<trkpt lat="44.09796196" lon="5.35597695"><ele>999</ele><time>2011-07-05T10:03:47Z</time></trkpt>
<trkpt lat="44.09797294" lon="5.35614098"><ele>998.200012</ele><time>2011-07-05T10:03:51Z</time></trkpt>
<trkpt lat="44.09790798" lon="5.35624400"><ele>998.200012</ele><time>2011-07-05T10:03:53Z</time></trkpt>
<trkpt lat="44.09764999" lon="5.35655497"><ele>999</ele><time>2011-07-05T10:03:59Z</time></trkpt>
<trkpt lat="44.09734899" lon="5.35690893"><ele>997.799988</ele><time>2011-07-05T10:04:06Z</time></trkpt>
<trkpt lat="44.09697499" lon="5.35733398"><ele>996.200012</ele><time>2011-07-05T10:04:15Z</time></trkpt>
<trkpt lat="44.09676997" lon="5.35767294"><ele>994.799988</ele><time>2011-07-05T10:04:21Z</time></trkpt>
<trkpt lat="44.09652798" lon="5.35816496"><ele>993.200012</ele><time>2011-07-05T10:04:29Z</time></trkpt>
<trkpt lat="44.09641097" lon="5.35857400"><ele>991.599976</ele><time>2011-07-05T10:04:35Z</time></trkpt>
<trkpt lat="44.09641500" lon="5.35884096"><ele>990.400024</ele><time>2011-07-05T10:04:39Z</time></trkpt>
<trkpt lat="44.09649295" lon="5.35907993"><ele>988.799988</ele><time>2011-07-05T10:04:43Z</time></trkpt>
<trkpt lat="44.09656394" lon="5.35921798"><ele>987.799988</ele><time>2011-07-05T10:04:46Z</time></trkpt>
<trkpt lat="44.09670895" lon="5.35933499"><ele>986.400024</ele><time>2011-07-05T10:04:50Z</time></trkpt>
<trkpt lat="44.09678497" lon="5.35939199"><ele>985.799988</ele><time>2011-07-05T10:04:52Z</time></trkpt>
<trkpt lat="44.09695898" lon="5.35949492"><ele>984.200012</ele><time>2011-07-05T10:04:56Z</time></trkpt>
<trkpt lat="44.09725495" lon="5.35960497"><ele>980.799988</ele><time>2011-07-05T10:05:02Z</time></trkpt>
<trkpt lat="44.09743994" lon="5.35964898"><ele>979</ele><time>2011-07-05T10:05:06Z</time></trkpt>
<trkpt lat="44.09773699" lon="5.35967094"><ele>976.599976</ele><time>2011-07-05T10:05:12Z</time></trkpt>
<trkpt lat="44.09786398" lon="5.35966499"><ele>975.400024</ele><time>2011-07-05T10:05:15Z</time></trkpt>
<trkpt lat="44.09799892" lon="5.35965099"><ele>974</ele><time>2011-07-05T10:05:19Z</time></trkpt>
<trkpt lat="44.09802197" lon="5.35975593"><ele>972.799988</ele><time>2011-07-05T10:05:23Z</time></trkpt>
<trkpt lat="44.09796800" lon="5.35980295"><ele>972.400024</ele><time>2011-07-05T10:05:25Z</time></trkpt>
<trkpt lat="44.09773892" lon="5.35993095"><ele>969.200012</ele><time>2011-07-05T10:05:32Z</time></trkpt>
<trkpt lat="44.09753893" lon="5.36006598"><ele>967</ele><time>2011-07-05T10:05:38Z</time></trkpt>
<trkpt lat="44.09738394" lon="5.36017394"><ele>965.400024</ele><time>2011-07-05T10:05:42Z</time></trkpt>
<trkpt lat="44.09715797" lon="5.36030193"><ele>962.799988</ele><time>2011-07-05T10:05:47Z</time></trkpt>
<trkpt lat="44.09697893" lon="5.36042699"><ele>961</ele><time>2011-07-05T10:05:51Z</time></trkpt>
<trkpt lat="44.09674793" lon="5.36058599"><ele>958.400024</ele><time>2011-07-05T10:05:56Z</time></trkpt>
<trkpt lat="44.09652497" lon="5.36073293"><ele>955.400024</ele><time>2011-07-05T10:06:01Z</time></trkpt>
<trkpt lat="44.09642195" lon="5.36079193"><ele>954</ele><time>2011-07-05T10:06:04Z</time></trkpt>
<trkpt lat="44.09634199" lon="5.36082094"><ele>952.200012</ele><time>2011-07-05T10:06:08Z</time></trkpt>
<trkpt lat="44.09634392" lon="5.36081792"><ele>951.799988</ele><time>2011-07-05T10:06:09Z</time></trkpt>
<trkpt lat="44.09633193" lon="5.36078800"><ele>952</ele><time>2011-07-05T10:06:42Z</time></trkpt>
<trkpt lat="44.09622892" lon="5.36085798"><ele>951.599976</ele><time>2011-07-05T10:06:48Z</time></trkpt>
<trkpt lat="44.09602297" lon="5.36098195"><ele>949.400024</ele><time>2011-07-05T10:06:55Z</time></trkpt>
<trkpt lat="44.09582298" lon="5.36107600"><ele>947.799988</ele><time>2011-07-05T10:07:01Z</time></trkpt>
<trkpt lat="44.09568493" lon="5.36111196"><ele>946.799988</ele><time>2011-07-05T10:07:06Z</time></trkpt>
<trkpt lat="44.09537899" lon="5.36114096"><ele>944.799988</ele><time>2011-07-05T10:07:14Z</time></trkpt>
<trkpt lat="44.09524899" lon="5.36113794"><ele>943.799988</ele><time>2011-07-05T10:07:17Z</time></trkpt>
<trkpt lat="44.09504196" lon="5.36101892"><ele>941.599976</ele><time>2011-07-05T10:07:23Z</time></trkpt>
<trkpt lat="44.09494397" lon="5.36079093"><ele>940</ele><time>2011-07-05T10:07:28Z</time></trkpt>
<trkpt lat="44.09488396" lon="5.36057493"><ele>938.200012</ele><time>2011-07-05T10:07:33Z</time></trkpt>
<trkpt lat="44.09487398" lon="5.36055498"><ele>938</ele><time>2011-07-05T10:07:34Z</time></trkpt>
<trkpt lat="44.09481699" lon="5.36058297"><ele>936.799988</ele><time>2011-07-05T10:07:40Z</time></trkpt>
<trkpt lat="44.09481900" lon="5.36079193"><ele>935.200012</ele><time>2011-07-05T10:07:46Z</time></trkpt>
<trkpt lat="44.09485093" lon="5.36106996"><ele>933.200012</ele><time>2011-07-05T10:07:52Z</time></trkpt>
<trkpt lat="44.09485898" lon="5.36128496"><ele>931.200012</ele><time>2011-07-05T10:07:57Z</time></trkpt>
<trkpt lat="44.09488396" lon="5.36142695"><ele>930</ele><time>2011-07-05T10:08:02Z</time></trkpt>
<trkpt lat="44.09495596" lon="5.36164496"><ele>928.599976</ele><time>2011-07-05T10:08:08Z</time></trkpt>
<trkpt lat="44.09510298" lon="5.36185300"><ele>926.799988</ele><time>2011-07-05T10:08:14Z</time></trkpt>
<trkpt lat="44.09531998" lon="5.36199792"><ele>924.599976</ele><time>2011-07-05T10:08:21Z</time></trkpt>
<trkpt lat="44.09549592" lon="5.36207093"><ele>922.400024</ele><time>2011-07-05T10:08:27Z</time></trkpt>
<trkpt lat="44.09567898" lon="5.36212298"><ele>920.400024</ele><time>2011-07-05T10:08:32Z</time></trkpt>
<trkpt lat="44.09573698" lon="5.36212097"><ele>919.599976</ele><time>2011-07-05T10:08:34Z</time></trkpt>
<trkpt lat="44.09584595" lon="5.36213497"><ele>917.799988</ele><time>2011-07-05T10:08:39Z</time></trkpt>
<trkpt lat="44.09600395" lon="5.36213396"><ele>916.400024</ele><time>2011-07-05T10:08:45Z</time></trkpt>
<trkpt lat="44.09615600" lon="5.36215793"><ele>915.200012</ele><time>2011-07-05T10:08:50Z</time></trkpt>
<trkpt lat="44.09629396" lon="5.36215995"><ele>913.799988</ele><time>2011-07-05T10:08:55Z</time></trkpt>
<trkpt lat="44.09643696" lon="5.36216900"><ele>911.799988</ele><time>2011-07-05T10:09:00Z</time></trkpt>
<trkpt lat="44.09664793" lon="5.36217595"><ele>910</ele><time>2011-07-05T10:09:06Z</time></trkpt>
<trkpt lat="44.09679495" lon="5.36218895"><ele>908.200012</ele><time>2011-07-05T10:09:11Z</time></trkpt>
<trkpt lat="44.09698396" lon="5.36220596"><ele>906.200012</ele><time>2011-07-05T10:09:17Z</time></trkpt>
<trkpt lat="44.09723198" lon="5.36221099"><ele>904</ele><time>2011-07-05T10:09:24Z</time></trkpt>
<trkpt lat="44.09742996" lon="5.36220898"><ele>902.400024</ele><time>2011-07-05T10:09:29Z</time></trkpt>
<trkpt lat="44.09769097" lon="5.36224293"><ele>899.799988</ele><time>2011-07-05T10:09:35Z</time></trkpt>
<trkpt lat="44.09794394" lon="5.36226698"><ele>897.200012</ele><time>2011-07-05T10:09:42Z</time></trkpt>
<trkpt lat="44.09818098" lon="5.36227000"><ele>894.599976</ele><time>2011-07-05T10:09:49Z</time></trkpt>
<trkpt lat="44.09839899" lon="5.36227696"><ele>893</ele><time>2011-07-05T10:09:55Z</time></trkpt>
<trkpt lat="44.09863494" lon="5.36229397"><ele>890.799988</ele><time>2011-07-05T10:10:01Z</time></trkpt>
<trkpt lat="44.09875598" lon="5.36227394"><ele>889.599976</ele><time>2011-07-05T10:10:06Z</time></trkpt>
<trkpt lat="44.09878297" lon="5.36236295"><ele>888.200012</ele><time>2011-07-05T10:10:11Z</time></trkpt>
<trkpt lat="44.09876595" lon="5.36237796"><ele>888</ele><time>2011-07-05T10:10:12Z</time></trkpt>
<trkpt lat="44.09858599" lon="5.36252498"><ele>886.200012</ele><time>2011-07-05T10:10:19Z</time></trkpt>
<trkpt lat="44.09839396" lon="5.36268398"><ele>882.799988</ele><time>2011-07-05T10:10:26Z</time></trkpt>
<trkpt lat="44.09836496" lon="5.36270192"><ele>882.599976</ele><time>2011-07-05T10:10:27Z</time></trkpt>
<trkpt lat="44.09819498" lon="5.36283192"><ele>879.799988</ele><time>2011-07-05T10:10:33Z</time></trkpt>
<trkpt lat="44.09812197" lon="5.36291096"><ele>878.400024</ele><time>2011-07-05T10:10:36Z</time></trkpt>
<trkpt lat="44.09796095" lon="5.36302194"><ele>876</ele><time>2011-07-05T10:10:42Z</time></trkpt>
<trkpt lat="44.09788996" lon="5.36308195"><ele>874.799988</ele><time>2011-07-05T10:10:45Z</time></trkpt>
<trkpt lat="44.09775593" lon="5.36318396"><ele>872.799988</ele><time>2011-07-05T10:10:50Z</time></trkpt>
<trkpt lat="44.09767496" lon="5.36327197"><ele>871</ele><time>2011-07-05T10:10:54Z</time></trkpt>
<trkpt lat="44.09751495" lon="5.36339795"><ele>868.799988</ele><time>2011-07-05T10:11:00Z</time></trkpt>
<trkpt lat="44.09743994" lon="5.36345495"><ele>867.599976</ele><time>2011-07-05T10:11:03Z</time></trkpt>
<trkpt lat="44.09731194" lon="5.36355696"><ele>865.200012</ele><time>2011-07-05T10:11:08Z</time></trkpt>
<trkpt lat="44.09720792" lon="5.36364597"><ele>863.400024</ele><time>2011-07-05T10:11:12Z</time></trkpt>
<trkpt lat="44.09704096" lon="5.36379199"><ele>860.599976</ele><time>2011-07-05T10:11:19Z</time></trkpt>
<trkpt lat="44.09694398" lon="5.36386994"><ele>858.400024</ele><time>2011-07-05T10:11:24Z</time></trkpt>
<trkpt lat="44.09682697" lon="5.36397295"><ele>856.799988</ele><time>2011-07-05T10:11:30Z</time></trkpt>
<trkpt lat="44.09667492" lon="5.36408200"><ele>854.799988</ele><time>2011-07-05T10:11:36Z</time></trkpt>
<trkpt lat="44.09661499" lon="5.36411192"><ele>853.400024</ele><time>2011-07-05T10:11:41Z</time></trkpt>
<trkpt lat="44.09653595" lon="5.36417697"><ele>852.599976</ele><time>2011-07-05T10:11:46Z</time></trkpt>
<trkpt lat="44.09637292" lon="5.36431896"><ele>850.599976</ele><time>2011-07-05T10:11:54Z</time></trkpt>
<trkpt lat="44.09619698" lon="5.36445097"><ele>848.400024</ele><time>2011-07-05T10:12:01Z</time></trkpt>
<trkpt lat="44.09597998" lon="5.36464099"><ele>845.599976</ele><time>2011-07-05T10:12:09Z</time></trkpt>
<trkpt lat="44.09578795" lon="5.36481500"><ele>843</ele><time>2011-07-05T10:12:16Z</time></trkpt>
<trkpt lat="44.09563397" lon="5.36494592"><ele>840.599976</ele><time>2011-07-05T10:12:22Z</time></trkpt>
<trkpt lat="44.09547396" lon="5.36506897"><ele>838.400024</ele><time>2011-07-05T10:12:28Z</time></trkpt>
<trkpt lat="44.09529794" lon="5.36520693"><ele>835.799988</ele><time>2011-07-05T10:12:35Z</time></trkpt>
<trkpt lat="44.09514497" lon="5.36533493"><ele>833.599976</ele><time>2011-07-05T10:12:41Z</time></trkpt>
<trkpt lat="44.09497096" lon="5.36546895"><ele>831.400024</ele><time>2011-07-05T10:12:48Z</time></trkpt>
<trkpt lat="44.09482093" lon="5.36555797"><ele>829.599976</ele><time>2011-07-05T10:12:54Z</time></trkpt>
<trkpt lat="44.09463393" lon="5.36558798"><ele>826.799988</ele><time>2011-07-05T10:13:00Z</time></trkpt>
<trkpt lat="44.09452194" lon="5.36568093"><ele>825.599976</ele><time>2011-07-05T10:13:05Z</time></trkpt>
<trkpt lat="44.09444994" lon="5.36586693"><ele>824.599976</ele><time>2011-07-05T10:13:10Z</time></trkpt>
<trkpt lat="44.09434198" lon="5.36608100"><ele>823.400024</ele><time>2011-07-05T10:13:16Z</time></trkpt>
<trkpt lat="44.09431793" lon="5.36610899"><ele>823.200012</ele><time>2011-07-05T10:13:17Z</time></trkpt>
<trkpt lat="44.09414593" lon="5.36614696"><ele>821.599976</ele><time>2011-07-05T10:13:23Z</time></trkpt>
<trkpt lat="44.09410000" lon="5.36625995"><ele>820.200012</ele><time>2011-07-05T10:13:28Z</time></trkpt>
<trkpt lat="44.09412699" lon="5.36629993"><ele>819.799988</ele><time>2011-07-05T10:13:30Z</time></trkpt>
<trkpt lat="44.09427996" lon="5.36638794"><ele>818.599976</ele><time>2011-07-05T10:13:36Z</time></trkpt>
<trkpt lat="44.09442295" lon="5.36647696"><ele>817.599976</ele><time>2011-07-05T10:13:41Z</time></trkpt>
<trkpt lat="44.09457693" lon="5.36655894"><ele>815.799988</ele><time>2011-07-05T10:13:47Z</time></trkpt>
<trkpt lat="44.09469595" lon="5.36662498"><ele>814.599976</ele><time>2011-07-05T10:13:52Z</time></trkpt>
<trkpt lat="44.09475597" lon="5.36669397"><ele>813.599976</ele><time>2011-07-05T10:13:55Z</time></trkpt>
<trkpt lat="44.09471800" lon="5.36678692"><ele>812.799988</ele><time>2011-07-05T10:13:59Z</time></trkpt>
<trkpt lat="44.09463895" lon="5.36683193"><ele>812.200012</ele><time>2011-07-05T10:14:02Z</time></trkpt>
<trkpt lat="44.09447593" lon="5.36693797"><ele>810.799988</ele><time>2011-07-05T10:14:08Z</time></trkpt>
<trkpt lat="44.09428096" lon="5.36700192"><ele>808.799988</ele><time>2011-07-05T10:14:14Z</time></trkpt>
<trkpt lat="44.09404694" lon="5.36702296"><ele>806.799988</ele><time>2011-07-05T10:14:21Z</time></trkpt>
<trkpt lat="44.09381694" lon="5.36697996"><ele>805.200012</ele><time>2011-07-05T10:14:27Z</time></trkpt>
<trkpt lat="44.09364595" lon="5.36692397"><ele>804</ele><time>2011-07-05T10:14:32Z</time></trkpt>
<trkpt lat="44.09341193" lon="5.36685599"><ele>802.400024</ele><time>2011-07-05T10:14:39Z</time></trkpt>
<trkpt lat="44.09322392" lon="5.36677100"><ele>801.200012</ele><time>2011-07-05T10:14:46Z</time></trkpt>
<trkpt lat="44.09297297" lon="5.36668693"><ele>799.400024</ele><time>2011-07-05T10:14:53Z</time></trkpt>
<trkpt lat="44.09283098" lon="5.36663094"><ele>798.200012</ele><time>2011-07-05T10:14:58Z</time></trkpt>
<trkpt lat="44.09272897" lon="5.36652692"><ele>797.200012</ele><time>2011-07-05T10:15:03Z</time></trkpt>
<trkpt lat="44.09268497" lon="5.36650999"><ele>797</ele><time>2011-07-05T10:15:05Z</time></trkpt>
<trkpt lat="44.09266292" lon="5.36651795"><ele>796.400024</ele><time>2011-07-05T10:15:08Z</time></trkpt>
<trkpt lat="44.09272495" lon="5.36667595"><ele>795.400024</ele><time>2011-07-05T10:15:19Z</time></trkpt>
<trkpt lat="44.09282394" lon="5.36682598"><ele>793.599976</ele><time>2011-07-05T10:15:26Z</time></trkpt>
<trkpt lat="44.09291094" lon="5.36696898"><ele>791.799988</ele><time>2011-07-05T10:15:32Z</time></trkpt>
<trkpt lat="44.09300893" lon="5.36710896"><ele>790</ele><time>2011-07-05T10:15:38Z</time></trkpt>
<trkpt lat="44.09312895" lon="5.36730794"><ele>787.599976</ele><time>2011-07-05T10:15:45Z</time></trkpt>
<trkpt lat="44.09320196" lon="5.36742395"><ele>786</ele><time>2011-07-05T10:15:50Z</time></trkpt>
<trkpt lat="44.09329492" lon="5.36756292"><ele>784.599976</ele><time>2011-07-05T10:15:56Z</time></trkpt>
<trkpt lat="44.09338293" lon="5.36763794"><ele>783</ele><time>2011-07-05T10:16:01Z</time></trkpt>
<trkpt lat="44.09337798" lon="5.36774296"><ele>782</ele><time>2011-07-05T10:16:06Z</time></trkpt>
<trkpt lat="44.09328695" lon="5.36774900"><ele>780.599976</ele><time>2011-07-05T10:16:10Z</time></trkpt>
<trkpt lat="44.09310197" lon="5.36772293"><ele>778.400024</ele><time>2011-07-05T10:16:16Z</time></trkpt>
<trkpt lat="44.09286493" lon="5.36768295"><ele>776.400024</ele><time>2011-07-05T10:16:23Z</time></trkpt>
<trkpt lat="44.09259997" lon="5.36750693"><ele>773.599976</ele><time>2011-07-05T10:16:31Z</time></trkpt>
<trkpt lat="44.09246293" lon="5.36732496"><ele>772</ele><time>2011-07-05T10:16:36Z</time></trkpt>
<trkpt lat="44.09231692" lon="5.36722597"><ele>771.200012</ele><time>2011-07-05T10:16:41Z</time></trkpt>
<trkpt lat="44.09219798" lon="5.36721599"><ele>770.599976</ele><time>2011-07-05T10:16:45Z</time></trkpt>
<trkpt lat="44.09212698" lon="5.36730895"><ele>769.400024</ele><time>2011-07-05T10:16:50Z</time></trkpt>
<trkpt lat="44.09215297" lon="5.36736796"><ele>768.599976</ele><time>2011-07-05T10:16:52Z</time></trkpt>
<trkpt lat="44.09236997" lon="5.36759100"><ele>765.799988</ele><time>2011-07-05T10:17:00Z</time></trkpt>
<trkpt lat="44.09248397" lon="5.36774992"><ele>763.400024</ele><time>2011-07-05T10:17:07Z</time></trkpt>
<trkpt lat="44.09255094" lon="5.36788596"><ele>762.400024</ele><time>2011-07-05T10:17:13Z</time></trkpt>
<trkpt lat="44.09247994" lon="5.36795494"><ele>761.200012</ele><time>2011-07-05T10:17:18Z</time></trkpt>
<trkpt lat="44.09235598" lon="5.36797598"><ele>759.599976</ele><time>2011-07-05T10:17:23Z</time></trkpt>
<trkpt lat="44.09219597" lon="5.36803398"><ele>757.400024</ele><time>2011-07-05T10:17:29Z</time></trkpt>
<trkpt lat="44.09207292" lon="5.36810892"><ele>755.599976</ele><time>2011-07-05T10:17:34Z</time></trkpt>
<trkpt lat="44.09201399" lon="5.36821495"><ele>754.400024</ele><time>2011-07-05T10:17:39Z</time></trkpt>
<trkpt lat="44.09201098" lon="5.36840798"><ele>752.799988</ele><time>2011-07-05T10:17:44Z</time></trkpt>
<trkpt lat="44.09196597" lon="5.36868894"><ele>750.799988</ele><time>2011-07-05T10:17:51Z</time></trkpt>
<trkpt lat="44.09195297" lon="5.36889095"><ele>749.200012</ele><time>2011-07-05T10:17:56Z</time></trkpt>
<trkpt lat="44.09192892" lon="5.36914894"><ele>747.799988</ele><time>2011-07-05T10:18:02Z</time></trkpt>
<trkpt lat="44.09189397" lon="5.36943695"><ele>745.799988</ele><time>2011-07-05T10:18:09Z</time></trkpt>
<trkpt lat="44.09186999" lon="5.36969494"><ele>744</ele><time>2011-07-05T10:18:15Z</time></trkpt>
<trkpt lat="44.09191400" lon="5.36990499"><ele>742.599976</ele><time>2011-07-05T10:18:20Z</time></trkpt>
<trkpt lat="44.09197695" lon="5.37013994"><ele>740.400024</ele><time>2011-07-05T10:18:26Z</time></trkpt>
<trkpt lat="44.09209496" lon="5.37032895"><ele>738.400024</ele><time>2011-07-05T10:18:32Z</time></trkpt>
<trkpt lat="44.09219898" lon="5.37047094"><ele>736.200012</ele><time>2011-07-05T10:18:37Z</time></trkpt>
<trkpt lat="44.09220896" lon="5.37050094"><ele>735.799988</ele><time>2011-07-05T10:18:38Z</time></trkpt>
<trkpt lat="44.09219898" lon="5.37063598"><ele>734.200012</ele><time>2011-07-05T10:18:43Z</time></trkpt>
<trkpt lat="44.09212799" lon="5.37081895"><ele>732.400024</ele><time>2011-07-05T10:18:49Z</time></trkpt>
<trkpt lat="44.09203495" lon="5.37100595"><ele>730.400024</ele><time>2011-07-05T10:18:55Z</time></trkpt>
<trkpt lat="44.09195599" lon="5.37114895"><ele>729.200012</ele><time>2011-07-05T10:19:00Z</time></trkpt>
<trkpt lat="44.09193797" lon="5.37117099"><ele>728.400024</ele><time>2011-07-05T10:19:03Z</time></trkpt>
<trkpt lat="44.09193797" lon="5.37126496"><ele>727.200012</ele><time>2011-07-05T10:19:39Z</time></trkpt>
<trkpt lat="44.09195096" lon="5.37142094"><ele>727</ele><time>2011-07-05T10:19:42Z</time></trkpt>
<trkpt lat="44.09191995" lon="5.37190692"><ele>724.599976</ele><time>2011-07-05T10:19:48Z</time></trkpt>
<trkpt lat="44.09186698" lon="5.37248192"><ele>722.599976</ele><time>2011-07-05T10:19:53Z</time></trkpt>
<trkpt lat="44.09182297" lon="5.37330193"><ele>719.599976</ele><time>2011-07-05T10:19:59Z</time></trkpt>
<trkpt lat="44.09187796" lon="5.37387592"><ele>718.200012</ele><time>2011-07-05T10:20:03Z</time></trkpt>
<trkpt lat="44.09212698" lon="5.37512993"><ele>717</ele><time>2011-07-05T10:20:12Z</time></trkpt>
<trkpt lat="44.09228297" lon="5.37590895"><ele>715.400024</ele><time>2011-07-05T10:20:18Z</time></trkpt>
<trkpt lat="44.09241792" lon="5.37695199"><ele>713.200012</ele><time>2011-07-05T10:20:26Z</time></trkpt>
<trkpt lat="44.09243099" lon="5.37788599"><ele>710.599976</ele><time>2011-07-05T10:20:33Z</time></trkpt>
<trkpt lat="44.09256293" lon="5.37850893"><ele>709.400024</ele><time>2011-07-05T10:20:38Z</time></trkpt>
<trkpt lat="44.09282997" lon="5.37956597"><ele>708.200012</ele><time>2011-07-05T10:20:47Z</time></trkpt>
<trkpt lat="44.09308696" lon="5.38063995"><ele>705.200012</ele><time>2011-07-05T10:20:56Z</time></trkpt>
<trkpt lat="44.09329198" lon="5.38161392"><ele>704.200012</ele><time>2011-07-05T10:21:04Z</time></trkpt>
<trkpt lat="44.09324395" lon="5.38223393"><ele>704.200012</ele><time>2011-07-05T10:21:09Z</time></trkpt>
<trkpt lat="44.09312795" lon="5.38293399"><ele>704</ele><time>2011-07-05T10:21:15Z</time></trkpt>
<trkpt lat="44.09298495" lon="5.38391895"><ele>703.799988</ele><time>2011-07-05T10:21:24Z</time></trkpt>
<trkpt lat="44.09299199" lon="5.38449395"><ele>703.200012</ele><time>2011-07-05T10:21:30Z</time></trkpt>
<trkpt lat="44.09304195" lon="5.38510499"><ele>703.400024</ele><time>2011-07-05T10:21:37Z</time></trkpt>
<trkpt lat="44.09306995" lon="5.38563296"><ele>703.400024</ele><time>2011-07-05T10:21:43Z</time></trkpt>
<trkpt lat="44.09311797" lon="5.38635800"><ele>703.599976</ele><time>2011-07-05T10:21:51Z</time></trkpt>
<trkpt lat="44.09319894" lon="5.38712494"><ele>703</ele><time>2011-07-05T10:22:00Z</time></trkpt>
<trkpt lat="44.09325393" lon="5.38778996"><ele>703</ele><time>2011-07-05T10:22:07Z</time></trkpt>
<trkpt lat="44.09332492" lon="5.38867098"><ele>703.400024</ele><time>2011-07-05T10:22:15Z</time></trkpt>
<trkpt lat="44.09339692" lon="5.38950892"><ele>703.200012</ele><time>2011-07-05T10:22:23Z</time></trkpt>
<trkpt lat="44.09345794" lon="5.39022398"><ele>703.599976</ele><time>2011-07-05T10:22:31Z</time></trkpt>
<trkpt lat="44.09352500" lon="5.39101297"><ele>702.599976</ele><time>2011-07-05T10:22:40Z</time></trkpt>
<trkpt lat="44.09358996" lon="5.39182895"><ele>702.599976</ele><time>2011-07-05T10:22:49Z</time></trkpt>
<trkpt lat="44.09364394" lon="5.39246698"><ele>703</ele><time>2011-07-05T10:22:56Z</time></trkpt>
<trkpt lat="44.09369599" lon="5.39324599"><ele>703</ele><time>2011-07-05T10:23:05Z</time></trkpt>
<trkpt lat="44.09371594" lon="5.39386299"><ele>704</ele><time>2011-07-05T10:23:13Z</time></trkpt>
<trkpt lat="44.09373295" lon="5.39444896"><ele>705</ele><time>2011-07-05T10:23:21Z</time></trkpt>
<trkpt lat="44.09374000" lon="5.39491198"><ele>705.599976</ele><time>2011-07-05T10:23:28Z</time></trkpt>
<trkpt lat="44.09374000" lon="5.39506294"><ele>706</ele><time>2011-07-05T10:23:32Z</time></trkpt>
<trkpt lat="44.09374000" lon="5.39506294"><ele>706</ele><time>2011-07-05T10:23:33Z</time></trkpt>
<trkpt lat="44.09375693" lon="5.39519294"><ele>705.799988</ele><time>2011-07-05T10:23:50Z</time></trkpt>
<trkpt lat="44.09375793" lon="5.39548597"><ele>706.400024</ele><time>2011-07-05T10:23:55Z</time></trkpt>
<trkpt lat="44.09377092" lon="5.39608595"><ele>707.799988</ele><time>2011-07-05T10:24:04Z</time></trkpt>
<trkpt lat="44.09377495" lon="5.39614798"><ele>708</ele><time>2011-07-05T10:24:05Z</time></trkpt>
<trkpt lat="44.09379498" lon="5.39662197"><ele>708.400024</ele><time>2011-07-05T10:24:13Z</time></trkpt>
<trkpt lat="44.09379599" lon="5.39680093"><ele>708.400024</ele><time>2011-07-05T10:24:16Z</time></trkpt>
<trkpt lat="44.09376095" lon="5.39728297"><ele>709.400024</ele><time>2011-07-05T10:24:24Z</time></trkpt>
<trkpt lat="44.09372097" lon="5.39771095"><ele>708.200012</ele><time>2011-07-05T10:24:30Z</time></trkpt>
<trkpt lat="44.09368895" lon="5.39818595"><ele>707.599976</ele><time>2011-07-05T10:24:35Z</time></trkpt>
<trkpt lat="44.09362994" lon="5.39887595"><ele>707</ele><time>2011-07-05T10:24:42Z</time></trkpt>
<trkpt lat="44.09359197" lon="5.39906295"><ele>707</ele><time>2011-07-05T10:24:44Z</time></trkpt>
<trkpt lat="44.09343498" lon="5.39936696"><ele>707</ele><time>2011-07-05T10:24:48Z</time></trkpt>
<trkpt lat="44.09332794" lon="5.39946394"><ele>707.200012</ele><time>2011-07-05T10:24:50Z</time></trkpt>
<trkpt lat="44.09310297" lon="5.39966594"><ele>706.400024</ele><time>2011-07-05T10:24:54Z</time></trkpt>
<trkpt lat="44.09290097" lon="5.40002293"><ele>707.400024</ele><time>2011-07-05T10:24:59Z</time></trkpt>
<trkpt lat="44.09273593" lon="5.40042199"><ele>708</ele><time>2011-07-05T10:25:05Z</time></trkpt>
<trkpt lat="44.09270994" lon="5.40048293"><ele>708</ele><time>2011-07-05T10:25:06Z</time></trkpt>
<trkpt lat="44.09267692" lon="5.40083195"><ele>709.200012</ele><time>2011-07-05T10:25:11Z</time></trkpt>
<trkpt lat="44.09280399" lon="5.40103999"><ele>710.200012</ele><time>2011-07-05T10:25:15Z</time></trkpt>
<trkpt lat="44.09289996" lon="5.40110294"><ele>710.200012</ele><time>2011-07-05T10:25:17Z</time></trkpt>
<trkpt lat="44.09311295" lon="5.40120495"><ele>710</ele><time>2011-07-05T10:25:21Z</time></trkpt>
<trkpt lat="44.09332895" lon="5.40136999"><ele>709.400024</ele><time>2011-07-05T10:25:26Z</time></trkpt>
<trkpt lat="44.09332995" lon="5.40150695"><ele>709.400024</ele><time>2011-07-05T10:25:28Z</time></trkpt>
<trkpt lat="44.09326893" lon="5.40202595"><ele>709.599976</ele><time>2011-07-05T10:25:35Z</time></trkpt>
<trkpt lat="44.09328293" lon="5.40234497"><ele>709.799988</ele><time>2011-07-05T10:25:39Z</time></trkpt>
<trkpt lat="44.09339592" lon="5.40288694"><ele>709.599976</ele><time>2011-07-05T10:25:46Z</time></trkpt>
<trkpt lat="44.09354595" lon="5.40323395"><ele>710</ele><time>2011-07-05T10:25:51Z</time></trkpt>
<trkpt lat="44.09377897" lon="5.40361600"><ele>710.799988</ele><time>2011-07-05T10:25:57Z</time></trkpt>
<trkpt lat="44.09405792" lon="5.40391800"><ele>711.200012</ele><time>2011-07-05T10:26:03Z</time></trkpt>
<trkpt lat="44.09427694" lon="5.40416694"><ele>711.400024</ele><time>2011-07-05T10:26:08Z</time></trkpt>
<trkpt lat="44.09432095" lon="5.40442795"><ele>711.599976</ele><time>2011-07-05T10:26:12Z</time></trkpt>
<trkpt lat="44.09429999" lon="5.40449099"><ele>711.599976</ele><time>2011-07-05T10:26:13Z</time></trkpt>
<trkpt lat="44.09426294" lon="5.40461496"><ele>712.200012</ele><time>2011-07-05T10:26:15Z</time></trkpt>
<trkpt lat="44.09428398" lon="5.40484495"><ele>713</ele><time>2011-07-05T10:26:19Z</time></trkpt>
<trkpt lat="44.09435598" lon="5.40490296"><ele>713.400024</ele><time>2011-07-05T10:26:21Z</time></trkpt>
<trkpt lat="44.09475597" lon="5.40508895"><ele>713.599976</ele><time>2011-07-05T10:26:30Z</time></trkpt>
<trkpt lat="44.09517892" lon="5.40525198"><ele>713.400024</ele><time>2011-07-05T10:26:38Z</time></trkpt>
<trkpt lat="44.09563598" lon="5.40546195"><ele>713.200012</ele><time>2011-07-05T10:26:46Z</time></trkpt>
<trkpt lat="44.09608793" lon="5.40566697"><ele>713</ele><time>2011-07-05T10:26:54Z</time></trkpt>
<trkpt lat="44.09653896" lon="5.40589294"><ele>713</ele><time>2011-07-05T10:27:03Z</time></trkpt>
<trkpt lat="44.09672697" lon="5.40597199"><ele>713</ele><time>2011-07-05T10:27:07Z</time></trkpt>
<trkpt lat="44.09699293" lon="5.40610693"><ele>712.799988</ele><time>2011-07-05T10:27:14Z</time></trkpt>
<trkpt lat="44.09712796" lon="5.40625496"><ele>712.799988</ele><time>2011-07-05T10:27:20Z</time></trkpt>
<trkpt lat="44.09714799" lon="5.40627792"><ele>713</ele><time>2011-07-05T10:27:23Z</time></trkpt>
<trkpt lat="44.09716300" lon="5.40627893"><ele>713</ele><time>2011-07-05T10:27:27Z</time></trkpt>
<trkpt lat="44.09716099" lon="5.40627097"><ele>712.799988</ele><time>2011-07-05T10:27:29Z</time></trkpt>
</trkseg></trk></gpx>